Date StartTime U_cm/s V_cm/s W_cm/s Ustd_cm/s Vstd_cm/s Wstd_cm/s Uvar_(cm/s)^2 Vvar_(cm/s)^2 Wvar_(cm/s)^2 KE_(m/s)^2 TurbulentKE_(m/s)^2 HorizWindSpeed_cm/s FrictionSpeec_cm/s DragCoef SpeedOfSound_m/s SonicTemperature_C Pressure_mb 
05/09/2013  00:00:00      -75.433      -66.725       20.721      101.056       71.448       52.719    10212.398     5104.788     2779.266        1.433        0.905      100.709       51.189        0.258      340.236       14.115      863.468
05/09/2013  00:01:00      -71.697       34.784       -1.447       68.861       92.541       41.068     4741.840     8563.816     1686.604        1.067        0.750       79.689       32.632        0.168      340.167       14.000      863.485
05/09/2013  00:02:00     -186.936      -15.824      -23.928       58.624       97.794       24.719     3436.750     9563.606      611.027        2.469        0.681      187.605       14.865        0.006      340.186       14.030      863.509
05/09/2013  00:03:00     -130.244     -112.115       -3.028      107.383       58.917       36.498    11531.127     3471.255     1332.102        2.294        0.817      171.853       43.718        0.065      340.315       14.247      863.485
05/09/2013  00:04:00      -80.286      -42.581       20.350      102.526       66.973       56.420    10511.611     4485.426     3183.195        1.342        0.909       90.878       66.052        0.528      340.243       14.129      863.471
05/09/2013  00:05:00     -105.400      -73.957        3.762       81.665       76.325       46.200     6669.112     5825.575     2134.456        1.561        0.731      128.759       44.647        0.120      340.295       14.215      863.494
05/09/2013  00:06:00     -144.854       19.000       -8.626       48.605       66.020       29.514     2362.435     4358.654      871.065        1.450        0.380      146.095       20.780        0.020      340.193       14.045      863.545
05/09/2013  00:07:00     -175.593      -50.698       -5.070       49.130       48.412       24.920     2413.792     2343.725      620.995        1.940        0.269      182.766       21.196        0.013      340.218       14.086      863.557
05/09/2013  00:08:00     -101.981      -16.074       10.694       53.328       41.160       32.376     2843.826     1694.137     1048.213        0.818        0.279      103.240       31.477        0.093      340.153       13.977      863.567
05/09/2013  00:09:00      -79.905      -81.881        8.522       50.312       55.647       29.865     2531.293     3096.540      891.897        0.984        0.326      114.409       26.317        0.053      340.228       14.104      863.593
05/09/2013  00:10:00     -123.195      -30.423       -8.138       54.947       47.920       30.881     3019.213     2296.356      953.610        1.122        0.313      126.896       23.800        0.035      340.284       14.198      863.600
05/09/2013  00:11:00     -122.100      -12.040      -12.502       37.879       37.314       22.943     1434.837     1392.329      526.371        0.928        0.168      122.692       16.923        0.019      340.280       14.190      863.604
05/09/2013  00:12:00      -94.788      -20.991       -4.139       40.432       36.978       19.679     1634.777     1367.379      387.251        0.642        0.169       97.085       20.006        0.042      340.166       13.998      863.622
05/09/2013  00:13:00     -129.002      -32.967      -14.166       36.336       27.965       19.495     1320.322      782.028      380.044        1.021        0.124      133.148       20.131        0.023      340.212       14.075      863.635
05/09/2013  00:14:00     -118.515      -27.844      -11.409       38.351       31.793       23.878     1470.765     1010.821      570.141        0.900        0.153      121.742       21.795        0.032      340.191       14.041      863.643
05/09/2013  00:15:00     -119.695      -44.215       -3.242       56.889       41.562       23.569     3236.345     1727.367      555.506        1.090        0.276      127.600       30.427        0.057      340.145       13.964      863.642
05/09/2013  00:16:00     -213.355        7.024       -6.254       70.478       50.527       36.572     4967.106     2553.008     1337.475        2.723        0.443      213.470       39.230        0.034      340.165       13.994      863.649
05/09/2013  00:17:00     -174.954        2.520       -9.218       57.206       40.523       34.263     3272.543     1642.088     1173.953        1.839        0.304      174.972       34.475        0.039      340.142       13.956      863.671
05/09/2013  00:18:00     -114.846       26.409       -3.544       33.780       26.090       18.851     1141.096      680.709      355.360        0.804        0.109      117.843       16.379        0.019      340.108       13.900      863.693
05/09/2013  00:19:00      -92.982       -3.536       -8.737       36.644       26.758       13.337     1342.781      715.992      177.886        0.549        0.112       93.050       14.703        0.025      340.090       13.872      863.711
05/09/2013  00:20:00     -168.713      -41.657      -11.306       36.953       39.071       21.548     1365.511     1526.540      464.313        1.684        0.168      173.780       19.499        0.013      340.120       13.920      863.710
05/09/2013  00:21:00     -131.293      -71.204       -2.174       65.758       51.343       32.281     4324.094     2636.154     1042.062        1.516        0.400      149.358       33.524        0.050      340.083       13.858      863.709
05/09/2013  00:22:00     -226.269      -27.711       -1.484       83.785       55.003       39.264     7019.962     3025.318     1541.678        3.178        0.579      227.960       41.622        0.033      340.107       13.895      863.726
05/09/2013  00:23:00     -140.296      -51.137       -4.199       68.177       50.587       26.103     4648.084     2559.075      681.388        1.510        0.394      149.325       23.777        0.025      340.064       13.825      863.748
05/09/2013  00:24:00     -115.496       -1.948       -6.285       44.005       53.904       31.231     1936.424     2905.641      975.403        0.960        0.291      115.512       24.153        0.044      340.086       13.865      863.755
05/09/2013  00:25:00     -140.959      -88.740        1.051       68.679       65.152       33.937     4716.785     4244.793     1151.700        1.893        0.506      166.566       30.964        0.035      340.089       13.868      863.767
05/09/2013  00:26:00     -208.226      -49.698       -4.249      110.662       74.080       45.055    12246.095     5487.915     2029.946        3.280        0.988      214.074       51.607        0.058      340.099       13.884      863.778
05/09/2013  00:27:00     -222.565      -76.873      -13.547       76.370       44.042       37.201     5832.427     1939.683     1383.951        3.239        0.458      235.467       30.125        0.016      340.119       13.917      863.779
05/09/2013  00:28:00     -161.259      -91.556       -8.678       67.975       56.564       36.373     4620.587     3199.469     1322.999        2.180        0.457      185.437       33.231        0.032      340.092       13.872      863.781
05/09/2013  00:29:00     -167.298      -40.042       -9.708       74.801       49.744       31.918     5595.233     2474.459     1018.762        1.939        0.454      172.023       30.711        0.032      340.081       13.854      863.789
05/09/2013  00:30:00     -215.400      -61.346      -12.459       52.335       61.756       31.863     2738.919     3813.780     1015.272        2.894        0.378      223.965       18.354        0.007      340.082       13.853      863.800
05/09/2013  00:31:00     -196.893      -61.922       -2.404       73.383       62.136       33.894     5385.041     3860.861     1148.836        2.650        0.520      206.400       34.511        0.028      340.032       13.769      863.803
05/09/2013  00:32:00     -164.980      -56.239        0.287       71.411       74.288       44.639     5099.588     5518.713     1992.637        2.149        0.631      174.302       38.770        0.049      339.980       13.683      863.806
05/09/2013  00:33:00     -282.076      -46.938      -19.974      101.918      104.308       50.586    10387.228    10880.188     2558.917        5.299        1.191      285.955       48.033        0.028      340.022       13.751      863.806
05/09/2013  00:34:00     -206.764      -45.883       -9.165       98.008       79.766       52.151     9605.644     6362.675     2719.698        3.181        0.934      211.794       52.943        0.062      339.993       13.703      863.810
05/09/2013  00:35:00     -232.373      -42.778       -7.657       99.273       60.079       43.198     9855.157     3609.464     1866.094        3.561        0.767      236.278       49.769        0.044      339.976       13.674      863.833
05/09/2013  00:36:00     -299.938      -42.642       -8.682       95.362       60.508       44.263     9093.839     3661.231     1959.237        5.328        0.736      302.954       46.348        0.023      340.014       13.739      863.854
05/09/2013  00:37:00     -229.293       -1.133       -0.115       67.320       53.123       38.104     4532.043     2822.008     1451.931        3.069        0.440      229.296       37.100        0.026      340.010       13.732      863.859
05/09/2013  00:38:00     -102.005      -31.927       -0.448       73.697       56.901       35.037     5431.318     3237.719     1227.559        1.066        0.495      106.885       41.388        0.150      339.982       13.688      863.856
05/09/2013  00:39:00     -165.767      -43.104       -0.871       79.711       60.624       34.902     6353.786     3675.218     1218.149        2.029        0.562      171.279       33.439        0.038      339.946       13.626      863.859
05/09/2013  00:40:00     -149.051      -29.210        0.383       80.035       68.715       40.409     6405.581     4721.731     1632.917        1.791        0.638      151.886       40.148        0.070      339.962       13.653      863.876
05/09/2013  00:41:00     -232.176       14.307      -13.654       62.089       66.935       29.146     3855.002     4480.228      849.479        3.174        0.459      232.616       30.717        0.017      339.971       13.667      863.892
05/09/2013  00:42:00     -162.493      -42.459      -21.248       88.301       53.456       33.695     7797.154     2857.535     1135.348        2.022        0.590      167.949       26.712        0.025      339.950       13.632      863.883
05/09/2013  00:43:00     -165.426      -54.012       -8.906       77.630       65.387       38.052     6026.442     4275.458     1447.932        2.105        0.587      174.021       36.094        0.043      339.962       13.653      863.868
05/09/2013  00:44:00     -211.284      -47.964       -7.732       67.521       77.309       43.238     4559.046     5976.742     1869.550        2.970        0.620      216.659       37.969        0.031      339.943       13.620      863.856
05/09/2013  00:45:00     -161.810      -26.918       -3.096       99.533       61.615       50.297     9906.784     3796.413     2529.758        2.157        0.812      164.034       58.310        0.126      339.927       13.593      863.844
05/09/2013  00:46:00     -238.954      -35.067      -20.364       83.747       61.431       37.121     7013.577     3773.789     1377.985        3.545        0.608      241.514       39.773        0.027      339.933       13.603      863.855
05/09/2013  00:47:00     -203.239      -33.963      -12.989      103.427       53.390       38.299    10697.077     2850.489     1466.778        2.882        0.751      206.058       48.978        0.056      339.937       13.610      863.854
05/09/2013  00:48:00     -149.921        3.939      -21.803       54.219       39.704       28.366     2939.697     1576.369      804.653        1.414        0.266      149.973       17.641        0.014      339.915       13.576      863.855
05/09/2013  00:49:00     -234.411       57.843      -22.141       78.966       59.717       34.461     6235.592     3566.101     1187.538        3.488        0.549      241.442       33.817        0.020      339.895       13.538      863.856
05/09/2013  00:50:00     -182.696       -5.907      -14.751       48.190       50.333       33.495     2322.270     2533.368     1121.885        1.980        0.299      182.792       30.113        0.027      339.906       13.560      863.870
05/09/2013  00:51:00     -143.800      -52.879       -1.740       74.561       46.457       35.353     5559.308     2158.264     1249.866        1.622        0.448      153.214       40.332        0.069      339.857       13.477      863.885
05/09/2013  00:52:00     -265.270        1.760      -26.010       74.921       41.420       28.134     5613.098     1715.620      791.549        3.958        0.406      265.276       28.747        0.012      339.925       13.590      863.893
05/09/2013  00:53:00     -214.332      -49.144      -17.939       45.255       53.294       32.229     2048.041     2840.253     1038.692        2.730        0.296      219.894       23.049        0.011      339.898       13.543      863.903
05/09/2013  00:54:00     -133.509      -24.254      -10.601       59.499       44.316       27.556     3540.096     1963.941      759.358        1.239        0.313      135.694       31.133        0.053      339.895       13.541      863.914
05/09/2013  00:55:00     -119.831       12.733       -6.299       49.015       33.561       22.708     2402.496     1126.368      515.633        0.930        0.202      120.506       24.787        0.042      339.889       13.532      863.919
05/09/2013  00:56:00     -160.388      -12.869      -11.164       56.997       58.006       33.350     3248.664     3364.723     1112.214        1.687        0.386      160.904       24.788        0.024      339.900       13.550      863.928
05/09/2013  00:57:00     -169.274      -10.971      -12.451       51.754       55.701       22.008     2678.484     3102.548      484.369        1.760        0.313      169.629       15.487        0.008      339.879       13.512      863.933
05/09/2013  00:58:00     -198.839      -34.651      -12.384       74.687       58.409       37.758     5578.162     3411.620     1425.635        2.565        0.521      201.836       38.090        0.036      339.920       13.582      863.928
05/09/2013  00:59:00     -261.784      -16.187      -26.687       82.134       52.246       39.615     6746.035     2729.644     1569.355        4.027        0.552      262.284       39.463        0.023      339.970       13.663      863.936
05/09/2013  01:00:00     -184.901        4.734       -9.717       71.671       61.590       38.049     5136.761     3793.282     1447.763        2.234        0.519      184.962       35.831        0.038      339.929       13.598      863.952
05/09/2013  01:01:00     -158.527        4.220      -14.687       53.331       37.349       27.317     2844.186     1394.917      746.201        1.517        0.249      158.583       28.470        0.032      339.901       13.552      863.953
05/09/2013  01:02:00     -129.462      -55.064      -13.027       45.997       45.504       31.852     2115.745     2070.649     1014.521        1.258        0.260      140.686       26.310        0.035      339.884       13.522      863.946
05/09/2013  01:03:00     -134.929      -58.355       -0.575       51.544       38.513       28.096     2656.793     1483.267      789.396        1.327        0.246      147.007       23.271        0.025      339.860       13.483      863.942
05/09/2013  01:04:00     -161.806      -22.191       -6.943       58.910       38.359       27.054     3470.377     1471.375      731.908        1.620        0.284      163.321       30.108        0.034      339.859       13.480      863.943
05/09/2013  01:05:00     -155.068      -28.485      -11.159       63.662       47.872       30.525     4052.864     2291.756      931.798        1.613        0.364      157.663       30.937        0.039      339.906       13.559      863.944
05/09/2013  01:06:00     -198.706      -45.022      -14.638       87.806       58.813       37.189     7709.953     3458.921     1383.029        2.714        0.628      203.743       44.357        0.047      339.947       13.627      863.938
05/09/2013  01:07:00     -198.720      -37.930      -11.523       59.633       52.141       32.719     3556.102     2718.710     1070.502        2.420        0.367      202.307       30.429        0.023      339.987       13.694      863.930
05/09/2013  01:08:00     -111.220      -30.442        2.402       56.493       46.323       25.341     3191.498     2145.831      642.142        0.964        0.299      115.310       25.685        0.050      339.943       13.622      863.923
05/09/2013  01:09:00     -114.344      -28.590       -2.547       57.357       45.451       27.236     3289.801     2065.751      741.775        1.000        0.305      117.864       27.475        0.054      339.887       13.528      863.926
05/09/2013  01:10:00     -217.048      -23.815      -11.368       91.207       48.299       34.720     8318.772     2332.823     1205.507        2.983        0.593      218.351       38.156        0.031      340.048       13.798      863.931
05/09/2013  01:11:00     -221.293     -104.452      -10.846       91.687       61.621       38.619     8406.559     3797.188     1491.448        3.684        0.685      244.705       37.864        0.024      340.098       13.881      863.923
05/09/2013  01:12:00     -179.443      -59.756      -14.156       69.313       70.613       29.877     4804.244     4986.231      892.638        2.333        0.534      189.131       30.109        0.025      340.125       13.928      863.931
05/09/2013  01:13:00     -142.401      -14.184       -9.101       43.104       57.762       31.968     1857.916     3336.490     1021.982        1.339        0.311      143.106       19.964        0.019      340.082       13.859      863.932
05/09/2013  01:14:00     -148.181      -42.393      -12.290       42.840       33.208       23.597     1835.263     1102.744      556.808        1.370        0.175      154.126       18.509        0.014      340.026       13.762      863.937
05/09/2013  01:15:00     -164.087      -30.492       -9.266       50.115       42.624       31.367     2511.510     1816.820      983.909        1.663        0.266      166.896       29.286        0.031      339.975       13.677      863.939
05/09/2013  01:16:00     -151.977      -49.336       -6.511       69.000       24.557       24.115     4761.052      603.055      581.550        1.576        0.297      159.784       22.622        0.020      340.016       13.746      863.941
05/09/2013  01:17:00     -100.932      -31.237       -8.183       53.419       28.021       20.543     2853.561      785.174      422.034        0.764        0.203      105.656       17.242        0.027      339.968       13.666      863.937
05/09/2013  01:18:00     -146.318      -59.686       -8.523       48.758       41.921       25.297     2377.340     1757.386      639.937        1.491        0.239      158.023       21.317        0.018      339.969       13.667      863.944
05/09/2013  01:19:00     -118.918      -29.517      -28.464       35.339       26.475       21.339     1248.867      700.903      455.335        0.911        0.120      122.526        8.092        0.004      339.987       13.697      863.954
05/09/2013  01:20:00     -119.893      -32.909       -6.887       33.912       33.846       25.843     1150.026     1145.529      667.857        0.923        0.148      124.328       19.145        0.024      339.940       13.619      863.945
05/09/2013  01:21:00     -118.353      -43.367      -13.833       33.210       28.960       20.200     1102.914      838.710      408.051        0.921        0.117      126.048       12.721        0.010      339.974       13.675      863.936
05/09/2013  01:22:00     -142.515      -41.316      -15.593       28.584       21.519       18.991      817.064      463.052      360.651        1.195        0.082      148.383       18.024        0.015      339.932       13.605      863.928
05/09/2013  01:23:00     -109.224      -32.084       -0.423       30.472       40.689       19.179      928.554     1655.603      367.847        0.796        0.148      113.839       18.670        0.027      339.874       13.506      863.915
05/09/2013  01:24:00     -112.602      -17.598       -6.364       20.404       25.453       14.379      416.329      647.834      206.752        0.715        0.064      113.968       10.135        0.008      339.903       13.554      863.918
05/09/2013  01:25:00     -136.988      -66.292       -0.913       61.693       37.960       25.745     3806.012     1440.975      662.786        1.453        0.295      152.186       30.719        0.041      339.851       13.467      863.927
05/09/2013  01:26:00     -153.192      -37.049       -2.357       62.050       46.764       26.455     3850.244     2186.852      699.881        1.579        0.337      157.609       27.334        0.030      339.811       13.400      863.925
05/09/2013  01:27:00     -123.108      -23.455       -6.904       47.184       30.571       19.567     2226.359      934.558      382.866        0.965        0.177      125.322       23.366        0.035      339.807       13.394      863.932
05/09/2013  01:28:00     -137.706      -31.571      -13.215       43.873       35.498       20.252     1924.839     1260.136      410.144        1.186        0.180      141.279       18.205        0.017      339.888       13.530      863.922
05/09/2013  01:29:00     -121.436      -39.789       -3.738       35.182       41.272       25.919     1237.768     1703.397      671.820        0.998        0.181      127.788       21.355        0.028      339.860       13.484      863.913
05/09/2013  01:30:00     -124.976      -55.585       -1.171       26.408       29.876       18.712      697.394      892.549      350.132        1.032        0.097      136.780       13.597        0.010      339.871       13.502      863.908
05/09/2013  01:31:00      -93.079      -24.477      -10.213       35.889       25.821       18.435     1288.054      666.716      339.855        0.583        0.115       96.243        5.956        0.004      339.836       13.442      863.901
05/09/2013  01:32:00      -71.771      -36.745        0.177       40.450       32.299       23.920     1636.189     1043.200      572.176        0.488        0.163       80.630       19.277        0.057      339.841       13.451      863.890
05/09/2013  01:33:00      -77.981      -20.022      -13.673       30.030       19.710       17.371      901.790      388.496      301.760        0.413        0.080       80.510       16.786        0.043      339.848       13.462      863.878
05/09/2013  01:34:00     -125.439      -56.285       -9.630       30.464       32.213       20.391      928.060     1037.677      415.810        1.069        0.119      137.488        9.058        0.004      339.829       13.430      863.860
05/09/2013  01:35:00     -142.309      -47.846       -9.440       53.075       39.779       26.706     2816.919     1582.395      713.210        1.387        0.256      150.137       25.677        0.029      339.757       13.309      863.855
05/09/2013  01:36:00     -138.125      -16.782       -9.209       35.858       38.154       19.476     1285.803     1455.729      379.296        1.128        0.156      139.141       17.434        0.016      339.742       13.286      863.844
05/09/2013  01:37:00     -131.354      -52.165       -4.568       56.629       41.348       24.832     3206.794     1709.698      616.634        1.276        0.277      141.333       25.937        0.034      339.683       13.186      863.825
05/09/2013  01:38:00     -165.542      -65.973       -3.831       68.273       47.236       30.074     4661.160     2231.216      904.454        1.978        0.390      178.204       32.005        0.032      339.725       13.254      863.812
05/09/2013  01:39:00     -147.112      -50.918        3.147       83.411       40.603       32.119     6957.391     1648.609     1031.628        1.694        0.482      155.675       42.119        0.073      339.690       13.196      863.804
05/09/2013  01:40:00     -121.777      -60.226        2.924       59.805       52.856       26.186     3576.669     2793.766      685.692        1.276        0.353      135.856       22.111        0.026      339.713       13.237      863.787
05/09/2013  01:41:00     -155.087      -22.406       -9.043       54.848       55.776       36.722     3008.312     3111.009     1348.473        1.605        0.373      156.698       34.720        0.049      339.725       13.256      863.779
05/09/2013  01:42:00     -180.552       -9.699      -11.331       49.686       36.998       27.084     2468.738     1368.849      733.567        1.870        0.229      180.812       21.129        0.014      339.665       13.153      863.781
05/09/2013  01:43:00     -143.459      -39.817      -20.423       41.081       32.370       22.781     1687.666     1047.818      518.987        1.292        0.163      148.882       21.894        0.022      339.598       13.041      863.776
05/09/2013  01:44:00     -153.932      -21.352      -18.394       51.244       40.664       27.811     2625.916     1653.521      773.448        1.477        0.253      155.406       27.388        0.031      339.559       12.974      863.762
05/09/2013  01:45:00     -153.464      -49.318       -0.111       58.928       37.899       28.542     3472.563     1436.370      814.657        1.585        0.286      161.194       28.538        0.031      339.547       12.955      863.756
05/09/2013  01:46:00     -176.429      -27.918        0.689       71.185       49.230       38.663     5067.371     2423.573     1494.805        2.044        0.449      178.624       41.814        0.055      339.683       13.183      863.755
05/09/2013  01:47:00     -109.970      -61.465       11.435       72.675       50.193       37.059     5281.726     2519.369     1373.370        1.259        0.459      125.981       39.083        0.096      339.654       13.136      863.745
05/09/2013  01:48:00     -115.920      -59.536       -8.859       62.461       56.158       29.044     3901.350     3153.697      843.580        1.248        0.395      130.315       30.505        0.055      339.743       13.287      863.744
05/09/2013  01:49:00     -133.196     -108.373       -5.270       60.484       52.390       31.647     3658.311     2744.665     1001.552        1.846        0.370      171.715       29.482        0.029      339.714       13.235      863.758
05/09/2013  01:50:00     -109.735      -45.438       -2.760       44.569       34.667       27.269     1986.381     1201.799      743.605        0.902        0.197      118.770       23.499        0.039      339.731       13.267      863.762
05/09/2013  01:51:00     -111.764      -28.942        3.049       43.117       43.612       27.569     1859.105     1901.977      760.030        0.893        0.226      115.450       26.487        0.053      339.709       13.230      863.766
05/09/2013  01:52:00     -109.139      -28.166       -2.638       57.315       33.669       25.320     3285.005     1133.610      641.086        0.888        0.253      112.714       26.830        0.057      339.672       13.166      863.774
05/09/2013  01:53:00     -119.973      -13.306       -3.490       56.123       28.417       21.303     3149.789      807.531      453.825        0.950        0.221      120.709       19.864        0.027      339.676       13.174      863.769
05/09/2013  01:54:00     -152.016      -35.541      -13.581       46.536       40.415       25.301     2165.594     1633.406      640.137        1.450        0.222      156.116       27.128        0.030      339.748       13.294      863.758
05/09/2013  01:55:00     -130.712      -81.936       -7.830       44.394       40.659       27.391     1970.787     1653.120      750.241        1.412        0.219      154.270       20.804        0.018      339.710       13.230      863.754
05/09/2013  01:56:00     -128.600      -63.687       -4.110       57.840       37.212       30.631     3345.451     1384.763      938.272        1.314        0.283      143.506       31.582        0.048      339.692       13.200      863.750
05/09/2013  01:57:00     -135.003      -40.163       -2.114       55.149       39.014       24.629     3041.463     1522.126      606.579        1.251        0.259      140.851       29.737        0.045      339.635       13.105      863.740
05/09/2013  01:58:00      -69.579      -23.687        4.539       44.710       30.195       17.681     1998.984      911.713      312.611        0.432        0.161       73.500       22.594        0.094      339.574       13.001      863.723
05/09/2013  01:59:00      -38.873      -33.982        1.155       30.753       19.926       18.901      945.738      397.027      357.236        0.218        0.085       51.632       16.865        0.107      339.579       13.010      863.714
05/09/2013  02:00:00      -57.310      -33.585        2.952       27.861       27.986       18.390      776.257      783.216      338.197        0.316        0.095       66.425       15.957        0.058      339.687       13.192      863.706
05/09/2013  02:01:00      -22.087        9.913        9.269       23.579       20.266       10.414      555.983      410.726      108.453        0.087        0.054       24.210        8.795        0.132      339.602       13.046      863.703
05/09/2013  02:02:00       27.957       10.567       20.270       11.244       14.566       11.976      126.421      212.181      143.419        0.089        0.024       29.887       10.890        0.133      339.355       12.633      863.697
05/09/2013  02:03:00       27.477       16.464        8.630       18.924       10.686       12.728      358.103      114.201      162.001        0.087        0.032       32.032        9.559        0.089      339.209       12.386      863.695
05/09/2013  02:04:00       40.633       35.443        3.850       21.233       10.703       15.028      450.846      114.558      225.831        0.186        0.040       53.919       13.664        0.064      339.234       12.428      863.687
05/09/2013  02:05:00       15.855       23.318        8.714       29.659       17.401       15.485      879.644      302.795      239.780        0.115        0.071       28.197        9.615        0.116      339.012       12.054      863.686
05/09/2013  02:06:00       37.267       36.408       -9.412       19.909       20.432       13.578      396.378      417.472      184.359        0.190        0.050       52.099        8.526        0.027      338.905       11.872      863.681
05/09/2013  02:07:00       57.840       14.286        0.952       16.622       17.017       14.790      276.284      289.578      218.757        0.217        0.039       59.578       11.758        0.039      339.184       12.343      863.671
05/09/2013  02:08:00       31.450       15.902       10.008       23.357       18.948       10.155      545.531      359.022      103.130        0.117        0.050       35.242       10.287        0.085      339.099       12.200      863.664
05/09/2013  02:09:00       44.343       34.699        9.353       12.070       11.482       10.660      145.680      131.845      113.638        0.182        0.020       56.306        6.728        0.014      339.021       12.069      863.660
05/09/2013  02:10:00       37.493       32.373       -4.179        9.052        8.529       11.482       81.943       72.747      131.825        0.138        0.014       49.535        6.688        0.018      339.045       12.108      863.667
05/09/2013  02:11:00       51.590       29.748        3.092       13.224       11.309       12.892      174.881      127.901      166.191        0.201        0.023       59.553        7.593        0.016      339.022       12.070      863.670
05/09/2013  02:12:00       66.053       29.666       12.155       25.457       22.841       16.477      648.075      521.716      271.507        0.342        0.072       72.409       12.208        0.028      339.046       12.110      863.680
05/09/2013  02:13:00       86.978       40.574       17.906       19.476       18.642       17.209      379.315      347.507      296.154        0.528        0.051       95.976        9.160        0.009      339.084       12.175      863.677
05/09/2013  02:14:00       48.549       42.119        0.615       23.158       16.402       14.201      536.289      269.023      201.670        0.257        0.050       64.273       10.668        0.028      338.946       11.942      863.690
05/09/2013  02:15:00       25.244       77.155       -9.953       17.486       24.638       15.626      305.768      607.055      244.175        0.392        0.058       81.179       15.167        0.035      339.067       12.146      863.700
05/09/2013  02:16:00       21.694       39.765       -4.996       17.381       27.450       15.012      302.097      753.491      225.357        0.168        0.064       45.298       18.052        0.159      339.191       12.355      863.698
05/09/2013  02:17:00       62.509       21.472        3.304       16.917       16.498       13.304      286.172      272.191      177.008        0.256        0.037       66.094        8.163        0.015      338.998       12.032      863.693
05/09/2013  02:18:00       57.602       18.215        9.342       19.149       15.921       17.573      366.666      253.472      308.804        0.233        0.046       60.414       11.028        0.033      339.015       12.058      863.691
05/09/2013  02:19:00       59.327       21.890       10.487       18.630       14.232       11.207      347.067      202.559      125.607        0.239        0.034       63.236        8.507        0.018      339.133       12.257      863.693
05/09/2013  02:20:00       53.406       38.518        5.652        8.961        7.383        9.850       80.300       54.502       97.016        0.230        0.012       65.847        6.039        0.008      339.374       12.664      863.696
05/09/2013  02:21:00       43.247       41.535       14.564        9.908        7.942        9.989       98.159       63.082       99.776        0.203        0.013       59.963        6.533        0.012      339.491       12.859      863.690
05/09/2013  02:22:00       14.411       18.576       15.210       11.707        7.463       11.328      137.045       55.697      128.326        0.055        0.016       23.510        7.977        0.115      339.471       12.827      863.685
05/09/2013  02:23:00      -11.541      -18.525       -6.089        7.535       17.311        6.725       56.781      299.666       45.226        0.046        0.020       21.826        3.522        0.026      339.535       12.933      863.685
05/09/2013  02:24:00      -16.657      -24.698       -5.967       15.230       15.684       11.478      231.959      245.990      131.746        0.077        0.030       29.790       11.392        0.146      339.423       12.745      863.685
05/09/2013  02:25:00       19.267        7.876       18.882       15.485       23.772       12.142      239.772      565.117      147.419        0.087        0.048       20.815       13.105        0.396      339.178       12.333      863.691
05/09/2013  02:26:00       26.925       46.669       -4.414       18.533       22.348       17.446      343.458      499.444      304.352        0.203        0.057       53.880       16.615        0.095      338.893       11.854      863.701
05/09/2013  02:27:00       53.033       45.663       -0.860       18.071       15.043       15.239      326.547      226.305      232.215        0.284        0.039       69.983       10.091        0.021      338.802       11.701      863.709
05/09/2013  02:28:00       57.383       18.417       -0.159       22.683       17.215        8.316      514.504      296.352       69.161        0.226        0.044       60.266        3.439        0.003      338.860       11.797      863.714
05/09/2013  02:29:00       13.019      -19.579        6.898       13.435       16.671       11.739      180.495      277.908      137.811        0.060        0.030       23.512        9.731        0.171      338.918       11.894      863.709
05/09/2013  02:30:00        7.737       -0.398       10.171       11.237       10.939        9.736      126.261      119.652       94.783        0.025        0.017        7.747        3.609        0.217      339.044       12.107      863.721
05/09/2013  02:31:00       -4.621      -16.708       11.979        9.253       14.975        9.072       85.617      224.262       82.310        0.042        0.020       17.335        9.857        0.323      339.186       12.347      863.724
05/09/2013  02:32:00      -15.851      -18.552        0.058        8.062       10.694        7.530       64.999      114.357       56.706        0.042        0.012       24.401        5.396        0.049      339.197       12.365      863.719
05/09/2013  02:33:00        0.261      -12.770       -6.271        8.520        7.471        6.971       72.582       55.816       48.589        0.019        0.009       12.773        5.552        0.189      339.224       12.410      863.708
05/09/2013  02:34:00      -11.521       -5.893       -5.072       10.176        9.101        8.395      103.553       82.826       70.479        0.022        0.013       12.941        7.406        0.327      339.164       12.310      863.699
05/09/2013  02:35:00       -7.403       -2.936        6.167       11.737        8.300        6.027      137.753       68.888       36.330        0.017        0.012        7.964        2.901        0.133      339.120       12.236      863.696
05/09/2013  02:36:00       33.668       35.610       12.828        7.261       10.425        7.815       52.720      108.682       61.069        0.139        0.011       49.006        6.216        0.016      338.838       11.761      863.704
05/09/2013  02:37:00       28.851       40.008        3.098        8.124        8.851        4.380       65.996       78.336       19.184        0.130        0.008       49.326        4.118        0.007      338.865       11.807      863.711
05/09/2013  02:38:00       17.180       18.435        1.946        7.845       15.792       11.104       61.548      249.381      123.292        0.054        0.022       25.199        9.646        0.147      338.942       11.936      863.722
05/09/2013  02:39:00       -2.344       11.322        0.975        5.513        6.193        5.424       30.390       38.347       29.419        0.012        0.005       11.562        4.270        0.136      339.023       12.071      863.737
05/09/2013  02:40:00       -1.884        3.739        2.090        4.774        4.065        3.651       22.788       16.528       13.329        0.004        0.003        4.187        1.459        0.121      339.018       12.063      863.743
05/09/2013  02:41:00       -6.347        0.373       -1.238        3.950        6.586        2.708       15.602       43.371        7.332        0.005        0.003        6.358        1.930        0.092      339.085       12.176      863.747
05/09/2013  02:42:00      -37.582      -13.212       -6.228       14.088        9.326        6.709      198.477       86.969       45.005        0.098        0.017       39.837        5.128        0.017      339.126       12.246      863.742
05/09/2013  02:43:00      -29.290      -21.884       -1.011       27.276       12.987        8.101      743.963      168.654       65.625        0.116        0.049       36.563        5.505        0.023      339.024       12.073      863.730
05/09/2013  02:44:00      -12.198      -10.919        2.518       17.047       14.759       10.688      290.610      217.830      114.242        0.045        0.031       16.371       12.388        0.573      338.972       11.988      863.718
05/09/2013  02:45:00      -10.413        3.585       -0.207        7.820        3.898        5.480       61.151       15.192       30.033        0.011        0.005       11.013        4.703        0.182      338.925       11.907      863.719
05/09/2013  02:46:00       24.011       20.131       14.515        8.922       14.836       15.525       79.597      220.121      241.021        0.087        0.027       31.333       12.353        0.155      338.957       11.960      863.710
05/09/2013  02:47:00       21.331       25.939       34.081       16.877       21.299       11.633      284.820      453.659      135.338        0.158        0.044       33.583       11.453        0.116      338.848       11.778      863.711
05/09/2013  02:48:00       44.531       18.737       20.513       18.461       14.384       15.684      340.803      206.888      245.990        0.177        0.040       48.312       10.712        0.049      338.866       11.808      863.708
05/09/2013  02:49:00       34.901       11.036       18.930       19.009       14.308       13.436      361.352      204.724      180.514        0.122        0.037       36.604        9.680        0.070      338.853       11.786      863.708
05/09/2013  02:50:00       -1.163      -25.841        6.836       12.711       20.723       14.764      161.581      429.427      217.962        0.076        0.040       25.867       15.107        0.341      338.944       11.938      863.709
05/09/2013  02:51:00        9.544      -18.700        9.207       17.738       19.865       16.923      314.651      394.637      286.389        0.076        0.050       20.994       14.405        0.471      339.080       12.168      863.704
05/09/2013  02:52:00       58.761      -17.625       13.262       29.002       39.955       20.207      841.119     1596.404      408.330        0.339        0.142       61.347       19.931        0.106      339.068       12.147      863.696
05/09/2013  02:53:00       -0.163       16.989       36.725       10.439       20.369       15.283      108.976      414.908      233.584        0.120        0.038       16.990       12.988        0.584      339.033       12.090      863.684
05/09/2013  02:54:00        5.068        0.445       27.072       15.549       15.457       17.496      241.766      238.909      306.114        0.077        0.039        5.088       12.635        6.168      339.035       12.092      863.676
05/09/2013  02:55:00       -2.802       -3.228       32.872       10.943       27.584       15.388      119.759      760.851      236.792        0.111        0.056        4.274        6.082        2.025      339.087       12.181      863.666
05/09/2013  02:56:00       -5.350      -54.215       18.153       20.532       33.364       19.009      421.583     1113.133      361.355        0.260        0.095       54.478       18.206        0.112      339.159       12.302      863.664
05/09/2013  02:57:00      -46.896      -21.194       -8.576       45.545       22.164       11.784     2074.374      491.255      138.858        0.271        0.135       51.463        8.326        0.026      338.964       11.975      863.661
05/09/2013  02:58:00      -30.039      -25.483        6.811       35.146       21.161       19.114     1235.215      447.785      365.362        0.182        0.102       39.392       22.999        0.341      338.832       11.750      863.659
05/09/2013  02:59:00       -8.962        2.386        6.224       18.990       16.106        9.396      360.616      259.401       88.280        0.042        0.035        9.274        8.534        0.847      338.686       11.506      863.654
05/09/2013  03:00:00       -3.608       36.139        2.021       13.314       28.042       10.819      177.255      786.351      117.047        0.120        0.054       36.319       12.701        0.122      338.651       11.447      863.650
05/09/2013  03:01:00      -23.158      102.186      -17.750       10.956       11.382        6.420      120.025      129.541       41.221        0.579        0.015      104.777        3.472        0.001      338.731       11.583      863.659
05/09/2013  03:02:00      -56.204       84.912      -15.295       20.335       30.163       11.900      413.512      909.802      141.622        0.603        0.073      101.828       11.931        0.014      338.818       11.727      863.676
05/09/2013  03:03:00      -34.451      -14.494       -1.634       25.929       17.686       13.390      672.327      312.778      179.286        0.128        0.058       37.376       11.089        0.088      338.773       11.652      863.683
05/09/2013  03:04:00      -14.223      -20.755        9.878       25.248       17.257       17.388      637.455      297.802      302.345        0.098        0.062       25.161       11.383        0.205      338.726       11.573      863.674
05/09/2013  03:05:00      -29.013      -29.511        6.440       23.499       22.865       15.681      552.192      522.789      245.888        0.154        0.066       41.385       14.850        0.129      338.788       11.678      863.648
05/09/2013  03:06:00      -14.852       -2.190        1.996       12.058       10.579        9.132      145.386      111.921       83.394        0.028        0.017       15.012        9.257        0.380      338.797       11.693      863.626
05/09/2013  03:07:00      -23.120       -3.750        0.392       25.057       12.675        8.452      627.829      160.652       71.440        0.070        0.043       23.422        9.698        0.171      338.875       11.822      863.626
05/09/2013  03:08:00      -40.524      -32.025        6.409       34.611       33.968       18.007     1197.898     1153.857      324.267        0.269        0.134       51.651       15.319        0.088      338.866       11.809      863.636
05/09/2013  03:09:00      -49.048      -34.356        2.580       21.886       31.162       22.020      478.998      971.084      484.888        0.276        0.097       59.883       20.989        0.123      338.923       11.905      863.650
05/09/2013  03:10:00      -19.455      -48.163       -2.595       32.190       23.200       15.546     1036.170      538.257      241.691        0.226        0.091       51.944       14.480        0.078      338.929       11.914      863.658
05/09/2013  03:11:00      -25.741      -73.854       -8.253       18.423       16.795       11.318      339.397      282.064      128.090        0.347        0.037       78.211        8.268        0.011      339.016       12.061      863.664
05/09/2013  03:12:00      -17.481      -25.260       -7.795       23.223       19.781        9.796      539.319      391.292       95.964        0.102        0.051       30.718       10.185        0.110      338.963       11.972      863.668
05/09/2013  03:13:00      -45.629      -57.018       -0.014       30.033       23.066       13.693      901.972      532.063      187.511        0.348        0.081       73.028       13.386        0.034      338.898       11.863      863.682
05/09/2013  03:14:00      -55.468      -65.729       -3.557       28.076       35.399       16.008      788.287     1253.060      256.264        0.485        0.115       86.006       13.812        0.026      338.836       11.758      863.699
05/09/2013  03:15:00      -45.735      -86.732        5.093       38.716       42.366       22.238     1498.909     1794.897      494.538        0.671        0.189       98.051       24.027        0.060      338.833       11.753      863.714
05/09/2013  03:16:00      -80.094      -75.408      -11.325       31.670       29.899       19.483     1003.020      893.938      379.585        0.725        0.114      110.006       15.859        0.021      338.758       11.628      863.728
05/09/2013  03:17:00      -36.896      -49.165        5.578       17.656       24.153       13.711      311.730      583.372      188.002        0.245        0.054       61.470        8.907        0.021      338.771       11.649      863.731
05/09/2013  03:18:00      -76.975       -3.464       -2.210       14.179       23.857       12.197      201.047      569.156      148.778        0.343        0.046       77.052        7.971        0.011      338.719       11.561      863.735
05/09/2013  03:19:00      -16.850       34.748       -5.018       34.964       13.061       13.320     1222.459      170.577      177.422        0.154        0.079       38.618        9.660        0.063      338.536       11.255      863.734
05/09/2013  03:20:00      -12.832       16.709       -1.628       18.548       15.690        8.124      344.026      246.177       65.998        0.055        0.033       21.068        8.626        0.168      338.643       11.434      863.733
05/09/2013  03:21:00      -61.190       -0.675       -6.220       15.072       14.625        9.009      227.151      213.884       81.157        0.215        0.026       61.194        6.644        0.012      338.607       11.374      863.738
05/09/2013  03:22:00      -20.798      -26.573       -2.810       13.046        9.962        7.283      170.199       99.237       53.037        0.073        0.016       33.744        7.418        0.048      338.542       11.264      863.722
05/09/2013  03:23:00      -15.641      -18.724       -1.391       10.893       13.074        8.815      118.662      170.918       77.696        0.048        0.018       24.398        7.177        0.087      338.614       11.384      863.704
05/09/2013  03:24:00      -43.676      -23.346       -1.723       34.437       12.833       10.364     1185.879      164.676      107.419        0.196        0.073       49.524        8.464        0.029      338.611       11.379      863.702
05/09/2013  03:25:00      -40.950      -26.514        7.887       36.397       20.588       16.195     1324.725      423.850      262.278        0.223        0.101       48.784       16.871        0.120      338.630       11.412      863.703
05/09/2013  03:26:00      -23.262      -31.820        4.320       32.135       23.028       12.421     1032.653      530.294      154.276        0.164        0.086       39.416       11.838        0.090      338.607       11.372      863.712
05/09/2013  03:27:00      -51.110       -8.494        1.796       22.966       16.651       11.566      527.427      277.261      133.767        0.181        0.047       51.811        9.620        0.034      338.615       11.387      863.712
05/09/2013  03:28:00      -79.095        0.776       -7.398       24.212       12.431       11.087      586.228      154.538      122.912        0.359        0.043       79.099       11.213        0.020      338.354       10.948      863.722
05/09/2013  03:29:00      -66.253        5.264       -5.126       21.448       12.624        7.414      460.015      159.358       54.972        0.256        0.034       66.461        6.235        0.009      338.376       10.986      863.728
05/09/2013  03:30:00      -40.681        4.555        3.999       11.890       12.431        7.807      141.365      154.541       60.942        0.102        0.018       40.935        7.591        0.034      338.397       11.021      863.730
05/09/2013  03:31:00      -35.906       10.208        7.722       16.599        7.308        6.979      275.518       53.408       48.704        0.092        0.019       37.329        7.861        0.044      338.513       11.214      863.755
05/09/2013  03:32:00      -29.910       14.759       -1.496       25.453       13.441       10.989      647.836      180.662      120.765        0.103        0.047       33.353       14.409        0.187      338.383       10.998      863.766
05/09/2013  03:33:00      -28.256       10.507       -2.235       17.376       11.993       10.032      301.935      143.840      100.643        0.073        0.027       30.146       11.888        0.156      338.317       10.886      863.770
05/09/2013  03:34:00       -3.696        5.019        4.050        8.751        5.576        5.275       76.586       31.087       27.829        0.010        0.007        6.233        3.816        0.375      338.302       10.861      863.766
05/09/2013  03:35:00        5.736       14.362        3.219        7.515        7.787        4.721       56.481       60.641       22.286        0.019        0.007       15.465        4.673        0.091      338.495       11.183      863.763
05/09/2013  03:36:00        6.515       16.549        3.908        4.736        5.102        4.946       22.431       26.033       24.459        0.020        0.004       17.785        3.462        0.038      338.537       11.258      863.762
05/09/2013  03:37:00        7.495        1.320        4.731        7.358       10.045        6.595       54.137      100.911       43.491        0.014        0.010        7.610        6.211        0.666      338.488       11.174      863.757
05/09/2013  03:38:00        7.119      -17.189        4.685        9.157       16.501       10.673       83.843      272.288      113.905        0.042        0.024       18.605        7.871        0.179      338.484       11.167      863.754
05/09/2013  03:39:00      -23.167       -5.972        0.688        9.930        5.792        8.085       98.601       33.546       65.375        0.039        0.010       23.924        6.037        0.064      338.327       10.904      863.755
05/09/2013  03:40:00      -26.926        8.145       -3.970        9.606        6.860        4.387       92.276       47.064       19.242        0.048        0.008       28.132        2.375        0.007      338.393       11.015      863.762
05/09/2013  03:41:00      -60.612       24.749       -8.582       12.350        9.256        8.431      152.517       85.666       71.082        0.233        0.015       65.470        5.704        0.008      338.310       10.875      863.767
05/09/2013  03:42:00      -58.864       26.594       -4.600       22.130       18.912       11.675      489.745      357.670      136.308        0.259        0.049       64.592       10.176        0.025      338.214       10.714      863.768
05/09/2013  03:43:00      -46.747       10.356       -6.445       12.622       25.150       10.426      159.317      632.535      108.703        0.162        0.045       47.881        7.412        0.024      338.080       10.489      863.764
05/09/2013  03:44:00      -50.472      -16.226        1.621       21.856       16.929        9.814      477.687      286.595       96.323        0.184        0.043       53.016        9.601        0.033      338.013       10.377      863.751
05/09/2013  03:45:00      -39.468      -12.575       -3.788       17.274       20.947       10.690      298.405      438.757      114.281        0.129        0.043       41.423        6.601        0.025      338.072       10.474      863.745
05/09/2013  03:46:00      -65.784      -22.817      -14.604       13.420       16.843        9.417      180.089      283.683       88.683        0.281        0.028       69.629        7.076        0.010      338.160       10.623      863.750
05/09/2013  03:47:00      -81.175      -21.022       -7.729       15.877       15.033        9.464      252.083      225.985       89.564        0.383        0.028       83.853        6.012        0.005      338.115       10.547      863.772
05/09/2013  03:48:00      -83.302      -26.750      -10.366       17.397       17.551        9.368      302.656      308.024       87.755        0.423        0.035       87.492        7.112        0.007      338.133       10.577      863.789
05/09/2013  03:49:00      -76.268      -10.470       -8.077       14.375       10.422       10.493      206.642      108.617      110.099        0.321        0.021       76.984        8.255        0.011      338.135       10.581      863.799
05/09/2013  03:50:00      -74.881      -29.754       -2.563       17.225       13.780        8.740      296.690      189.879       76.380        0.353        0.028       80.576        6.086        0.006      338.148       10.602      863.801
05/09/2013  03:51:00      -79.145      -21.707       -8.664       13.123       13.127        8.829      172.217      172.311       77.957        0.362        0.021       82.068        6.377        0.006      338.113       10.544      863.797
05/09/2013  03:52:00      -75.754      -11.000       -3.558       12.665       10.929        7.976      160.399      119.438       63.615        0.311        0.017       76.548        6.363        0.007      338.102       10.524      863.785
05/09/2013  03:53:00      -61.786      -32.818       -1.893       22.038       11.929        9.231      485.669      142.300       85.215        0.281        0.036       69.961       10.890        0.024      338.207       10.702      863.777
05/09/2013  03:54:00      -81.979      -28.514       -3.805       20.758       16.580        9.210      430.880      274.902       84.824        0.417        0.040       86.796       10.025        0.013      338.138       10.586      863.771
05/09/2013  03:55:00      -90.067      -18.824       -4.041       22.002       16.570       12.395      484.106      274.570      153.629        0.470        0.046       92.013        9.438        0.011      338.113       10.544      863.770
05/09/2013  03:56:00      -65.785      -17.016       -2.552       28.662       24.400       14.189      821.526      595.349      201.317        0.312        0.081       67.950       14.296        0.044      338.066       10.466      863.777
05/09/2013  03:57:00      -84.886       18.882       -3.979       25.632       17.602       13.258      656.988      309.839      175.768        0.436        0.057       86.960       11.495        0.017      337.955       10.279      863.784
05/09/2013  03:58:00      -51.390       25.250       -3.068       20.083       17.267       13.759      403.322      298.137      189.311        0.209        0.045       57.258       12.048        0.044      337.955       10.280      863.788
05/09/2013  03:59:00      -69.791       23.448       -2.613       21.599       14.089       12.829      466.522      198.510      164.593        0.313        0.041       73.625        4.498        0.004      338.111       10.541      863.795
05/09/2013  04:00:00      -58.590       30.438       -3.322       16.702       14.969       12.438      278.963      224.072      154.702        0.251        0.033       66.025        6.810        0.011      338.040       10.422      863.794
05/09/2013  04:01:00      -64.582       16.791       -0.312       18.249       18.349       14.551      333.017      336.688      211.725        0.267        0.044       66.729        8.460        0.016      338.110       10.540      863.794
05/09/2013  04:02:00      -59.971      -28.348       -3.877       18.947       16.871       10.425      358.990      284.637      108.678        0.258        0.038       66.334        9.168        0.019      338.124       10.564      863.796
05/09/2013  04:03:00      -54.831      -34.721       -5.323       22.847       13.966       12.458      522.002      195.061      155.207        0.256        0.044       64.900        6.082        0.009      338.132       10.574      863.779
05/09/2013  04:04:00      -15.442      -35.032       -2.644       24.828       25.563       17.646      616.441      653.474      311.390        0.153        0.079       38.284       11.830        0.095      338.246       10.768      863.762
05/09/2013  04:05:00      -50.673      -49.014      -13.239       20.661       21.903        9.671      426.891      479.726       93.530        0.307        0.050       70.500       11.827        0.028      338.204       10.696      863.761
05/09/2013  04:06:00      -61.483      -27.349       -2.352       13.957       12.098       13.704      194.809      146.371      187.791        0.253        0.026       67.291        9.375        0.019      338.162       10.628      863.750
05/09/2013  04:07:00      -80.198      -30.593       -1.798       23.797       16.458       17.990      566.291      270.862      323.635        0.427        0.058       85.835       13.554        0.025      338.147       10.602      863.744
05/09/2013  04:08:00      -89.091      -30.121       -1.132       21.314       18.074       11.911      454.290      326.687      141.877        0.488        0.046       94.046       11.686        0.015      338.110       10.540      863.750
05/09/2013  04:09:00      -63.198      -36.591       -2.401       23.791       15.501       19.573      566.025      240.296      383.107        0.326        0.059       73.027       17.975        0.061      338.121       10.557      863.760
05/09/2013  04:10:00      -90.040      -70.249       -1.602       59.607       34.512       21.055     3553.015     1191.057      443.316        0.912        0.259      114.202       27.886        0.060      338.159       10.620      863.760
05/09/2013  04:11:00     -118.433      -75.097      -13.280       27.874       27.049       15.946      776.959      731.633      254.290        1.080        0.088      140.235       14.563        0.011      338.120       10.555      863.752
05/09/2013  04:12:00      -23.255      -44.567       14.070       37.143       25.111       23.469     1379.580      630.583      550.794        0.264        0.128       50.269       23.235        0.214      338.137       10.584      863.744
05/09/2013  04:13:00      -23.552      -55.083       14.979       34.231       33.912       23.673     1171.753     1150.041      560.421        0.335        0.144       59.907       21.352        0.127      338.203       10.696      863.738
05/09/2013  04:14:00      -22.231      -59.066        1.443       34.947       43.575       21.322     1221.308     1898.810      454.617        0.378        0.179       63.111       20.386        0.104      338.187       10.667      863.739
05/09/2013  04:15:00      -75.685      -54.428        0.433       51.332       57.351       32.743     2634.975     3289.159     1072.136        0.784        0.350       93.223       17.124        0.034      338.088       10.501      863.745
05/09/2013  04:16:00      -64.020      -94.933        2.106       44.268       38.983       25.659     1959.639     1519.685      658.360        0.863        0.207      114.502       21.207        0.034      338.090       10.506      863.750
05/09/2013  04:17:00      -41.370      -48.626        3.757       38.115       43.358       23.231     1452.733     1879.879      539.659        0.398        0.194       63.843       24.017        0.142      338.049       10.436      863.745
05/09/2013  04:18:00      -50.023      -39.829       14.372       51.959       38.127       26.419     2699.692     1453.652      697.972        0.457        0.243       63.943       24.182        0.143      338.041       10.425      863.743
05/09/2013  04:19:00      -40.888      -64.319       -2.013       41.966       30.104       21.151     1761.131      906.255      447.352        0.446        0.156       76.216       20.857        0.075      338.106       10.532      863.741
05/09/2013  04:20:00      -96.391      -93.138       -5.632       32.917       23.618       21.520     1083.516      557.833      463.123        1.005        0.105      134.037       13.855        0.011      338.027       10.401      863.728
05/09/2013  04:21:00      -39.381      -43.290       -1.096       30.516       27.095       21.119      931.204      734.154      446.023        0.277        0.106       58.522       17.709        0.092      338.053       10.442      863.728
05/09/2013  04:22:00       -7.657      -39.391        4.707       31.649       39.613       26.972     1001.635     1569.166      727.465        0.246        0.165       40.128       21.233        0.280      338.090       10.505      863.738
05/09/2013  04:23:00      -97.804      -74.887       -7.895       33.041       33.797       21.894     1091.719     1142.236      479.369        0.897        0.136      123.181       19.906        0.026      338.027       10.400      863.758
05/09/2013  04:24:00      -76.497      -53.707        4.512       33.339       36.660       21.349     1111.513     1343.973      455.767        0.583        0.146       93.467       20.663        0.049      337.969       10.305      863.767
05/09/2013  04:25:00      -65.843      -63.074        5.815       48.335       32.202       24.959     2336.261     1036.976      622.961        0.617        0.200       91.179       27.655        0.092      337.968       10.302      863.774
05/09/2013  04:26:00      -73.517      -55.303       -0.681       37.366       26.792       17.878     1396.185      717.809      319.612        0.545        0.122       91.995       16.202        0.031      337.988       10.334      863.786
05/09/2013  04:27:00      -42.979      -24.078        4.559       28.539       19.341       18.060      814.478      374.081      326.151        0.198        0.076       49.264       16.283        0.109      337.923       10.227      863.788
05/09/2013  04:28:00      -50.761       -5.781        1.151       13.290       12.689        9.334      176.622      161.011       87.130        0.152        0.021       51.089        7.211        0.020      337.978       10.317      863.788
05/09/2013  04:29:00      -88.087      -18.206       -8.329       15.299       13.503       10.154      234.069      182.332      103.108        0.434        0.026       89.949        7.515        0.007      337.874       10.143      863.790
05/09/2013  04:30:00      -80.644      -34.904       -0.518       33.884       21.965       17.848     1148.124      482.472      318.534        0.484        0.097       87.873        8.418        0.009      337.892       10.172      863.792
05/09/2013  04:31:00      -86.267      -26.861        1.749       29.268       27.037       16.410      856.636      731.018      269.286        0.501        0.093       90.352       14.156        0.025      337.875       10.145      863.790
05/09/2013  04:32:00      -52.895      -14.943        3.000       24.609       17.140       12.964      605.605      293.774      168.071        0.205        0.053       54.965       11.224        0.042      337.783        9.990      863.785
05/09/2013  04:33:00      -54.881      -45.586       -0.648       33.786       22.290       19.477     1141.489      496.829      379.359        0.355        0.101       71.344       19.318        0.073      337.875       10.145      863.791
05/09/2013  04:34:00      -55.591      -50.260       -2.425       30.142       18.943       17.241      908.541      358.837      297.258        0.359        0.078       74.943       13.254        0.031      337.917       10.216      863.802
05/09/2013  04:35:00      -54.446      -34.075       -6.491       22.625       26.387       14.811      511.913      696.295      219.353        0.280        0.071       64.230       14.492        0.051      337.971       10.306      863.818
05/09/2013  04:36:00     -103.611       -6.410      -10.433       13.927       11.968       11.417      193.955      143.233      130.345        0.568        0.023      103.809        7.348        0.005      337.757        9.947      863.823
05/09/2013  04:37:00      -95.545        2.247       -3.833       31.071       18.907       15.830      965.422      357.463      250.595        0.536        0.079       95.571       17.968        0.035      337.703        9.858      863.831
05/09/2013  04:38:00      -77.232       -6.682       -2.640       35.394       18.928       17.714     1252.727      358.282      313.802        0.397        0.096       77.521       16.854        0.047      337.695        9.842      863.841
05/09/2013  04:39:00      -93.628      -21.231       -8.109       20.383       17.869       11.659      415.452      319.300      135.938        0.508        0.044       96.005       10.878        0.013      337.634        9.741      863.842
05/09/2013  04:40:00      -84.457      -28.696       -6.567       19.626       18.181       12.262      385.162      330.533      150.364        0.443        0.043       89.199        8.982        0.010      337.645        9.761      863.840
05/09/2013  04:41:00      -99.272      -46.982       -4.379       18.035       17.252       10.226      325.269      297.648      104.573        0.640        0.036      109.828        7.390        0.005      337.690        9.834      863.828
05/09/2013  04:42:00      -82.688      -40.175       -4.814       18.278       22.965        9.883      334.089      527.408       97.679        0.472        0.048       91.931        6.182        0.005      337.749        9.934      863.825
05/09/2013  04:43:00      -51.763      -46.443        3.632       35.482       24.133       16.844     1258.963      582.415      283.736        0.349        0.106       69.544       16.473        0.056      337.804       10.026      863.815
05/09/2013  04:44:00      -23.808      -39.431       10.147       34.701       22.298       18.052     1204.153      497.182      325.884        0.213        0.101       46.061       19.822        0.185      337.806       10.030      863.810
05/09/2013  04:45:00      -55.058      -35.632        6.311       35.575       17.974       18.486     1265.552      323.061      341.730        0.314        0.097       65.582       18.143        0.077      337.826       10.064      863.809
05/09/2013  04:46:00      -73.601      -45.406      -11.698       12.944       14.815        8.950      167.537      219.477       80.095        0.404        0.023       86.480        5.683        0.004      337.868       10.134      863.803
05/09/2013  04:47:00      -64.395      -36.218      -10.612       12.421       12.195       10.036      154.280      148.721      100.727        0.299        0.020       73.881        4.299        0.003      337.912       10.207      863.794
05/09/2013  04:48:00      -40.875      -28.803       -6.613       18.224       10.316        7.416      332.115      106.416       55.003        0.152        0.025       50.004        4.661        0.009      337.943       10.259      863.784
05/09/2013  04:49:00      -30.688      -48.016       -1.875       29.194       26.713       16.091      852.292      713.569      258.932        0.254        0.091       56.985       10.558        0.034      337.941       10.255      863.782
05/09/2013  04:50:00      -32.157      -31.389        9.372       34.983       24.810       21.961     1223.786      615.536      482.277        0.221        0.116       44.937       20.109        0.200      337.856       10.114      863.765
05/09/2013  04:51:00      -48.716      -49.338       11.891       32.159       25.770       20.205     1034.210      664.074      408.243        0.353        0.105       69.336       20.139        0.084      337.860       10.120      863.751
05/09/2013  04:52:00      -74.747      -55.589       -5.091       41.950       25.129       20.269     1759.800      631.489      410.820        0.575        0.140       93.152       20.521        0.049      337.905       10.194      863.739
05/09/2013  04:53:00      -69.596      -61.001        4.607       48.842       31.288       20.907     2385.525      978.951      437.102        0.619        0.190       92.546       26.023        0.079      337.922       10.224      863.735
05/09/2013  04:54:00      -73.591      -27.811       -3.617       29.354       29.244       17.503      861.675      855.186      306.349        0.411        0.101       78.671       17.088        0.047      337.847       10.096      863.731
05/09/2013  04:55:00      -79.942        8.134       -2.995       26.552       16.904       14.216      705.010      285.755      202.090        0.383        0.060       80.355       13.903        0.030      337.702        9.855      863.733
05/09/2013  04:56:00      -78.970        7.555       -9.126       20.609       17.590       10.377      424.750      309.410      107.678        0.361        0.042       79.330        7.440        0.009      337.678        9.814      863.728
05/09/2013  04:57:00      -66.534        2.662       -8.227       17.998       15.110       12.435      323.943      228.314      154.640        0.260        0.035       66.587        7.365        0.012      337.651        9.770      863.710
05/09/2013  04:58:00      -60.485        5.540       -6.548       25.995       10.886        9.739      675.740      118.514       94.847        0.231        0.044       60.738        9.863        0.026      337.618        9.714      863.690
05/09/2013  04:59:00      -56.820        9.525       -8.384       19.309       14.330       10.871      372.840      205.361      118.173        0.204        0.035       57.613        9.288        0.026      337.607        9.696      863.676
05/09/2013  05:00:00      -68.134        0.489       -6.441       15.446       11.633        9.420      238.592      135.327       88.735        0.257        0.023       68.136        7.922        0.014      337.606        9.693      863.665
05/09/2013  05:01:00      -58.307       -6.583       -6.559       17.640       13.987       10.875      311.184      195.632      118.261        0.206        0.031       58.678        9.219        0.025      337.593        9.672      863.664
05/09/2013  05:02:00      -52.278       -7.187      -11.689       14.181       14.937        8.275      201.107      223.112       68.471        0.171        0.025       52.769        6.249        0.014      337.626        9.727      863.660
05/09/2013  05:03:00      -65.219       -0.612       -8.719       12.065        9.977       10.568      145.568       99.542      111.675        0.234        0.018       65.222        8.175        0.016      337.576        9.642      863.662
05/09/2013  05:04:00      -53.529       -7.779       -8.397       14.357       11.241        9.874      206.132      126.362       97.495        0.171        0.021       54.091       10.269        0.036      337.592        9.670      863.666
05/09/2013  05:05:00      -70.660       -5.166       -6.699       12.208       10.574        9.898      149.041      111.800       97.977        0.271        0.018       70.849        6.348        0.008      337.622        9.721      863.670
05/09/2013  05:06:00      -92.452       -1.232       -9.516       11.923       12.515        8.203      142.165      156.618       67.285        0.450        0.018       92.460        6.090        0.004      337.599        9.683      863.684
05/09/2013  05:07:00     -107.014        1.992      -11.875       19.657        9.496       11.146      386.397       90.169      124.237        0.610        0.030      107.033        8.351        0.006      337.515        9.540      863.697
05/09/2013  05:08:00      -88.396       -2.282       -7.922       31.289       16.832       14.417      979.019      283.316      207.862        0.468        0.074       88.426       16.737        0.036      337.467        9.460      863.702
05/09/2013  05:09:00      -88.301       -7.412       -5.733       20.835       18.991       13.860      434.089      360.641      192.102        0.444        0.049       88.611       12.472        0.020      337.487        9.494      863.711
05/09/2013  05:10:00      -68.016      -12.605       -4.115       19.561       16.794       13.553      382.625      282.027      183.688        0.283        0.042       69.174       11.145        0.026      337.455        9.439      863.706
05/09/2013  05:11:00      -88.694      -13.754       -9.732       15.009       10.620        7.585      225.271      112.784       57.537        0.427        0.020       89.754        6.363        0.005      337.459        9.447      863.708
05/09/2013  05:12:00      -59.732      -10.224       -7.603       23.618       15.346       11.267      557.827      235.507      126.937        0.233        0.046       60.601        7.138        0.014      337.454        9.439      863.709
05/09/2013  05:13:00      -68.381      -34.139       -7.647       21.776       18.887       10.190      474.184      356.727      103.827        0.342        0.047       76.429        7.526        0.010      337.533        9.571      863.714
05/09/2013  05:14:00      -94.991      -40.283       -8.839       11.284        9.292        9.533      127.318       86.347       90.877        0.551        0.015      103.180        5.759        0.003      337.518        9.546      863.701
05/09/2013  05:15:00      -84.657      -34.885        1.086       28.163       19.144       14.373      793.152      366.490      206.577        0.488        0.068       91.562       11.564        0.016      337.498        9.512      863.693
05/09/2013  05:16:00      -15.624      -31.771        8.986       26.485       20.800       17.838      701.458      432.652      318.207        0.139        0.073       35.405       15.818        0.200      337.631        9.737      863.683
05/09/2013  05:17:00      -40.334      -51.878        5.665       34.823       27.198       20.551     1212.672      739.708      422.326        0.336        0.119       65.713       22.864        0.121      337.750        9.935      863.677
05/09/2013  05:18:00      -80.748      -67.664        3.208       37.798       23.211       18.922     1428.703      538.759      358.037        0.672        0.116      105.350       23.868        0.051      337.749        9.935      863.683
05/09/2013  05:19:00      -52.793      -39.602        7.245       33.372       17.533       16.905     1113.659      307.420      285.774        0.306        0.085       65.996       17.096        0.067      337.685        9.826      863.705
05/09/2013  05:20:00      -87.352      -24.839       -3.763       23.315       20.460       13.936      543.602      418.598      194.207        0.471        0.058       90.815       13.216        0.021      337.607        9.695      863.717
05/09/2013  05:21:00      -68.578       -8.574       -4.211       35.933       15.733       15.927     1291.171      247.524      253.656        0.329        0.090       69.112       19.579        0.080      337.477        9.478      863.731
05/09/2013  05:22:00      -83.401      -28.304        1.707       42.135       17.237       17.549     1775.346      297.125      307.982        0.507        0.119       88.073       21.563        0.060      337.504        9.522      863.735
05/09/2013  05:23:00      -57.232      -34.568        7.992       47.728       19.571       17.296     2277.986      383.026      299.169        0.375        0.148       66.861       20.517        0.094      337.549        9.596      863.736
05/09/2013  05:24:00     -100.039      -45.992       -3.076       27.842       20.503       15.152      775.189      420.371      229.595        0.678        0.071      110.105       15.330        0.019      337.600        9.683      863.737
05/09/2013  05:25:00      -85.025      -55.728        1.054       33.644       23.826       18.547     1131.915      567.698      344.000        0.619        0.102      101.661       15.466        0.023      337.622        9.719      863.743
05/09/2013  05:26:00     -100.727      -47.780        1.633       55.184       21.859       20.890     3045.272      477.806      436.374        0.819        0.198      111.485       24.433        0.048      337.620        9.718      863.738
05/09/2013  05:27:00     -130.227      -55.675        6.343       38.275       26.641       23.183     1464.981      709.757      537.464        1.141        0.136      141.629       21.290        0.023      337.507        9.528      863.737
05/09/2013  05:28:00     -109.680      -41.291        5.148       39.557       29.033       21.946     1564.762      842.922      481.618        0.832        0.144      117.195       21.129        0.033      337.428        9.397      863.743
05/09/2013  05:29:00      -88.814      -46.980        5.263       39.245       20.804       17.822     1540.135      432.805      317.631        0.621        0.115      100.474       19.814        0.039      337.465        9.456      863.750
05/09/2013  05:30:00      -46.104      -40.675        8.912       39.370       23.744       19.553     1549.984      563.797      382.338        0.318        0.125       61.482       20.019        0.106      337.539        9.581      863.758
05/09/2013  05:31:00      -53.423      -45.317        8.598       36.863       24.787       22.614     1358.847      614.404      511.392        0.373        0.124       70.054       22.174        0.100      337.520        9.549      863.755
05/09/2013  05:32:00      -57.937      -61.500        6.383       36.649       44.440       24.067     1343.117     1974.877      579.205        0.554        0.195       84.493       24.712        0.086      337.591        9.667      863.753
05/09/2013  05:33:00      -44.712      -53.649       22.041       53.842       34.384       26.523     2899.001     1182.269      703.453        0.507        0.239       69.838       30.245        0.188      337.627        9.730      863.747
05/09/2013  05:34:00      -49.194      -37.491        6.317       38.627       24.351       21.315     1492.008      592.948      454.314        0.320        0.127       61.852       21.178        0.117      337.534        9.573      863.751
05/09/2013  05:35:00      -91.927      -41.286       -2.002       24.819       16.459       14.457      615.968      270.905      209.001        0.563        0.055      100.772       13.160        0.017      337.481        9.484      863.771
05/09/2013  05:36:00      -69.340      -39.484        2.347       27.395       17.494       17.208      750.470      306.034      296.132        0.386        0.068       79.793       17.817        0.050      337.576        9.643      863.787
05/09/2013  05:37:00      -86.837      -36.534        3.466       26.147       17.099       14.204      683.648      292.381      201.758        0.503        0.059       94.209       16.040        0.029      337.548        9.596      863.795
05/09/2013  05:38:00      -70.991      -41.086        2.724       36.905       18.205       19.722     1361.990      331.406      388.972        0.441        0.104       82.023       20.615        0.063      337.618        9.714      863.806
05/09/2013  05:39:00      -71.333      -41.197        2.021       33.227       21.349       17.497     1104.055      455.788      306.147        0.433        0.093       82.374       16.803        0.042      337.485        9.491      863.809
05/09/2013  05:40:00      -89.319      -44.943       -1.804       21.990       21.137       14.193      483.561      446.794      201.444        0.557        0.057       99.988       10.843        0.012      337.443        9.420      863.825
05/09/2013  05:41:00      -82.079      -45.845        0.174       30.883       15.112       14.238      953.754      228.367      202.707        0.511        0.069       94.014       16.666        0.031      337.429        9.395      863.852
05/09/2013  05:42:00      -38.304      -29.938        2.030       32.932       19.752       14.491     1084.523      390.129      209.991        0.203        0.084       48.615       13.823        0.081      337.499        9.514      863.865
05/09/2013  05:43:00      -42.284      -29.638        3.406       22.444       16.650       17.357      503.721      277.228      301.268        0.188        0.054       51.637       15.903        0.095      337.527        9.562      863.885
05/09/2013  05:44:00      -42.785      -23.391        1.065       33.629       20.511       17.519     1130.916      420.719      306.917        0.212        0.093       48.762       19.701        0.163      337.611        9.702      863.901
05/09/2013  05:45:00      -28.569      -32.391        6.500       34.686       26.056       17.417     1203.106      678.930      303.356        0.205        0.109       43.189       19.724        0.209      337.634        9.739      863.922
05/09/2013  05:46:00      -35.247      -39.364        2.085       29.615       13.012       13.949      877.019      169.301      194.581        0.202        0.062       52.839       13.377        0.064      337.608        9.698      863.941
05/09/2013  05:47:00      -18.299      -49.926        6.976       30.211       25.661       20.091      912.713      658.506      403.651        0.243        0.099       53.173       19.277        0.131      337.569        9.632      863.952
05/09/2013  05:48:00      -45.158      -39.080       -1.911       27.336       22.035       15.224      747.253      485.558      231.776        0.252        0.073       59.720       12.200        0.042      337.606        9.693      863.954
05/09/2013  05:49:00      -33.173      -34.189        5.504       26.555       18.775       15.680      705.169      352.504      245.859        0.180        0.065       47.638       11.945        0.063      337.582        9.654      863.959
05/09/2013  05:50:00      -24.008      -36.841       -2.143       22.694       28.507       17.702      515.006      812.640      313.368        0.179        0.082       43.973       17.547        0.159      337.541        9.584      863.957
05/09/2013  05:51:00      -73.161      -78.135       -1.525       33.025       27.625       16.690     1090.653      763.137      278.544        0.680        0.107      107.040       16.894        0.025      337.499        9.514      863.962
05/09/2013  05:52:00      -82.118      -75.817       -3.532       30.305       23.433       22.185      918.397      549.119      492.153        0.723        0.098      111.766       18.046        0.026      337.508        9.529      863.972
05/09/2013  05:53:00      -76.486      -67.752       -0.652       23.376       12.891       14.944      546.429      166.190      223.316        0.569        0.047      102.178       12.571        0.015      337.548        9.595      863.987
05/09/2013  05:54:00      -85.811      -53.315       -4.772       30.016       27.250       16.965      900.934      742.563      287.824        0.608        0.097      101.025       17.234        0.029      337.480        9.482      863.999
05/09/2013  05:55:00     -101.388      -36.878       -4.661       28.206       28.314       15.780      795.584      801.665      249.015        0.675        0.092      107.887       13.316        0.015      337.503        9.522      864.006
05/09/2013  05:56:00     -103.927      -62.834      -14.056       26.822       28.060       12.963      719.411      787.360      168.045        0.831        0.084      121.445       10.102        0.007      337.523        9.553      864.013
05/09/2013  05:57:00     -123.019      -37.852      -13.337       25.900       27.145       16.794      670.817      736.860      282.036        0.922        0.084      128.711       11.960        0.009      337.497        9.512      864.016
05/09/2013  05:58:00     -149.509      -50.286      -20.887       15.421       14.921       13.999      237.803      222.645      195.971        1.299        0.033      157.739        6.486        0.002      337.347        9.259      864.009
05/09/2013  05:59:00     -129.829      -46.084       -5.839       29.452       28.621       18.843      867.404      819.176      355.060        1.053        0.102      137.765       13.570        0.010      337.337        9.242      864.012
05/09/2013  06:00:00     -109.604      -57.511        6.576       43.966       29.822       25.647     1932.975      889.357      657.753        0.942        0.174      123.776       25.656        0.043      337.413        9.370      864.015
05/09/2013  06:01:00     -134.964      -61.878       -1.848       24.058       22.760       18.685      578.774      518.006      349.127        1.175        0.072      148.473       14.658        0.010      337.348        9.261      864.025
05/09/2013  06:02:00     -126.881      -38.720       -8.557       25.107       25.379       18.349      630.372      644.075      336.670        0.964        0.081      132.657       14.850        0.013      337.343        9.252      864.035
05/09/2013  06:03:00      -89.021      -38.375        3.360       38.615       26.147       22.121     1491.101      683.645      489.341        0.604        0.133       96.940       21.989        0.051      337.337        9.243      864.057
05/09/2013  06:04:00     -100.579      -44.907       -3.724       30.554       30.261       18.456      933.553      915.754      340.621        0.717        0.109      110.149       14.639        0.018      337.361        9.283      864.078
05/09/2013  06:05:00     -112.655      -46.672      -10.345       25.032       25.138       16.689      626.600      631.919      278.539        0.826        0.077      121.940       12.366        0.010      337.366        9.292      864.096
05/09/2013  06:06:00     -127.932      -59.735      -10.414       33.275       28.869       19.553     1107.202      833.426      382.329        1.118        0.116      141.191       11.477        0.007      337.348        9.262      864.096
05/09/2013  06:07:00      -94.607      -65.885        1.934       41.957       32.632       20.742     1760.418     1064.846      430.218        0.827        0.163      115.288       17.151        0.022      337.376        9.310      864.098
05/09/2013  06:08:00     -119.376      -60.386       -3.519       25.228       24.478       15.166      636.440      599.151      230.002        0.969        0.073      133.780       13.901        0.011      337.317        9.210      864.091
05/09/2013  06:09:00      -76.723      -59.658        3.818       42.719       31.283       20.159     1824.939      978.641      406.374        0.633        0.160       97.188       15.049        0.024      337.379        9.313      864.089
05/09/2013  06:10:00     -120.941      -65.903       -8.114       24.979       24.704       17.785      623.948      610.286      316.324        1.029        0.078      137.732       10.355        0.006      337.379        9.315      864.082
05/09/2013  06:11:00      -85.384      -38.470       -2.773       47.343       37.507       20.884     2241.350     1406.789      436.139        0.643        0.204       93.650       23.081        0.061      337.354        9.271      864.089
05/09/2013  06:12:00      -87.382      -40.723        7.816       49.834       32.213       23.208     2483.397     1037.649      538.598        0.671        0.203       96.405       26.320        0.075      337.321        9.216      864.098
05/09/2013  06:13:00      -96.348      -28.424       -6.733       26.700       25.313       18.436      712.897      640.743      339.874        0.591        0.085      100.453       15.431        0.024      337.308        9.194      864.112
05/09/2013  06:14:00     -104.182      -29.084       -6.431       27.944       16.855       15.545      780.868      284.099      241.641        0.652        0.065      108.165       15.700        0.021      337.312        9.201      864.119
05/09/2013  06:15:00      -93.411      -33.749       -0.373       25.882       19.004       15.351      669.882      361.141      235.660        0.557        0.063       99.321       11.627        0.014      337.373        9.304      864.124
05/09/2013  06:16:00      -83.463      -24.664       -3.798       35.093       19.866       15.724     1231.506      394.670      247.257        0.473        0.094       87.031       14.186        0.027      337.397        9.343      864.124
05/09/2013  06:17:00      -85.086      -39.946        4.144       33.565       22.779       17.057     1126.606      518.866      290.942        0.539        0.097       93.996       14.870        0.025      337.358        9.278      864.124
05/09/2013  06:18:00      -82.596      -31.671       -5.160       17.907       16.153        9.730      320.645      260.907       94.675        0.426        0.034       88.460        1.518        0.000      337.360        9.281      864.114
05/09/2013  06:19:00      -59.839      -44.386       -1.555       30.647       20.568       15.577      939.254      423.052      242.640        0.358        0.080       74.504       14.853        0.040      337.434        9.404      864.135
05/09/2013  06:20:00      -74.092      -25.555       -4.567       16.036       23.696       15.378      257.169      561.520      236.485        0.361        0.053       78.375        9.297        0.014      337.409        9.362      864.156
05/09/2013  06:21:00      -69.272        5.376        0.703       27.233       17.457       20.373      741.653      304.761      415.039        0.314        0.073       69.480       18.531        0.071      337.301        9.184      864.182
05/09/2013  06:22:00      -70.617      -12.219       -2.628       37.517       21.643       16.492     1407.512      468.399      271.985        0.365        0.107       71.667       16.016        0.050      337.268        9.127      864.201
05/09/2013  06:23:00      -90.274        5.483       -8.240       28.467       19.058       13.437      810.368      363.215      180.561        0.480        0.068       90.441       15.478        0.029      337.310        9.199      864.206
05/09/2013  06:24:00      -50.805       -1.853       -0.434       16.872       13.953       16.242      284.649      194.697      263.804        0.166        0.037       50.838       13.290        0.068      337.338        9.243      864.208
05/09/2013  06:25:00      -54.981      -29.847       -9.878        9.505        9.519       10.082       90.349       90.604      101.640        0.215        0.014       62.560        4.192        0.004      337.382        9.316      864.222
05/09/2013  06:26:00      -40.455      -41.082      -11.154       12.568       13.826       10.042      157.949      191.154      100.833        0.195        0.022       57.658        4.514        0.006      337.425        9.392      864.235
05/09/2013  06:27:00      -57.835      -19.395      -11.209       23.212       14.437        8.812      538.808      208.440       77.656        0.234        0.041       61.000        8.239        0.018      337.451        9.435      864.247
05/09/2013  06:28:00      -57.296      -20.407      -11.138        8.317       11.707        7.562       69.165      137.056       57.190        0.204        0.013       60.821        6.666        0.012      337.460        9.449      864.254
05/09/2013  06:29:00      -64.956       -8.033       -2.052       24.095       20.187       11.010      580.552      407.507      121.228        0.270        0.055       65.451        6.782        0.011      337.511        9.533      864.267
05/09/2013  06:30:00      -89.107       -5.301      -10.305       15.052       15.791       10.089      226.550      249.341      101.786        0.433        0.029       89.265        8.321        0.009      337.478        9.480      864.279
05/09/2013  06:31:00      -67.474       -4.476       -3.734       22.922       16.166       11.406      525.400      261.347      130.086        0.275        0.046       67.623       12.255        0.033      337.518        9.545      864.275
05/09/2013  06:32:00      -75.344      -15.122       -5.198       14.124       16.966       10.760      199.501      287.843      115.780        0.327        0.030       76.847        7.848        0.010      337.555        9.607      864.275
05/09/2013  06:33:00      -87.594      -47.498       -5.404       15.951       14.474       10.667      254.423      209.491      113.784        0.527        0.029       99.643        9.374        0.009      337.574        9.641      864.268
05/09/2013  06:34:00     -119.153      -27.669       -8.078       21.531       17.480       13.274      463.596      305.564      176.189        0.799        0.047      122.323       11.555        0.009      337.553        9.607      864.277
05/09/2013  06:35:00      -81.551      -32.961       -3.314       31.430       19.613       16.979      987.836      384.672      288.277        0.470        0.083       87.961       15.550        0.031      337.661        9.786      864.285
05/09/2013  06:36:00     -110.340       -7.346       -7.453       34.446       25.463       22.422     1186.518      648.349      502.757        0.731        0.117      110.584       19.307        0.030      337.529        9.564      864.309
05/09/2013  06:37:00     -114.579      -26.265        0.726       36.289       24.439       15.520     1316.864      597.245      240.863        0.799        0.108      117.551       15.014        0.016      337.463        9.454      864.331
05/09/2013  06:38:00      -88.810      -52.175        0.854       34.976       17.980       19.143     1223.291      323.280      366.466        0.626        0.096      103.002       20.940        0.041      337.543        9.588      864.355
05/09/2013  06:39:00      -65.903      -59.357       -4.424       23.801       10.798       10.629      566.481      116.600      112.972        0.434        0.040       88.693       10.851        0.015      337.598        9.680      864.377
05/09/2013  06:40:00      -27.186      -59.823       -5.762       18.705       13.382        8.675      349.865      179.079       75.253        0.248        0.030       65.710        8.527        0.017      337.617        9.712      864.395
05/09/2013  06:41:00      -29.739      -25.104       -5.263       11.657       25.446       12.252      135.888      647.520      150.116        0.124        0.047       38.918        4.798        0.015      337.685        9.827      864.421
05/09/2013  06:42:00      -43.526        4.219       -1.256        8.688        8.383        9.083       75.474       70.266       82.505        0.107        0.011       43.730        5.690        0.017      337.698        9.848      864.426
05/09/2013  06:43:00      -56.545       -1.192       -9.135       12.942       11.590        9.653      167.493      134.319       93.187        0.184        0.020       56.558        4.610        0.007      337.764        9.957      864.456
05/09/2013  06:44:00      -64.827       -6.070      -11.141       20.198       21.885       12.818      407.957      478.972      164.294        0.271        0.053       65.111        8.501        0.017      337.844       10.093      864.473
05/09/2013  06:45:00      -74.172       21.545       -4.092       21.309       13.703       11.470      454.060      187.759      131.555        0.338        0.039       77.237       11.485        0.022      337.971       10.306      864.493
05/09/2013  06:46:00      -50.433       -8.552        0.788       24.248       17.323       12.392      587.981      300.073      153.554        0.183        0.052       51.153        8.851        0.030      338.108       10.536      864.510
05/09/2013  06:47:00      -93.327       -9.962       -8.621       40.180       21.668       17.269     1614.470      469.502      298.222        0.563        0.119       93.857       18.461        0.039      337.976       10.315      864.529
05/09/2013  06:48:00      -87.012      -12.041       -6.451       25.451       21.645       19.161      647.739      468.488      367.128        0.462        0.074       87.841       17.465        0.040      338.026       10.397      864.538
05/09/2013  06:49:00      -67.693      -29.919       -0.729       16.045       21.060       14.369      257.450      443.535      206.464        0.319        0.045       74.010        3.840        0.003      338.088       10.503      864.544
05/09/2013  06:50:00      -94.719      -23.331      -12.392       15.190       12.861       12.049      230.741      165.396      145.180        0.511        0.027       97.550        5.187        0.003      338.019       10.386      864.547
05/09/2013  06:51:00      -47.396      -35.697        5.343       25.391       14.962       13.814      644.707      223.875      190.831        0.230        0.053       59.334       10.706        0.033      338.125       10.564      864.558
05/09/2013  06:52:00      -48.350       -8.879        1.973       34.201       33.077       24.173     1169.713     1094.102      584.340        0.263        0.142       49.159       19.445        0.156      338.201       10.690      864.562
05/09/2013  06:53:00      -32.620      -45.416        5.917       40.955       40.660       20.560     1677.278     1653.255      422.703        0.346        0.188       55.917       22.212        0.158      338.273       10.812      864.569
05/09/2013  06:54:00      -68.028      -76.213       -1.383       44.522       31.797       25.673     1982.210     1011.055      659.098        0.704        0.183      102.157       23.567        0.053      338.127       10.568      864.579
05/09/2013  06:55:00     -101.394      -90.455       -7.175       47.494       48.554       23.969     2255.714     2357.479      574.516        1.185        0.259      135.878       26.487        0.038      338.152       10.610      864.584
05/09/2013  06:56:00      -82.413      -67.581       -0.163       46.682       33.891       22.647     2179.177     1148.596      512.890        0.760        0.192      106.579       24.021        0.051      338.223       10.729      864.603
05/09/2013  06:57:00      -93.206      -85.394      -10.076       48.516       44.756       26.257     2353.779     2003.137      689.444        1.056        0.252      126.411       23.948        0.036      338.206       10.699      864.616
05/09/2013  06:58:00      -64.489      -67.490       15.370       54.934       36.318       32.861     3017.792     1318.993     1079.838        0.718        0.271       93.348       34.970        0.140      338.247       10.769      864.645
05/09/2013  06:59:00      -93.500     -105.073       -2.106       38.300       29.126       27.968     1466.862      848.306      782.233        1.144        0.155      140.651       26.932        0.037      338.244       10.763      864.667
05/09/2013  07:00:00      -77.189      -80.304       -4.148       40.011       37.208       24.998     1600.902     1384.425      624.877        0.802        0.181      111.386       25.862        0.054      338.305       10.866      864.683
05/09/2013  07:01:00      -71.633       -7.570       -1.913       37.261       27.389       21.020     1388.402      750.141      441.831        0.389        0.129       72.032       22.118        0.094      338.408       11.040      864.699
05/09/2013  07:02:00      -98.974       -1.586       -1.730       32.361       23.750       16.890     1047.258      564.073      285.275        0.585        0.095       98.987       16.837        0.029      338.377       10.988      864.703
05/09/2013  07:03:00      -34.888      -20.524        8.369       34.502       26.260       18.542     1190.360      689.604      343.800        0.197        0.111       40.478       14.691        0.132      338.554       11.284      864.701
05/09/2013  07:04:00      -78.826      -26.238        3.672       55.471       36.027       22.833     3077.024     1297.967      521.339        0.591        0.245       83.078       25.438        0.094      338.543       11.266      864.700
05/09/2013  07:05:00     -117.426      -52.564        0.553       51.922       36.574       26.598     2695.920     1337.670      707.431        1.065        0.237      128.654       24.900        0.037      338.426       11.069      864.694
05/09/2013  07:06:00      -68.854      -36.476       -0.888       39.693       24.086       19.132     1575.553      580.154      366.047        0.430        0.126       77.919       13.671        0.031      338.466       11.137      864.678
05/09/2013  07:07:00      -51.155      -19.117        9.719       63.725       24.927       22.989     4060.911      621.365      528.514        0.414        0.261       54.610       30.202        0.306      338.675       11.488      864.676
05/09/2013  07:08:00      -78.864      -28.032        1.466       44.482       27.566       20.201     1978.682      759.857      408.095        0.508        0.157       83.698       23.758        0.081      338.509       11.208      864.678
05/09/2013  07:09:00      -82.930      -54.660       -4.255       49.376       33.305       15.104     2437.947     1109.206      228.140        0.683        0.189       99.323       12.410        0.016      338.477       11.155      864.681
05/09/2013  07:10:00      -79.499      -60.005        1.660       45.216       28.704       23.510     2044.464      823.919      552.722        0.667        0.171       99.602       23.049        0.054      338.400       11.027      864.694
05/09/2013  07:11:00      -57.420      -70.573       -1.436       70.081       37.732       28.196     4911.333     1423.691      795.030        0.770        0.357       90.981       32.080        0.124      338.481       11.162      864.702
05/09/2013  07:12:00     -133.224      -74.769       -7.991       33.780       38.391       18.050     1141.097     1473.841      325.787        1.317        0.147      152.771       10.857        0.005      338.333       10.913      864.707
05/09/2013  07:13:00      -85.681     -108.846       -2.509       50.223       38.052       27.440     2522.306     1447.920      752.961        1.196        0.236      138.523       27.903        0.041      338.394       11.016      864.719
05/09/2013  07:14:00      -44.341      -98.695       -0.730       40.371       43.167       20.301     1629.816     1863.359      412.118        0.781        0.195      108.198       17.427        0.026      338.383       10.998      864.725
05/09/2013  07:15:00      -52.196      -67.360        5.393       55.866       42.933       36.737     3120.970     1843.246     1349.584        0.680        0.316       85.216       39.762        0.218      338.466       11.135      864.721
05/09/2013  07:16:00      -69.915      -92.658        4.429       43.106       53.561       30.661     1858.168     2868.811      940.088        0.958        0.283      116.076       33.193        0.082      338.475       11.152      864.716
05/09/2013  07:17:00     -107.555      -77.059       -5.430       52.952       41.615       26.894     2803.863     1731.834      723.295        1.140        0.263      132.311       27.220        0.042      338.446       11.104      864.703
05/09/2013  07:18:00      -59.445      -50.465        6.745       57.063       38.641       26.953     3256.236     1493.107      726.491        0.580        0.274       77.977       28.832        0.137      338.725       11.572      864.693
05/09/2013  07:19:00     -113.878     -103.834       -2.892       63.509       39.537       30.917     4033.379     1563.207      955.888        1.515        0.328      154.109       29.914        0.038      338.521       11.228      864.694
05/09/2013  07:20:00      -99.333      -94.650        2.909       59.438       62.948       25.188     3532.825     3962.472      634.453        1.348        0.406      137.207       31.633        0.053      338.496       11.187      864.693
05/09/2013  07:21:00     -134.961      -43.140      -11.948       39.326       38.098       25.363     1546.534     1451.438      643.299        1.193        0.182      141.688       19.296        0.019      338.476       11.153      864.685
05/09/2013  07:22:00      -63.207      -43.522       -6.760       25.879       19.615       16.609      669.741      384.759      275.870        0.363        0.067       76.741       14.736        0.037      338.634       11.420      864.695
05/09/2013  07:23:00      -42.580      -49.031        5.196       26.178       23.581       18.417      685.278      556.080      339.203        0.291        0.079       64.939       11.416        0.031      338.693       11.518      864.701
05/09/2013  07:24:00      -57.174      -23.874        1.028       39.981       32.208       18.498     1598.497     1037.381      342.168        0.341        0.149       61.958       17.632        0.081      338.812       11.718      864.706
05/09/2013  07:25:00      -76.693      -89.364      -16.359       53.598       20.841       19.885     2872.718      434.341      395.423        0.892        0.185      117.761       22.601        0.037      338.574       11.319      864.710
05/09/2013  07:26:00      -79.409        6.094       -3.072       63.691       35.863       20.339     4056.484     1286.135      413.685        0.605        0.288       79.643       17.267        0.047      338.672       11.482      864.718
05/09/2013  07:27:00     -150.216      -27.497      -11.183       38.981       33.215       24.784     1519.543     1103.268      614.267        1.334        0.162      152.712       21.921        0.021      338.757       11.626      864.735
05/09/2013  07:28:00      -66.959       -2.897        0.603       64.543       23.815       30.602     4165.766      567.151      936.489        0.508        0.283       67.022       36.159        0.291      339.071       12.155      864.743
05/09/2013  07:29:00      -46.887      -34.921        3.445       50.665       34.257       19.503     2566.902     1173.543      380.348        0.377        0.206       58.462       26.369        0.203      339.045       12.110      864.742
05/09/2013  07:30:00     -156.552      -50.540       -7.505       31.003       22.595       20.050      961.208      510.540      402.016        1.450        0.094      164.507       12.863        0.006      338.664       11.470      864.758
05/09/2013  07:31:00     -123.356      -33.184      -19.262       27.117       12.002       10.562      735.342      144.055      111.548        0.884        0.050      127.741        3.046        0.001      338.609       11.377      864.761
05/09/2013  07:32:00      -64.444      -47.118       -7.085       27.836       19.940       10.474      774.829      397.585      109.710        0.385        0.064       79.832        6.475        0.007      338.686       11.505      864.769
05/09/2013  07:33:00      -97.487      -11.550       -8.512       45.686       14.794       15.524     2087.220      218.869      240.983        0.613        0.127       98.169       17.153        0.031      338.764       11.638      864.776
05/09/2013  07:34:00      -95.433        4.390       -5.982       18.752       19.907       14.882      351.631      396.274      221.487        0.507        0.048       95.534        9.178        0.009      338.659       11.460      864.783
05/09/2013  07:35:00     -109.824       -2.756       -4.191       23.081       21.422       16.370      532.723      458.921      267.984        0.667        0.063      109.858       12.093        0.012      338.721       11.567      864.782
05/09/2013  07:36:00     -113.255      -40.312       -9.284       24.861       19.798       12.428      618.062      391.957      154.462        0.785        0.058      120.216        6.956        0.003      338.751       11.614      864.785
05/09/2013  07:37:00      -64.757      -24.272       -8.571       15.358       10.349       10.244      235.854      107.102      104.939        0.265        0.022       69.156        6.456        0.009      338.764       11.638      864.774
05/09/2013  07:38:00      -65.949      -15.233       -4.755       14.392       13.047       11.126      207.140      170.232      123.795        0.255        0.025       67.686        5.982        0.008      338.786       11.673      864.769
05/09/2013  07:39:00      -28.605        3.089       13.298       31.639       21.438       13.678     1001.052      459.590      187.098        0.133        0.082       28.771       15.352        0.285      339.482       12.847      864.766
05/09/2013  07:40:00      -60.225      -33.571        0.370       28.986       34.429       19.546      840.162     1185.363      382.039        0.358        0.120       68.950       20.690        0.090      339.190       12.354      864.770
05/09/2013  07:41:00      -72.252      -12.958       -7.136       18.083       24.570       16.748      327.005      603.678      280.483        0.332        0.061       73.405       14.719        0.040      339.045       12.111      864.775
05/09/2013  07:42:00      -32.782      -36.901       -0.138       30.981       18.315       11.410      959.819      335.446      130.194        0.193        0.071       49.359        7.912        0.026      339.063       12.140      864.773
05/09/2013  07:43:00      -40.523      -35.197       -2.096       19.421       13.768       10.950      377.194      189.562      119.912        0.179        0.034       53.674        5.175        0.009      339.121       12.235      864.769
05/09/2013  07:44:00      -68.990      -42.304       -5.943       31.219       28.123       18.380      974.628      790.902      337.828        0.434        0.105       80.927       13.683        0.029      339.100       12.202      864.766
05/09/2013  07:45:00      -91.130      -83.514       -7.081       41.887       37.600       30.353     1754.481     1413.742      921.295        0.971        0.204      123.610       31.929        0.067      339.041       12.103      864.760
05/09/2013  07:46:00      -59.615      -81.743       -3.058       25.165       30.903       25.731      633.283      954.968      662.075        0.625        0.113      101.173       24.031        0.056      339.008       12.047      864.759
05/09/2013  07:47:00      -52.979      -95.157       -8.534       20.195       22.384       12.506      407.819      501.044      156.397        0.650        0.053      108.911        4.412        0.002      338.916       11.893      864.771
05/09/2013  07:48:00      -61.632      -83.188       -0.543       19.901       23.227       14.352      396.050      539.497      205.981        0.593        0.057      103.532       10.801        0.011      338.966       11.978      864.768
05/09/2013  07:49:00      -18.094      -21.966       -0.004       36.036       28.646       21.661     1298.611      820.593      469.219        0.170        0.129       28.459       17.821        0.392      339.324       12.579      864.777
05/09/2013  07:50:00      -48.414      -62.667       -3.367       17.978       22.231       15.225      323.192      494.230      231.803        0.367        0.052       79.190        4.567        0.003      339.131       12.254      864.798
05/09/2013  07:51:00      -53.025      -22.376       -2.294       18.414       35.182       22.167      339.061     1237.742      491.358        0.269        0.103       57.552       17.860        0.096      339.209       12.386      864.832
05/09/2013  07:52:00      -30.435      -10.684       -6.174       20.384       32.785       11.076      415.519     1074.883      122.684        0.135        0.081       32.255        5.580        0.030      339.198       12.367      864.859
05/09/2013  07:53:00      -45.862       11.684        0.941       22.501       24.711       29.149      506.303      610.615      849.667        0.210        0.098       47.327       13.692        0.084      339.316       12.565      864.876
05/09/2013  07:54:00      -28.496        1.589        6.214       12.361       11.224       11.336      152.791      125.968      128.513        0.063        0.020       28.540        6.666        0.055      339.479       12.841      864.889
05/09/2013  07:55:00      -33.965      -27.712       -0.329       36.428       31.799       18.487     1327.000     1011.175      341.778        0.230        0.134       43.836       17.243        0.155      339.406       12.717      864.898
05/09/2013  07:56:00       -2.490      -36.994       24.112       33.884       36.649       19.454     1148.152     1343.157      378.461        0.241        0.143       37.078       14.721        0.158      339.499       12.875      864.902
05/09/2013  07:57:00      -30.829       -9.913        3.487       19.738       20.878       20.170      389.595      435.892      406.838        0.115        0.062       32.384       13.645        0.178      339.625       13.086      864.897
05/09/2013  07:58:00      -91.821      -34.365       -6.438       29.906       30.033       12.876      894.383      901.985      165.802        0.581        0.098       98.041        8.299        0.007      339.244       12.443      864.890
05/09/2013  07:59:00      -52.121       -6.103       -7.663       32.040       17.441       12.891     1026.577      304.199      166.178        0.215        0.075       52.477       12.296        0.055      339.312       12.560      864.880
05/09/2013  08:00:00      -62.529       -3.666       -4.352       26.545       20.897       22.113      704.617      436.691      488.968        0.279        0.082       62.636       14.279        0.052      339.482       12.846      864.876
05/09/2013  08:01:00     -104.031        7.288       -8.022       31.537       33.822       20.133      994.590     1143.938      405.320        0.674        0.127      104.286       19.152        0.034      339.394       12.698      864.870
05/09/2013  08:02:00     -104.958       10.201      -12.496       35.024       21.956       20.855     1226.673      482.072      434.945        0.671        0.107      105.453       21.073        0.040      339.307       12.550      864.873
05/09/2013  08:03:00      -36.770       16.380        1.231       34.883       31.575       17.985     1216.820      996.997      323.452        0.208        0.127       40.253       11.591        0.083      339.753       13.302      864.873
05/09/2013  08:04:00      -55.613        3.342       -2.910       41.107       39.492       22.070     1689.810     1559.628      487.071        0.342        0.187       55.713       24.384        0.192      339.695       13.204      864.866
05/09/2013  08:05:00      -82.717       19.711       -9.259       40.879       33.591       23.393     1671.080     1128.330      547.226        0.533        0.167       85.033       17.782        0.044      339.608       13.060      864.873
05/09/2013  08:06:00      -11.889      -29.348       14.063       24.725       25.643       18.737      611.342      657.589      351.091        0.141        0.081       31.665       15.220        0.231      339.879       13.517      864.880
05/09/2013  08:07:00      -57.882       24.346       -2.182       31.699       35.097       15.716     1004.852     1231.776      246.983        0.322        0.124       62.794       17.935        0.082      339.678       13.176      864.880
05/09/2013  08:08:00      -73.598       20.997      -11.575       32.371       26.048       23.697     1047.902      678.475      561.550        0.414        0.114       76.534       19.153        0.063      339.581       13.013      864.884
05/09/2013  08:09:00       -4.811       47.366        8.417       15.872       29.877       26.937      251.913      892.625      725.611        0.210        0.094       47.610       24.621        0.267      339.942       13.621      864.879
05/09/2013  08:10:00       11.366        4.981       19.277       26.001       21.199       19.785      676.052      449.397      391.453        0.102        0.076       12.410       18.404        2.200      340.102       13.892      864.877
05/09/2013  08:11:00       36.218       29.979       19.739       24.730       17.588       19.665      611.550      309.332      386.728        0.195        0.065       47.016       15.836        0.113      339.663       13.151      864.876
05/09/2013  08:12:00        9.038       60.196        1.627       26.895       33.577       21.391      723.347     1127.411      457.595        0.301        0.115       60.871       12.458        0.042      339.865       13.492      864.875
05/09/2013  08:13:00      -28.567       38.117        5.990       38.614       38.954       29.371     1491.055     1517.411      862.641        0.309        0.194       47.634       26.908        0.319      340.031       13.770      864.877
05/09/2013  08:14:00      -54.159       14.676       -9.949       21.998       42.888       18.311      483.896     1839.381      335.307        0.295        0.133       56.112       16.847        0.090      339.715       13.240      864.874
05/09/2013  08:15:00      -64.011      -53.362       -4.748       15.209       15.773       12.282      231.304      248.778      150.837        0.380        0.032       83.336        8.234        0.010      339.495       12.867      864.872
05/09/2013  08:16:00      -25.985      -24.063       -0.054       33.003       13.804       16.603     1089.227      190.549      275.644        0.140        0.078       35.415       20.679        0.341      339.698       13.208      864.870
05/09/2013  08:17:00      -14.621      -13.517        8.512       20.147       13.963       17.676      405.887      194.960      312.425        0.069        0.046       19.912       16.175        0.660      339.792       13.369      864.863
05/09/2013  08:18:00       -2.515       23.111       25.387       17.846       25.794       21.887      318.482      665.314      479.055        0.132        0.073       23.247       11.254        0.234      340.363       14.332      864.851
05/09/2013  08:19:00      103.352       56.127       13.430       37.140       22.273       23.737     1379.362      496.108      563.430        0.823        0.122      117.609       16.275        0.019      339.998       13.716      864.843
05/09/2013  08:20:00       98.138       79.959       28.878       43.950       37.199       36.046     1931.585     1383.758     1299.339        1.074        0.231      126.588       29.906        0.056      339.988       13.699      864.836
05/09/2013  08:21:00       99.416       70.538       22.393       25.045       31.233       34.160      627.246      975.480     1166.899        0.906        0.138      121.898       17.823        0.021      339.903       13.558      864.837
05/09/2013  08:22:00       56.342       59.417       27.484       35.859       37.824       36.782     1285.854     1430.688     1352.924        0.576        0.203       81.883       18.446        0.051      339.995       13.711      864.840
05/09/2013  08:23:00       -0.563       63.085        6.445       33.235       45.058       25.877     1104.571     2030.196      669.625        0.391        0.190       63.087       19.315        0.094      339.998       13.716      864.843
05/09/2013  08:24:00       48.898       54.002        4.652       38.876       35.721       25.709     1511.342     1275.962      660.977        0.439        0.172       72.850       14.881        0.042      340.149       13.971      864.854
05/09/2013  08:25:00        3.451       79.971       -3.545       24.123       40.742       29.071      581.895     1659.950      845.112        0.475        0.154       80.045       29.083        0.132      339.982       13.689      864.872
05/09/2013  08:26:00       33.785       21.420       17.882       26.281       17.805       18.062      690.693      317.003      326.233        0.163        0.067       40.003       10.876        0.074      340.176       14.016      864.869
05/09/2013  08:27:00       24.337        2.838       24.015       38.910       46.157       26.572     1514.020     2130.470      706.045        0.276        0.218       24.502       22.010        0.807      340.348       14.306      864.865
05/09/2013  08:28:00        5.521      -64.274       -0.358       22.093       28.402       26.538      488.122      806.668      704.277        0.308        0.100       64.511       16.745        0.067      340.239       14.122      864.871
05/09/2013  08:29:00       21.085     -107.685       -8.108       36.023       40.566       25.663     1297.644     1645.574      658.579        0.785        0.180      109.730       15.765        0.021      340.022       13.754      864.876
05/09/2013  08:30:00       21.122      -80.476       -3.897       44.548       33.535       34.847     1984.497     1124.592     1214.343        0.563        0.216       83.201       29.187        0.123      340.038       13.784      864.877
05/09/2013  08:31:00        5.898       13.897       39.652       28.360       39.673       18.762      804.311     1573.921      352.030        0.226        0.137       15.097        8.135        0.290      340.685       14.878      864.892
05/09/2013  08:32:00       12.751       48.304       57.073       43.810       32.148       32.255     1919.318     1033.468     1040.404        0.487        0.200       49.958       28.853        0.334      340.834       15.127      864.902
05/09/2013  08:33:00      144.877      102.319       20.006       35.887       35.365       34.328     1287.873     1250.668     1178.389        1.779        0.186      177.365       22.052        0.015      339.865       13.490      864.921
05/09/2013  08:34:00      116.505       92.038        9.562       22.912       20.499       26.746      524.953      420.209      715.331        1.190        0.083      148.474       17.233        0.013      339.690       13.196      864.940
05/09/2013  08:35:00       63.821       63.865       10.412       33.944       26.009       26.847     1152.173      676.448      720.736        0.540        0.127       90.287       20.902        0.054      339.894       13.542      864.955
05/09/2013  08:36:00       61.188       54.285       16.602       22.227       22.983       24.521      494.050      528.234      601.281        0.429        0.081       81.797       10.411        0.016      340.079       13.851      864.962
05/09/2013  08:37:00       46.045       44.709       30.093       34.928       34.792       22.554     1219.972     1210.474      508.671        0.398        0.147       64.179       12.263        0.037      340.307       14.238      864.965
05/09/2013  08:38:00       -4.370      -45.460       19.941       36.650       50.526       42.484     1343.222     2552.867     1804.931        0.409        0.285       45.670       24.814        0.295      340.380       14.361      864.958
05/09/2013  08:39:00       -6.782       53.799       65.044       41.678       41.355       33.555     1737.094     1710.195     1125.909        0.587        0.229       54.225       27.065        0.249      340.486       14.539      864.957
05/09/2013  08:40:00      -13.486       15.546       49.509       40.608       55.040       40.058     1649.020     3029.446     1604.645        0.458        0.314       20.580       36.892        3.213      340.470       14.513      864.960
05/09/2013  08:41:00        2.568       36.075       78.367       23.101       33.544       14.816      533.647     1125.175      219.514        0.466        0.094       36.167       12.378        0.117      340.523       14.603      864.954
05/09/2013  08:42:00       92.939      -86.686      -13.363       79.101       84.310       50.393     6256.954     7108.149     2539.437        1.611        0.795      127.091       52.186        0.169      340.223       14.094      864.950
05/09/2013  08:43:00       10.127      -23.082       43.282       35.227       61.624       41.102     1240.964     3797.560     1689.381        0.462        0.336       25.205       32.049        1.617      340.782       15.042      864.947
05/09/2013  08:44:00       83.575       78.590       30.320       55.760       46.010       34.763     3109.144     2116.940     1208.443        1.026        0.322      114.722       15.167        0.017      340.573       14.688      864.953
05/09/2013  08:45:00       66.864       38.943       31.649       63.020       68.717       43.585     3971.502     4722.001     1899.646        0.879        0.530       77.379       34.680        0.201      340.628       14.780      864.965
05/09/2013  08:46:00       95.923       84.264       16.731       83.919       60.085       36.224     7042.376     3610.232     1312.207        1.427        0.598      127.678       18.342        0.021      340.413       14.417      864.952
05/09/2013  08:47:00      -31.823      -17.330       21.913       60.708       67.262       36.452     3685.496     4524.203     1328.724        0.566        0.477       36.236       26.525        0.536      340.353       14.315      864.958
05/09/2013  08:48:00       61.058       65.928       65.930       42.875       41.044       42.581     1838.308     1684.642     1813.116        0.888        0.267       89.859       22.025        0.060      340.597       14.728      864.941
05/09/2013  08:49:00       62.306      -77.473       16.663       85.183       63.176       45.026     7256.125     3991.243     2027.362        1.172        0.664       99.419       52.790        0.282      340.340       14.293      864.942
05/09/2013  08:50:00       74.404      -84.746        8.932       62.519       76.013       52.812     3908.633     5777.955     2789.155        1.263        0.624      112.773       56.001        0.247      340.279       14.190      864.918
05/09/2013  08:51:00       70.053       60.959       46.898       48.723       39.589       39.170     2373.965     1567.294     1534.324        0.815        0.274       92.862       20.614        0.049      340.854       15.163      864.923
05/09/2013  08:52:00       86.884       71.647       14.418       56.064       35.377       39.972     3143.213     1251.550     1597.726        0.944        0.300      112.615       14.552        0.017      340.700       14.901      864.930
05/09/2013  08:53:00       36.575       46.674       36.753       45.785       41.840       33.775     2096.279     1750.547     1140.733        0.493        0.249       59.297       16.922        0.081      340.962       15.345      864.927
05/09/2013  08:54:00       16.873       -3.563       17.212       34.460       51.917       34.878     1187.498     2695.418     1216.508        0.285        0.255       17.246       22.517        1.705      340.808       15.086      864.925
05/09/2013  08:55:00       76.192       69.791       57.213       56.741       46.283       42.540     3219.535     2142.106     1809.636        1.056        0.359      103.325       26.414        0.065      340.569       14.679      864.933
05/09/2013  08:56:00       66.140       54.490       45.557       58.289       48.070       44.167     3397.657     2310.714     1950.753        0.854        0.383       85.695       36.375        0.180      340.813       15.093      864.939
05/09/2013  08:57:00       53.137      -51.743       30.511       57.720       97.431       54.751     3331.607     9492.858     2997.626        1.112        0.791       74.168       64.215        0.750      340.533       14.621      864.939
05/09/2013  08:58:00       65.358      -99.584        7.424       53.713       76.897       42.068     2885.078     5913.093     1769.726        1.240        0.528      119.116       50.214        0.178      340.534       14.620      864.933
05/09/2013  08:59:00       66.928       95.536       73.187       76.819       55.388       43.612     5901.224     3067.804     1902.014        1.492        0.544      116.647       33.373        0.082      340.776       15.029      864.933
05/09/2013  09:00:00      122.390       71.689       14.639       67.634       53.014       39.681     4574.402     2810.457     1574.585        1.464        0.448      141.840       27.557        0.038      340.540       14.631      864.942
05/09/2013  09:01:00      108.816       66.132       17.659       52.819       53.526       49.542     2789.805     2865.072     2454.441        1.232        0.405      127.335       33.092        0.068      340.696       14.896      864.947
05/09/2013  09:02:00       55.756       73.804       71.803       76.312       43.780       40.024     5823.511     1916.667     1601.893        1.153        0.467       92.497       27.790        0.090      341.016       15.436      864.937
05/09/2013  09:03:00       65.324       59.198       41.786       32.827       31.998       43.439     1077.595     1023.858     1886.916        0.675        0.199       88.157       23.949        0.074      340.772       15.023      864.955
05/09/2013  09:04:00       49.624       53.488        8.425       33.935       25.262       30.354     1151.564      638.170      921.380        0.405        0.136       72.962       21.087        0.084      340.711       14.919      864.944
05/09/2013  09:05:00       15.019       35.014       31.563       34.717       38.851       32.382     1205.296     1509.433     1048.592        0.310        0.188       38.100        8.658        0.052      341.232       15.801      864.941
05/09/2013  09:06:00       77.122       71.435       59.873       46.120       39.360       33.455     2127.100     1549.235     1119.213        0.971        0.240      105.123        7.658        0.005      340.804       15.076      864.941
05/09/2013  09:07:00       79.763       79.972       69.485       56.282       55.787       53.333     3167.714     3112.144     2844.438        1.335        0.456      112.950       36.239        0.103      340.911       15.258      864.947
05/09/2013  09:08:00       59.910       21.787       40.867       87.145       67.627       57.862     7594.189     4573.415     3348.005        1.062        0.776       63.749       55.009        0.745      340.981       15.376      864.954
05/09/2013  09:09:00       43.287       -3.565       78.324       59.813       73.310       39.692     3577.590     5374.355     1575.462        0.927        0.526       43.434       28.285        0.424      340.864       15.179      864.968
05/09/2013  09:10:00       76.657       73.600       76.056       76.169       89.273       44.694     5801.711     7969.591     1997.525        1.642        0.788      106.270       42.596        0.161      340.639       14.798      864.972
05/09/2013  09:11:00       44.135      -27.350       39.786       66.036       80.976       47.137     4360.787     6557.129     2221.857        0.871        0.657       51.922       38.460        0.549      341.118       15.608      864.976
05/09/2013  09:12:00       37.764      -16.157       45.582       63.352       77.185       53.736     4013.459     5957.565     2887.599        0.831        0.643       41.075       45.439        1.224      341.165       15.688      864.976
05/09/2013  09:13:00       33.026       19.450       48.684       48.255       57.223       47.430     2328.513     3274.485     2249.635        0.584        0.393       38.328       21.324        0.310      341.199       15.746      864.979
05/09/2013  09:14:00       56.228       88.314       89.499       80.655       51.627       44.513     6505.252     2665.364     1981.382        1.506        0.558      104.695       41.923        0.160      340.962       15.343      864.988
05/09/2013  09:15:00      177.026       89.387       -0.353       72.447       61.019       45.901     5248.529     3723.316     2106.941        2.520        0.554      198.314       31.887        0.026      340.592       14.717      865.001
05/09/2013  09:16:00      210.561       87.005       11.011       88.960       64.197       52.211     7913.921     4121.303     2725.966        3.339        0.738      227.829       42.621        0.035      340.607       14.739      865.000
05/09/2013  09:17:00      245.922      127.749       19.805       66.352       61.019       59.229     4402.633     3723.332     3508.115        4.441        0.582      277.124       35.659        0.017      340.540       14.626      865.005
05/09/2013  09:18:00       90.728       56.538        6.620       88.939       67.535       52.740     7910.146     4560.982     2781.466        1.336        0.763      106.903       49.049        0.211      340.509       14.579      865.026
05/09/2013  09:19:00       41.852       41.774       24.287       83.468       40.845       39.972     6966.877     1668.310     1597.751        0.716        0.512       59.132       18.754        0.101      341.003       15.413      865.023
05/09/2013  09:20:00       92.646       94.273       76.720       73.701       44.320       46.151     5431.807     1964.253     2129.876        1.644        0.476      132.177       34.954        0.070      340.867       15.183      865.026
05/09/2013  09:21:00       48.490       72.905       33.872       44.405       48.709       39.041     1971.838     2372.587     1524.196        0.734        0.293       87.558       35.534        0.165      340.680       14.869      865.048
05/09/2013  09:22:00       16.063      -14.662        6.817       44.872       72.612       39.677     2013.525     5272.538     1574.231        0.469        0.443       21.749       30.212        1.930      341.000       15.409      865.044
05/09/2013  09:23:00       29.204      -73.835       35.362       51.285       73.115       46.329     2630.197     5345.854     2146.335        0.884        0.506       79.400       41.851        0.278      341.121       15.614      865.052
05/09/2013  09:24:00       55.484       34.049       35.223       57.573       60.036       33.670     3314.665     3604.305     1133.679        0.676        0.403       65.098       30.358        0.217      341.014       15.434      865.057
05/09/2013  09:25:00       27.367       37.714       25.696       46.406       32.632       24.681     2153.550     1064.866      609.128        0.333        0.191       46.598       20.945        0.202      341.035       15.469      865.050
05/09/2013  09:26:00       36.304      -20.955       24.120       40.656       64.322       38.161     1652.908     4137.330     1456.244        0.479        0.362       41.918       25.071        0.358      341.291       15.901      865.049
05/09/2013  09:27:00       81.972     -122.750      -20.644       64.069       63.717       54.990     4104.889     4059.809     3023.953        1.670        0.559      147.604       38.984        0.070      341.033       15.465      865.046
05/09/2013  09:28:00       50.469      -15.144       52.670       68.735       92.490       68.350     4724.458     8554.407     4671.750        1.175        0.898       52.692       72.938        1.916      341.270       15.867      865.043
05/09/2013  09:29:00       99.555     -116.059       13.614       56.496       67.391       41.916     3191.785     4541.484     1756.981        1.653        0.475      152.908       24.456        0.026      340.935       15.297      865.048
05/09/2013  09:30:00       81.753      -91.357       13.108       60.747       63.926       43.477     3690.225     4086.581     1890.226        1.243        0.483      122.595       43.179        0.124      341.220       15.782      865.048
05/09/2013  09:31:00       43.719      -59.211       11.972       66.378       73.096       48.531     4406.019     5342.976     2355.289        0.883        0.605       73.603       35.610        0.234      341.286       15.892      865.034
05/09/2013  09:32:00       46.444       70.956       74.051       67.083       48.693       38.245     4500.104     2371.047     1462.718        1.050        0.417       84.805       22.153        0.068      341.384       16.060      865.038
05/09/2013  09:33:00      104.854       53.011       43.130       71.311       59.171       49.492     5085.319     3501.150     2449.481        1.335        0.552      117.493       42.197        0.129      341.267       15.861      865.038
05/09/2013  09:34:00       50.899       -8.781       37.548      112.999       97.263       45.140    12768.748     9460.074     2037.629        1.417        1.213       51.651       45.418        0.773      341.402       16.089      865.035
05/09/2013  09:35:00       65.547       60.595       55.763       90.406       50.456       41.981     8173.274     2545.855     1762.380        1.178        0.624       89.265       33.125        0.138      341.161       15.682      865.048
05/09/2013  09:36:00       84.051       61.580       48.785       50.060       27.019       34.361     2506.006      730.042     1180.665        0.883        0.221      104.196       15.105        0.021      341.118       15.609      865.038
05/09/2013  09:37:00       52.144       56.274      -13.409       35.580       32.616       24.521     1265.904     1063.813      601.274        0.450        0.147       76.719       14.484        0.036      341.083       15.551      865.027
05/09/2013  09:38:00       38.679        3.430       27.295       61.159       52.145       38.927     3740.472     2719.102     1515.287        0.511        0.399       38.831       32.179        0.687      341.649       16.508      865.012
05/09/2013  09:39:00        0.177      -35.803       15.338       65.040       81.586       43.332     4230.160     6656.276     1877.683        0.714        0.638       35.804       44.559        1.549      341.499       16.253      864.991
05/09/2013  09:40:00       69.214      -54.143       -5.780       70.153       78.767       45.573     4921.490     6204.207     2076.910        1.048        0.660       87.875       56.545        0.414      341.453       16.176      864.983
05/09/2013  09:41:00        1.645      -70.553       19.063       38.611       55.732       43.136     1490.826     3106.063     1860.750        0.590        0.323       70.572       24.552        0.121      341.716       16.624      864.962
05/09/2013  09:42:00       62.097      -75.711       19.759       59.532       78.872       48.330     3544.113     6220.798     2335.781        1.104        0.605       97.920       51.166        0.273      341.711       16.614      864.959
05/09/2013  09:43:00       20.897      -21.993       20.164       41.677       75.697       45.103     1736.954     5730.063     2034.268        0.541        0.475       30.338       50.569        2.778      341.669       16.542      864.962
05/09/2013  09:44:00       20.578      -80.948      -20.293       56.369       40.443       21.800     3177.490     1635.614      475.219        0.634        0.264       83.523       22.991        0.076      341.117       15.607      864.961
05/09/2013  09:45:00      -51.156       10.219      -13.237       36.183       36.768       33.865     1309.211     1351.907     1146.810        0.335        0.190       52.167       28.664        0.302      341.107       15.590      864.956
05/09/2013  09:46:00      -31.252        1.037        3.925       28.568       34.867       26.944      816.152     1215.740      725.998        0.188        0.138       31.269       14.624        0.219      341.479       16.221      864.951
05/09/2013  09:47:00      -33.301        4.799       11.256       28.329       18.619       19.458      802.534      346.682      378.598        0.139        0.076       33.645       19.049        0.321      342.003       17.111      864.953
05/09/2013  09:48:00      -43.465        5.383       -3.516       31.166       37.794       26.400      971.321     1428.349      696.941        0.251        0.155       43.797       13.395        0.094      341.672       16.548      864.935
05/09/2013  09:49:00      -29.284       16.895      -14.599       47.270       27.966       32.104     2234.465      782.096     1030.665        0.270        0.202       33.809       22.783        0.454      341.577       16.385      864.948
05/09/2013  09:50:00      -37.919        7.916       21.673       37.268       39.410       29.194     1388.890     1553.134      852.278        0.288        0.190       38.736       30.168        0.607      342.089       17.256      864.936
05/09/2013  09:51:00       -7.110      -11.355       25.001       47.809       21.171       29.859     2285.681      448.229      891.575        0.221        0.181       13.397       17.692        1.744      341.823       16.804      864.940
05/09/2013  09:52:00       36.984      -59.938       26.777       54.159       66.175       47.835     2933.178     4379.178     2288.185        0.764        0.480       70.430       37.039        0.277      341.903       16.940      864.935
05/09/2013  09:53:00        8.435        9.331       45.906       38.811       64.803       46.406     1506.313     4199.436     2153.479        0.506        0.393       12.579       29.862        5.636      342.004       17.110      864.917
05/09/2013  09:54:00      129.107       93.723       43.438       53.809       41.935       43.492     2895.389     1758.526     1891.520        1.694        0.327      159.539       19.756        0.015      341.294       15.906      864.929
05/09/2013  09:55:00       77.896       56.954       20.855       44.827       32.766       35.874     2009.425     1073.580     1286.926        0.706        0.218       96.497       22.577        0.055      341.486       16.230      864.915
05/09/2013  09:56:00       84.597       71.370       19.931       53.619       37.083       37.145     2875.025     1375.118     1379.780        0.914        0.281      110.681       17.212        0.024      341.645       16.501      864.917
05/09/2013  09:57:00       29.779      -12.593       12.043       52.677       67.986       34.034     2774.901     4622.049     1158.315        0.487        0.428       32.332       15.761        0.238      341.832       16.819      864.913
05/09/2013  09:58:00       50.139      -87.257       30.838       73.015       92.829       63.360     5331.262     8617.268     4014.520        1.452        0.898      100.636       56.321        0.313      342.045       17.180      864.897
05/09/2013  09:59:00       32.455      -21.802       57.189       39.478       60.402       32.666     1558.506     3648.378     1067.055        0.554        0.314       39.098       17.103        0.191      341.900       16.935      864.895
05/09/2013  10:00:00       81.024       40.594        8.962       82.544       50.646       37.698     6813.501     2565.023     1421.165        0.954        0.540       90.625       30.433        0.113      342.063       17.212      864.885
05/09/2013  10:01:00       87.167       78.812       77.047       75.218       63.391       56.931     5657.787     4018.387     3241.165        1.633        0.646      117.513       48.363        0.169      341.896       16.926      864.884
05/09/2013  10:02:00      106.842       13.654       20.997       87.246       90.385       61.280     7611.862     8169.506     3755.238        1.579        0.977      107.711       25.630        0.057      341.612       16.445      864.880
05/09/2013  10:03:00       64.545      -11.650       44.113       64.160       76.280       38.997     4116.445     5818.621     1520.762        0.885        0.573       65.588       19.154        0.085      341.626       16.470      864.888
05/09/2013  10:04:00       98.389       58.987       13.162       48.252       40.470       42.540     2328.258     1637.813     1809.618        0.955        0.289      114.716       24.247        0.045      341.737       16.657      864.885
05/09/2013  10:05:00       69.507       56.401       21.523       43.235       31.849       36.221     1869.285     1014.369     1311.985        0.633        0.210       89.512       18.746        0.044      341.941       17.003      864.884
05/09/2013  10:06:00        0.886      -11.462       44.284       45.525       59.698       37.289     2072.514     3563.820     1390.502        0.456        0.351       11.497       12.845        1.248      342.151       17.360      864.886
05/09/2013  10:07:00       58.160       77.784       65.848       77.023       58.863       43.962     5932.486     3464.835     1932.679        1.255        0.567       97.124       29.350        0.091      341.914       16.958      864.899
05/09/2013  10:08:00       87.731       50.004        6.161       61.348       57.713       41.076     3763.580     3330.848     1687.207        0.951        0.439      100.981       19.106        0.036      341.512       16.276      864.917
05/09/2013  10:09:00       42.157       19.207       15.713       52.673       57.577       29.947     2774.421     3315.094      896.803        0.469        0.349       46.326       26.173        0.319      341.741       16.664      864.933
05/09/2013  10:10:00        3.526      -16.874        7.105       19.268       28.102       23.386      371.247      789.750      546.897        0.103        0.085       17.239       12.435        0.520      342.142       17.346      864.940
05/09/2013  10:11:00        3.553      -30.564       23.283       23.388       35.689       33.460      546.989     1273.729     1119.567        0.221        0.147       30.770       26.029        0.716      342.204       17.451      864.949
05/09/2013  10:12:00        5.255       14.167       48.564       29.964       24.509       31.612      897.819      600.704      999.301        0.254        0.125       15.110       19.740        1.707      342.422       17.821      864.943
05/09/2013  10:13:00       44.957       58.200       38.744       36.174       31.965       37.293     1308.559     1021.777     1390.760        0.531        0.186       73.542       22.901        0.097      341.807       16.777      864.948
05/09/2013  10:14:00       21.656      -21.051       42.392       44.882       60.420       34.946     2014.364     3650.589     1221.242        0.480        0.344       30.201       29.861        0.978      342.148       17.355      864.950
05/09/2013  10:15:00       58.363       71.237       90.254       69.048       45.877       34.885     4767.688     2104.665     1216.987        1.236        0.404       92.092       14.347        0.024      342.236       17.505      864.949
05/09/2013  10:16:00       15.227       67.734       69.138       58.890       76.901       63.392     3468.054     5913.830     4018.551        1.150        0.670       69.424       47.573        0.470      342.227       17.489      864.944
05/09/2013  10:17:00       70.190       56.815       21.941       67.242       52.524       45.845     4521.514     2758.802     2101.807        0.901        0.469       90.303       31.105        0.119      342.201       17.445      864.963
05/09/2013  10:18:00      108.198       93.185       -1.116       61.882       50.949       40.619     3829.372     2595.781     1649.872        1.423        0.404      142.794       26.839        0.035      341.815       16.790      864.962
05/09/2013  10:19:00       74.357       91.687       -4.003       76.701       68.079       58.520     5883.073     4634.745     3424.636        1.394        0.697      118.049       45.857        0.151      341.875       16.889      864.957
05/09/2013  10:20:00       44.505       49.796       11.436       38.578       46.015       36.679     1488.263     2117.390     1345.315        0.477        0.248       66.786       24.498        0.135      342.141       17.344      864.964
05/09/2013  10:21:00       -4.238       35.842        4.109       35.268       31.963       20.876     1243.798     1021.644      435.817        0.201        0.135       36.092       15.044        0.174      341.863       16.871      864.950
05/09/2013  10:22:00      -17.051       36.499        7.034       28.393       40.111       30.625      806.179     1608.874      937.871        0.251        0.168       40.286       21.143        0.275      342.508       17.968      864.941
05/09/2013  10:23:00       -2.015      -19.441        6.146       18.154       29.859       20.905      329.585      891.577      437.023        0.104        0.083       19.545       17.118        0.767      342.453       17.874      864.928
05/09/2013  10:24:00       12.819      -43.160       31.589       48.548       50.086       39.124     2356.951     2508.614     1530.714        0.471        0.320       45.024       17.836        0.157      342.464       17.892      864.914
05/09/2013  10:25:00       37.714       24.583       67.474       67.531       83.137       51.515     4560.456     6911.784     2653.795        1.035        0.706       45.019       39.416        0.767      342.610       18.140      864.886
05/09/2013  10:26:00       92.744     -110.268       -6.398       75.514       66.063       57.427     5702.313     4364.298     3297.857        1.708        0.668      144.085       52.205        0.131      342.049       17.187      864.900
05/09/2013  10:27:00       73.275      -79.412       23.911       67.930       68.799       51.354     4614.538     4733.346     2637.199        1.211        0.599      108.053       38.936        0.130      341.978       17.067      864.909
05/09/2013  10:28:00       56.298     -110.111        7.786       28.800       45.838       33.101      829.460     2101.165     1095.706        0.969        0.201      123.669       23.275        0.035      341.888       16.915      864.892
05/09/2013  10:29:00       58.614      -72.650      -10.252       33.438       63.703       43.949     1118.099     4058.128     1931.496        0.796        0.355       93.347       39.061        0.175      342.335       17.672      864.874
05/09/2013  10:30:00       19.402       44.703       12.746       34.030       60.357       43.514     1158.066     3643.004     1893.467        0.461        0.335       48.732       34.532        0.502      342.706       18.304      864.872
05/09/2013  10:31:00       57.505       12.523       24.789       68.653       44.837       41.585     4713.232     2010.324     1729.291        0.626        0.423       58.852       26.709        0.206      342.749       18.377      864.880
05/09/2013  10:32:00       37.856      115.512        6.356       79.734       61.444       44.481     6357.517     3775.337     1978.559        1.346        0.606      121.557       34.830        0.082      342.277       17.574      864.870
05/09/2013  10:33:00       -0.674       53.234       15.840       36.741       88.105       34.861     1349.933     7762.450     1215.261        0.670        0.516       53.239       40.690        0.584      342.612       18.145      864.880
05/09/2013  10:34:00       -8.045       46.333       -9.582       37.495       34.992       27.692     1405.859     1224.460      766.860        0.285        0.170       47.026        9.675        0.042      342.372       17.735      864.880
05/09/2013  10:35:00        3.394      -54.831       43.308       47.674       65.612       39.048     2272.801     4304.887     1524.730        0.650        0.405       54.936       20.506        0.139      342.738       18.357      864.872
05/09/2013  10:36:00        1.946      -99.914        9.496       35.676       60.083       42.702     1272.770     3609.956     1823.475        0.839        0.335       99.933        7.624        0.006      342.291       17.597      864.870
05/09/2013  10:37:00       15.941      -75.153       44.807       38.948       59.821       46.052     1516.946     3578.593     2120.827        0.756        0.361       76.825       24.307        0.100      342.639       18.191      864.862
05/09/2013  10:38:00      106.855       91.424       82.962       57.911       58.304       45.438     3353.680     3399.372     2064.581        1.774        0.441      140.628       22.592        0.026      342.137       17.337      864.876
05/09/2013  10:39:00       72.819       99.086       12.359       35.948       44.098       37.999     1292.279     1944.607     1443.949        0.998        0.234      122.966       21.176        0.030      341.832       16.819      864.884
05/09/2013  10:40:00       20.882       55.338       -4.761       35.230       56.267       22.511     1241.185     3166.025      506.764        0.422        0.246       59.147       17.386        0.086      342.125       17.315      864.891
05/09/2013  10:41:00       -7.508       32.342        7.850       23.870       41.150       23.015      569.767     1693.285      529.675        0.198        0.140       33.202       19.976        0.362      342.566       18.067      864.882
05/09/2013  10:42:00      -22.728       65.245       10.587       22.275       46.103       30.303      496.185     2125.452      918.272        0.421        0.177       69.091       29.279        0.180      342.678       18.257      864.879
05/09/2013  10:43:00      -43.478        3.054       -6.721       37.265       33.821       25.151     1388.656     1143.853      632.573        0.255        0.158       43.585       21.977        0.254      342.306       17.624      864.872
05/09/2013  10:44:00       -8.752       20.863        2.387       35.757       34.381       32.642     1278.587     1182.046     1065.514        0.202        0.176       22.624       21.055        0.866      342.669       18.240      864.870
05/09/2013  10:45:00     -109.611       28.808       -7.157       51.808       40.347       26.150     2684.084     1627.908      683.819        0.894        0.250      113.334       24.259        0.046      342.635       18.184      864.848
05/09/2013  10:46:00     -170.034      -52.422      -13.791       37.257       62.704       29.495     1388.101     3931.773      869.970        1.902        0.309      177.931       19.003        0.011      342.055       17.197      864.844
05/09/2013  10:47:00      -73.691      -77.323       -4.961       41.104       42.538       20.050     1689.523     1809.484      402.021        0.767        0.195      106.814       18.806        0.031      342.070       17.222      864.828
05/09/2013  10:48:00      -86.061      -37.319       -5.855       62.959       48.293       32.224     3963.871     2332.178     1038.370        0.808        0.367       93.804       34.657        0.137      342.376       17.742      864.827
05/09/2013  10:49:00       -1.044        2.471       14.146       66.005       64.634       42.568     4356.702     4177.555     1812.011        0.528        0.517        2.683       50.851      359.314      342.437       17.846      864.821
05/09/2013  10:50:00      128.856      145.065      131.510       79.042       74.926       77.228     6247.567     5613.870     5964.192        3.638        0.891      194.030       66.741        0.118      342.572       18.072      864.805
05/09/2013  10:51:00      157.828      123.840       95.423       75.430       52.914       63.408     5689.623     2799.915     4020.518        3.093        0.626      200.615       45.845        0.052      342.257       17.537      864.797
05/09/2013  10:52:00       65.946        2.433       50.238       70.723       75.831       61.708     5001.688     5750.363     3807.840        1.072        0.728       65.991       62.957        0.910      342.619       18.155      864.811
05/09/2013  10:53:00       53.609      -48.291       37.770       48.603       80.059       54.599     2362.240     6409.523     2981.064        0.919        0.588       72.153       51.864        0.517      342.705       18.302      864.808
05/09/2013  10:54:00       -2.380       30.491       40.401       34.263       49.063       49.459     1173.951     2407.133     2446.207        0.430        0.301       30.584       37.720        1.521      342.597       18.117      864.797
05/09/2013  10:55:00       10.013      -57.962        6.679       32.752       34.070       40.853     1072.704     1160.770     1668.960        0.370        0.195       58.820       12.841        0.048      343.117       19.004      864.778
05/09/2013  10:56:00       40.173       71.317      106.848       86.454       81.301       58.827     7474.281     6609.794     3460.628        1.783        0.877       81.853       55.132        0.454      343.261       19.247      864.789
05/09/2013  10:57:00      115.416       46.161       39.676       70.600       57.769       49.042     4984.306     3337.272     2405.142        1.387        0.536      124.305       34.133        0.075      342.691       18.278      864.791
05/09/2013  10:58:00       93.069      172.638      143.715       95.047       81.156       80.685     9033.965     6586.364     6510.035        4.062        1.107      196.126       64.045        0.107      342.669       18.237      864.772
05/09/2013  10:59:00      143.899       82.120       54.612       83.516       76.135       61.206     6974.884     5796.556     3746.174        2.347        0.826      165.682       41.059        0.061      342.987       18.781      864.776
05/09/2013  11:00:00       38.760      140.116      142.516       81.356       71.412       70.643     6618.852     5099.613     4990.406        2.907        0.835      145.379       62.072        0.182      343.344       19.388      864.778
05/09/2013  11:01:00       19.611      124.646      152.913       59.343       73.652       42.617     3521.648     5424.606     1816.181        2.503        0.538      126.180       44.153        0.122      343.152       19.061      864.791
05/09/2013  11:02:00       70.522      -27.384       39.766       54.567       76.456       62.120     2977.587     5845.515     3858.859        0.999        0.634       75.652       56.274        0.553      343.081       18.941      864.817
05/09/2013  11:03:00        4.095      -16.459       43.702       34.511       48.559       36.917     1191.041     2357.995     1362.878        0.355        0.246       16.961       30.724        3.281      343.226       19.188      864.818
05/09/2013  11:04:00        8.774      -34.372       53.945       41.127      110.534       64.985     1691.424    12217.736     4222.996        1.115        0.907       35.475       76.228        4.617      343.355       19.406      864.814
05/09/2013  11:05:00      132.882      111.325       81.631       91.258       51.611       58.994     8328.004     2663.648     3480.335        2.559        0.724      173.352       50.881        0.086      342.707       18.303      864.822
05/09/2013  11:06:00       63.870      -28.906       39.167       54.133       75.923       43.620     2930.329     5764.250     1902.715        0.852        0.530       70.107       42.886        0.374      342.911       18.652      864.839
05/09/2013  11:07:00       12.573      -99.451        3.111       47.046       29.814       26.536     2213.282      888.858      704.182        0.693        0.190      100.242       10.450        0.011      342.430       17.833      864.837
05/09/2013  11:08:00       -1.872      -24.338       26.766       24.668       56.584       35.267      608.501     3201.796     1243.729        0.318        0.253       24.410       28.341        1.348      343.494       19.646      864.821
05/09/2013  11:09:00       90.981       79.670       36.687       81.797       52.130       50.089     6690.752     2717.550     2508.941        1.394        0.596      120.934       31.033        0.066      343.098       18.970      864.833
05/09/2013  11:10:00      112.288       89.827       18.716       48.183       52.012       63.592     2321.595     2705.206     4043.948        1.505        0.454      143.797       33.746        0.055      342.514       17.976      864.825
05/09/2013  11:11:00       96.250       59.395       13.249       48.997       53.328       39.050     2400.709     2843.858     1524.887        0.987        0.338      113.101       36.700        0.105      342.542       18.023      864.817
05/09/2013  11:12:00       73.651      104.343       97.374       61.416       54.462       51.824     3771.964     2966.074     2685.709        1.761        0.471      127.718       42.254        0.109      342.843       18.535      864.809
05/09/2013  11:13:00      153.862       83.849       27.564       61.515       58.631       47.168     3784.085     3437.594     2224.797        2.045        0.472      175.226       27.730        0.025      342.595       18.113      864.804
05/09/2013  11:14:00      148.126      120.168       45.278      104.293       67.827       69.955    10877.028     4600.542     4893.684        2.940        1.019      190.740       32.982        0.030      342.970       18.751      864.786
05/09/2013  11:15:00      167.367       56.682       25.582       90.998       60.977       67.507     8280.632     3718.142     4557.183        2.421        0.828      176.705       39.932        0.051      342.595       18.113      864.812
05/09/2013  11:16:00       49.617       28.505       19.021       31.359       44.628       35.316      983.397     1991.617     1247.225        0.393        0.211       57.223       21.832        0.146      342.759       18.395      864.810
05/09/2013  11:17:00       79.262      109.105      109.963       78.325       88.620       74.558     6134.844     7853.567     5558.966        2.491        0.977      134.857       71.941        0.285      343.043       18.875      864.804
05/09/2013  11:18:00      166.809      118.303       66.795       72.446       59.792       68.946     5248.381     3575.060     4753.537        2.993        0.679      204.501       48.929        0.057      342.608       18.135      864.807
05/09/2013  11:19:00       51.940      -24.629       32.584       71.818       79.465       51.980     5157.803     6314.756     2701.922        0.927        0.709       57.484       46.912        0.666      342.962       18.740      864.820
05/09/2013  11:20:00        8.023      -86.726       -6.291       31.901       44.764       24.874     1017.672     2003.841      618.711        0.563        0.182       87.097       24.353        0.078      342.674       18.249      864.811
05/09/2013  11:21:00       34.437       -0.709       47.353       45.794       70.907       52.613     2097.075     5027.844     2768.077        0.666        0.495       34.444       54.637        2.516      343.280       19.281      864.801
05/09/2013  11:22:00      121.193        9.752       76.664       66.889       63.104       55.001     4474.105     3982.114     3025.084        1.607        0.574      121.584       42.403        0.122      343.203       19.149      864.804
05/09/2013  11:23:00      116.335       35.499       56.504       71.032      104.184       45.394     5045.492    10854.366     2060.638        1.797        0.898      121.631       52.441        0.186      343.038       18.867      864.792
05/09/2013  11:24:00       89.003       21.997       70.843       70.616      106.260       81.870     4986.687    11291.180     6702.750        1.820        1.149       91.681       70.384        0.589      343.209       19.159      864.793
05/09/2013  11:25:00       77.295     -153.248      -37.267       50.125       64.696       35.652     2512.518     4185.513     1271.058        1.941        0.398      171.638       33.416        0.038      342.928       18.679      864.798
05/09/2013  11:26:00       52.093      -67.682        5.918       49.102       41.868       49.564     2410.996     1752.952     2456.617        0.697        0.331       85.408       40.899        0.229      342.969       18.751      864.804
05/09/2013  11:27:00      -50.480       12.656       10.667       55.377       26.774       28.239     3066.631      716.859      797.428        0.370        0.229       52.042       30.286        0.339      343.074       18.930      864.801
05/09/2013  11:28:00      -86.720      -31.614        0.065       36.573       55.303       21.688     1337.560     3058.434      470.368        0.669        0.243       92.303       14.271        0.024      342.700       18.292      864.784
05/09/2013  11:29:00      -72.029       38.462       -5.552       27.900       24.679       22.004      778.391      609.030      484.170        0.428        0.094       81.655       19.659        0.058      342.785       18.438      864.767
05/09/2013  11:30:00      -43.660       19.892        8.756       29.997       34.697       24.063      899.798     1203.879      579.018        0.253        0.134       47.978       23.377        0.237      343.026       18.849      864.759
05/09/2013  11:31:00      -28.844      -28.654       -2.290       43.703       32.716       30.045     1909.968     1070.317      902.712        0.277        0.194       40.657       13.597        0.112      343.279       19.278      864.741
05/09/2013  11:32:00      -96.534      -66.295        7.655       75.451       64.567       35.157     5692.855     4168.949     1236.013        1.243        0.555      117.106       40.842        0.122      343.131       19.028      864.736
05/09/2013  11:33:00      -58.916      -57.842        9.338       70.811       46.461       35.740     5014.144     2158.609     1277.382        0.768        0.423       82.564       26.846        0.106      343.358       19.414      864.729
05/09/2013  11:34:00      -12.677      -64.242      -28.792       45.210       38.665       34.897     2043.986     1494.962     1217.780        0.494        0.238       65.481       25.114        0.147      343.125       19.016      864.732
05/09/2013  11:35:00       -5.428      -53.640       -5.518       62.298       54.376       32.294     3881.070     2956.709     1042.902        0.541        0.394       53.914       27.236        0.255      343.670       19.947      864.723
05/09/2013  11:36:00      -71.135      -64.814       17.756       90.376       46.296       40.339     8167.836     2143.329     1627.249        1.076        0.597       96.234       32.408        0.113      343.523       19.696      864.704
05/09/2013  11:37:00      -38.378      -26.225       22.763       48.388       43.921       30.989     2341.415     1929.059      960.301        0.395        0.262       46.483       16.662        0.128      343.629       19.877      864.713
05/09/2013  11:38:00      -19.882      -30.117       10.981       56.032       41.307       31.355     3139.542     1706.308      983.111        0.362        0.291       36.088       26.176        0.526      343.838       20.232      864.696
05/09/2013  11:39:00      -31.544      -24.140        0.010       31.411       49.762       18.581      986.667     2476.278      345.249        0.269        0.190       39.721       15.146        0.145      343.139       19.041      864.705
05/09/2013  11:40:00      -75.647       17.391       -5.518       31.944       26.947       16.854     1020.398      726.157      284.057        0.404        0.102       77.620       16.236        0.044      342.895       18.624      864.697
05/09/2013  11:41:00       -5.625      -15.990        7.282       48.179       53.109       45.099     2321.201     2820.555     2033.921        0.376        0.359       16.950       29.300        2.988      343.926       20.383      864.689
05/09/2013  11:42:00      124.231     -140.587      -12.993       72.159       94.504       47.948     5206.916     8930.917     2299.033        2.590        0.822      187.611       49.172        0.069      343.581       19.791      864.670
05/09/2013  11:43:00       74.196      -63.829       26.192       75.875      104.664       59.439     5757.030    10954.450     3533.025        1.525        1.012       97.874       45.746        0.218      343.878       20.298      864.669
05/09/2013  11:44:00       63.907       43.074       88.569       72.531       79.262       48.658     5260.760     6282.390     2367.604        1.385        0.696       77.068       42.708        0.307      344.235       20.911      864.665
05/09/2013  11:45:00      131.227      -39.442       49.595       74.966      111.735       59.444     5619.861    12484.811     3533.608        2.143        1.082      137.026       48.199        0.124      343.709       20.010      864.680
05/09/2013  11:46:00       58.343       21.118       85.837       93.324      113.018       81.359     8709.411    12773.012     6619.305        1.966        1.405       62.047       82.811        1.781      343.928       20.383      864.668
05/09/2013  11:47:00       79.320      -62.329       60.758       66.222      128.157       72.900     4385.354    16424.304     5314.474        1.999        1.306      100.879       61.823        0.376      343.927       20.384      864.679
05/09/2013  11:48:00      148.672      109.146       62.890      102.204       69.144       76.285    10445.624     4780.945     5819.413        2.951        1.052      184.435       68.320        0.137      343.313       19.334      864.683
05/09/2013  11:49:00       43.176       59.844       82.279       68.260       69.395       42.316     4659.458     4815.717     1790.610        1.174        0.563       73.793       33.903        0.211      343.819       20.199      864.688
05/09/2013  11:50:00       71.906      -46.026       32.253       74.868       76.321       52.662     5605.259     5824.851     2773.316        1.126        0.710       85.375       45.081        0.279      343.841       20.238      864.683
05/09/2013  11:51:00       50.143      -85.479       38.291       47.754      102.172       48.615     2280.427    10439.028     2363.421        1.318        0.754       99.101       53.324        0.290      343.680       19.962      864.689
05/09/2013  11:52:00      100.832     -150.999      -21.767       66.192       79.683       49.785     4381.326     6349.443     2478.521        2.332        0.660      181.570       51.080        0.079      343.492       19.640      864.679
05/09/2013  11:53:00       98.255      -88.525       -6.737       53.107       73.720       39.152     2820.304     5434.572     1532.875        1.366        0.489      132.252       38.059        0.083      343.037       18.866      864.693
05/09/2013  11:54:00       58.923       10.812       22.002       34.340       64.034       36.470     1179.224     4100.379     1330.045        0.534        0.330       59.907       36.080        0.363      343.235       19.203      864.678
05/09/2013  11:55:00       -7.044     -139.842      -12.988       57.676       30.143       27.276     3326.569      908.600      743.969        1.238        0.249      140.019       25.569        0.033      343.135       19.033      864.661
05/09/2013  11:56:00      -83.794      -18.892      -25.696       46.914       41.501       23.218     2200.933     1722.329      539.096        0.625        0.223       85.897       10.966        0.016      342.812       18.483      864.650
05/09/2013  11:57:00      -40.227       -4.816       17.017       41.506       65.951       37.666     1722.728     4349.478     1418.695        0.471        0.375       40.514       35.553        0.770      343.481       19.624      864.624
05/09/2013  11:58:00      -42.087      -17.405       -5.104       31.213       56.971       27.173      974.241     3245.675      738.390        0.353        0.248       45.544       23.364        0.263      343.594       19.816      864.609
05/09/2013  11:59:00       34.298      -71.185       24.639       47.390       82.105       48.721     2245.835     6741.276     2373.742        0.910        0.568       79.017       35.925        0.207      343.708       20.011      864.617
05/09/2013  12:00:00       18.148      -70.147      -10.460       47.984       53.728       28.402     2302.425     2886.684      806.673        0.568        0.300       72.457       30.477        0.177      342.935       18.692      864.619
05/09/2013  12:01:00       25.567       36.552       97.108       62.477       91.164       63.384     3903.359     8310.880     4017.521        1.382        0.812       44.606       46.758        1.099      344.080       20.646      864.591
05/09/2013  12:02:00       21.913       -7.989       63.938       37.929       43.932       41.628     1438.590     1930.047     1732.910        0.487        0.255       23.324       26.192        1.261      344.178       20.814      864.621
05/09/2013  12:03:00       49.115       45.152       58.971       80.239       62.026       47.939     6438.220     3847.236     2298.142        1.025        0.629       66.715       42.280        0.402      343.907       20.348      864.604
05/09/2013  12:04:00      233.659      145.034       55.379       85.965       50.338       66.763     7390.063     2533.950     4457.281        4.654        0.719      275.011       58.116        0.045      343.215       19.166      864.606
05/09/2013  12:05:00       84.899       40.343       17.807       84.587       44.822       37.885     7155.011     2008.979     1435.256        0.987        0.530       93.997       36.290        0.149      343.450       19.569      864.600
05/09/2013  12:06:00       96.414       65.722       94.128      129.758      112.253       55.469    16837.191    12600.667     3076.764        2.749        1.626      116.684       58.270        0.249      344.142       20.749      864.573
05/09/2013  12:07:00      147.930      136.212      106.483      126.960      100.330       96.233    16118.872    10066.161     9260.707        4.360        1.772      201.090       83.901        0.174      343.599       19.822      864.578
05/09/2013  12:08:00       15.364       36.268       69.411       48.924       97.546       64.165     2393.595     9515.306     4117.150        1.120        0.801       39.388       60.358        2.348      343.971       20.459      864.561
05/09/2013  12:09:00       73.196       70.276       98.461       73.687       87.944       62.391     5429.794     7734.226     3892.577        1.852        0.853      101.471       57.787        0.324      344.001       20.509      864.557
05/09/2013  12:10:00      106.350      -35.519       52.683       81.262      105.177       60.591     6603.588    11062.283     3671.253        1.834        1.067      112.125       70.982        0.401      343.841       20.240      864.551
05/09/2013  12:11:00       57.096       20.645       75.570       69.362      110.941       59.769     4811.035    12307.904     3572.345        1.504        1.035       60.714       65.843        1.176      343.945       20.414      864.531
05/09/2013  12:12:00       87.182      -42.427       44.063       75.908       95.165       70.171     5762.047     9056.376     4923.939        1.554        0.987       96.957       72.647        0.561      344.137       20.741      864.531
05/09/2013  12:13:00       56.822      -42.861       35.873       59.000       98.284       49.451     3480.990     9659.703     2445.433        1.097        0.779       71.174       60.829        0.730      343.700       19.997      864.530
05/09/2013  12:14:00       64.316       35.849       47.468       71.385       67.382       43.316     5095.804     4540.390     1876.258        0.959        0.576       73.632       42.438        0.332      344.381       21.160      864.528
05/09/2013  12:15:00      106.130       41.615       23.067       55.549       66.448       38.821     3085.637     4415.397     1507.033        1.127        0.450      113.997       23.780        0.044      343.224       19.185      864.531
05/09/2013  12:16:00       31.269       58.704       15.706       47.034       66.991       35.295     2212.157     4487.859     1245.737        0.631        0.397       66.512       31.959        0.231      343.819       20.201      864.516
05/09/2013  12:17:00       -3.558      -18.349       -9.069       26.866       34.260       22.919      721.789     1173.776      525.279        0.143        0.121       18.691       17.071        0.834      343.316       19.342      864.513
05/09/2013  12:18:00     -103.675       47.286      -13.682       66.187       51.692       35.719     4380.676     2672.024     1275.866        1.075        0.416      113.949       24.674        0.047      343.517       19.685      864.476
05/09/2013  12:19:00     -110.348       88.972      -20.051       64.934       55.500       34.010     4216.409     3080.240     1156.669        1.447        0.423      141.748       32.975        0.054      343.360       19.416      864.464
05/09/2013  12:20:00     -116.780      100.301      -28.762       34.711       50.162       28.186     1204.882     2516.189      794.439        1.452        0.226      153.941       17.041        0.012      343.472       19.607      864.459
05/09/2013  12:21:00      -84.633      142.217      -28.895       43.006       76.385       33.511     1849.481     5834.627     1122.980        1.851        0.440      165.494       28.879        0.030      343.512       19.674      864.449
05/09/2013  12:22:00      -10.598      142.271      -22.260       54.692       73.318       30.711     2991.201     5375.502      943.195        1.508        0.465      142.665       26.394        0.034      343.836       20.230      864.444
05/09/2013  12:23:00      -84.626       91.582      -11.531       34.671       52.954       30.157     1202.105     2804.090      909.474        1.030        0.246      124.695       23.216        0.035      343.593       19.816      864.446
05/09/2013  12:24:00     -112.346       26.893      -12.414       51.781       63.614       29.856     2681.232     4046.709      891.386        1.056        0.381      115.520       25.364        0.048      343.461       19.588      864.433
05/09/2013  12:25:00      -94.520       63.443      -27.000       67.569       40.721       29.076     4565.536     1658.194      845.391        1.038        0.353      113.838       22.738        0.040      343.620       19.859      864.434
05/09/2013  12:26:00      -42.190      -12.682        1.206       56.755       66.350       34.482     3221.139     4402.293     1189.016        0.538        0.441       44.055       23.803        0.292      344.316       21.048      864.424
05/09/2013  12:27:00      -16.524      -87.271       -4.042       49.850       64.105       42.686     2485.049     4109.495     1822.092        0.816        0.421       88.822       35.174        0.157      344.097       20.675      864.425
05/09/2013  12:28:00       23.207     -102.127       13.924       70.190       84.331       48.048     4926.702     7111.699     2308.565        1.275        0.717      104.730       58.239        0.309      344.269       20.966      864.410
05/09/2013  12:29:00       52.218     -155.580       -4.974      126.531      110.151       66.233    16010.202    12133.223     4386.853        2.974        1.627      164.109       82.363        0.252      343.972       20.460      864.397
05/09/2013  12:30:00      145.900     -177.345      -46.666       59.482       60.781       37.459     3538.130     3694.342     1403.147        3.177        0.432      229.648       28.338        0.015      343.623       19.862      864.399
05/09/2013  12:31:00       76.346     -104.882      -14.535       67.349       68.512       54.405     4535.918     4693.830     2959.934        1.461        0.609      129.726       39.104        0.091      343.897       20.331      864.399
05/09/2013  12:32:00       32.326     -152.138       -6.008       56.361       69.606       38.014     3176.583     4845.064     1445.093        1.685        0.473      155.534       30.642        0.039      343.579       19.789      864.394
05/09/2013  12:33:00       -1.981      -22.986       20.892       28.738       40.526       24.930      825.874     1642.364      621.493        0.203        0.154       23.071       25.737        1.244      344.556       21.460      864.381
05/09/2013  12:34:00      -45.730      -44.751        4.664       30.841       54.666       24.055      951.173     2988.363      578.625        0.432        0.226       63.983       17.272        0.073      344.478       21.324      864.376
05/09/2013  12:35:00       97.406      -71.356       11.850       58.853       72.590       45.100     3463.732     5269.348     2034.033        1.274        0.538      120.746       48.655        0.162      344.163       20.787      864.357
05/09/2013  12:36:00        9.934       54.112       89.362       44.745       52.852       43.268     2002.080     2793.295     1872.105        0.884        0.333       55.016       36.429        0.438      344.664       21.643      864.345
05/09/2013  12:37:00       79.420       41.832       69.434       66.045      106.403       59.236     4361.936    11321.657     3508.908        1.603        0.960       89.763       66.836        0.554      344.215       20.875      864.327
05/09/2013  12:38:00      141.600      132.185       54.716      107.653       76.984       83.816    11589.073     5926.604     7025.151        3.252        1.227      193.710       58.152        0.090      344.457       21.286      864.323
05/09/2013  12:39:00       90.564      202.895       -8.685      104.772      104.601       69.683    10977.241    10941.458     4855.678        3.810        1.339      222.189       52.398        0.056      344.312       21.037      864.333
05/09/2013  12:40:00       46.545      210.223      -10.195       79.731      107.341       63.013     6357.097    11522.129     3970.595        3.415        1.092      215.314       60.395        0.079      344.276       20.977      864.345
05/09/2013  12:41:00       94.474       74.302       34.474       83.321       57.666       51.196     6942.338     3325.390     2621.049        1.426        0.644      120.192       42.610        0.126      344.265       20.959      864.340
05/09/2013  12:42:00      -75.737      108.559      -16.033      108.081       61.686       39.221    11681.453     3805.194     1538.308        1.740        0.851      132.368       25.950        0.038      344.143       20.751      864.329
05/09/2013  12:43:00     -130.568      104.445      -15.209      101.281       78.515       51.949    10257.805     6164.569     2698.665        2.365        0.956      167.203       48.506        0.084      344.233       20.906      864.336
05/09/2013  12:44:00     -109.724      111.558      -19.553       86.793      105.051       50.164     7533.009    11035.658     2516.395        2.297        1.054      156.475       48.902        0.098      344.253       20.940      864.318
05/09/2013  12:45:00      -48.267      166.911      -12.684       50.215       72.951       44.636     2521.500     5321.907     1992.395        2.009        0.492      173.750       35.567        0.042      344.242       20.919      864.310
05/09/2013  12:46:00      -44.484      257.630      -12.280       54.246      114.449       45.570     2942.681    13098.482     2076.625        4.331        0.906      261.443       54.774        0.044      343.917       20.366      864.319
05/09/2013  12:47:00       -8.439      110.399       19.756       34.765       65.539       42.641     1208.584     4295.413     1818.263        0.998        0.366      110.721       30.646        0.077      344.331       21.074      864.311
05/09/2013  12:48:00      -23.047      100.213        0.454       25.597       78.760       38.529      655.219     6203.126     1484.508        0.946        0.417      102.829       43.924        0.182      344.262       20.957      864.312
05/09/2013  12:49:00       25.203       78.508       10.971       52.822       68.032       46.089     2790.124     4628.351     2124.220        0.823        0.477       82.455       43.016        0.272      344.124       20.720      864.310
05/09/2013  12:50:00       71.368       69.461       27.700       62.378       53.384       42.489     3890.962     2849.863     1805.349        0.961        0.427       99.590       24.240        0.059      344.072       20.632      864.322
05/09/2013  12:51:00       69.006       72.836       19.711       93.458       78.034       49.645     8734.450     6089.313     2464.663        1.387        0.864      100.334       41.597        0.172      344.141       20.748      864.320
05/09/2013  12:52:00       77.397       88.602       62.748      104.677       49.397       50.716    10957.191     2440.079     2572.094        1.687        0.798      117.646       52.591        0.200      344.110       20.693      864.312
05/09/2013  12:53:00      134.793       95.797       62.313      114.917       59.383       74.314    13206.011     3526.290     5522.526        2.674        1.113      165.367       61.357        0.138      344.178       20.811      864.304
05/09/2013  12:54:00      122.395      105.129       56.381      106.353       67.540       58.806    11310.984     4561.691     3458.182        2.427        0.967      161.346       55.973        0.120      343.883       20.307      864.294
05/09/2013  12:55:00      190.136      145.523       34.833       99.943       81.140       79.155     9988.541     6583.657     6265.489        4.069        1.142      239.433       69.097        0.083      343.737       20.056      864.299
05/09/2013  12:56:00       43.948      -61.136       18.262       35.506       51.090       35.692     1260.689     2610.178     1273.915        0.557        0.257       75.293       31.982        0.180      343.868       20.282      864.265
05/09/2013  12:57:00       58.838       53.226       22.019       45.126       36.903       30.040     2036.317     1361.857      902.424        0.554        0.215       79.341       21.333        0.072      343.959       20.439      864.252
05/09/2013  12:58:00      121.514       81.586       33.681       69.058       53.492       45.960     4768.950     2861.372     2112.304        1.615        0.487      146.362       32.482        0.049      344.026       20.552      864.258
05/09/2013  12:59:00      134.191       79.126       17.963       67.815       40.187       40.636     4598.833     1615.018     1651.293        1.623        0.393      155.783       29.706        0.036      343.962       20.443      864.263
05/09/2013  13:00:00        2.545       -3.854       13.564       50.269       85.462       34.664     2526.978     7303.723     1201.597        0.562        0.552        4.618       16.148       12.225      344.054       20.600      864.238
05/09/2013  13:01:00       85.384      102.003       41.845      107.821       84.272       73.876    11625.298     7101.831     5457.716        2.181        1.209      133.023       26.464        0.040      344.062       20.612      864.248
05/09/2013  13:02:00      155.228       87.185       72.518      132.569       93.530       78.654    17574.496     8747.892     6186.381        3.473        1.625      178.036       68.091        0.146      343.898       20.331      864.228
05/09/2013  13:03:00      298.519      144.332       12.277      158.407      120.441       97.174    25092.797    14506.088     9442.827        7.956        2.452      331.580       45.592        0.019      343.893       20.321      864.196
05/09/2013  13:04:00      168.342      103.910       43.251       85.238       76.390       64.465     7265.552     5835.386     4155.676        2.913        0.863      197.830       51.629        0.068      344.125       20.720      864.213
05/09/2013  13:05:00       79.120      118.784       17.188      117.212       78.506       56.251    13738.697     6163.259     3164.153        2.186        1.153      142.722       49.686        0.121      344.359       21.120      864.193
05/09/2013  13:06:00      137.946      154.867       69.852      145.758       89.452       93.153    21245.443     8001.651     8677.416        4.290        1.896      207.396       38.958        0.035      344.447       21.267      864.186
05/09/2013  13:07:00      163.444      145.395      111.721      105.355       86.903       86.672    11099.615     7552.117     7512.024        4.325        1.308      218.755       66.751        0.093      344.134       20.733      864.178
05/09/2013  13:08:00      126.409      151.025      112.873      127.187       98.108       81.247    16176.524     9625.217     6601.062        4.196        1.620      196.946       77.245        0.154      344.291       21.003      864.171
05/09/2013  13:09:00       65.725       45.844       54.971       97.045       76.971       69.760     9417.800     5924.521     4866.392        1.482        1.010       80.134       52.188        0.424      344.556       21.458      864.175
05/09/2013  13:10:00       32.224       69.904      111.224       70.311      105.717       82.372     4943.664    11176.165     6785.181        2.060        1.145       76.973       78.841        1.049      344.547       21.442      864.181
05/09/2013  13:11:00       13.062      -15.202       43.751       45.017       79.074       39.366     2026.575     6252.769     1549.675        0.607        0.491       20.043       36.626        3.339      344.706       21.716      864.178
05/09/2013  13:12:00       83.485       65.637       57.808       63.354       56.819       58.644     4013.738     3228.423     3439.130        1.265        0.534      106.198       28.142        0.070      344.932       22.101      864.176
05/09/2013  13:13:00      129.277       97.131       71.274       81.027       51.316       54.710     6565.409     2633.357     2993.201        2.171        0.610      161.700       19.151        0.014      344.528       21.409      864.163
05/09/2013  13:14:00       64.713       21.872       69.611       54.200      108.404       65.107     2937.642    11751.490     4238.945        1.422        0.946       68.309       73.244        1.150      344.269       20.966      864.148
05/09/2013  13:15:00      117.980     -111.606       -5.188       78.448       97.462       57.367     6154.026     9498.843     3291.026        2.267        0.947      162.405       67.257        0.172      344.231       20.902      864.133
05/09/2013  13:16:00        8.874      -72.711       24.610       39.562      106.525       44.887     1565.177    11347.591     2014.860        1.045        0.746       73.250       62.299        0.723      344.163       20.787      864.138
05/09/2013  13:17:00       91.146      -28.500       57.824      119.997      120.567       88.205    14399.349    14536.434     7780.193        2.458        1.836       95.498       83.904        0.772      344.646       21.610      864.127
05/09/2013  13:18:00      119.812       71.763       76.270       72.040       60.821       66.972     5189.831     3699.214     4485.308        1.935        0.669      139.660       56.120        0.161      344.091       20.664      864.137
05/09/2013  13:19:00      109.263      -18.692       35.675       85.760      108.863       58.823     7354.863    11851.151     3460.126        1.811        1.133      110.850       66.086        0.355      344.635       21.590      864.096
05/09/2013  13:20:00      100.815     -101.250       37.998      104.985      147.144       70.610    11021.844    21651.258     4985.732        2.975        1.883      142.882      101.956        0.509      344.377       21.150      864.086
05/09/2013  13:21:00       44.066      -29.745       44.112       74.085      106.179       51.590     5488.639    11273.953     2661.526        1.210        0.971       53.166       70.401        1.753      344.385       21.165      864.075
05/09/2013  13:22:00       72.188      -71.343       63.274       73.873      106.537       62.990     5457.153    11350.215     3967.776        1.754        1.039      101.493       63.439        0.391      344.857       21.972      864.038
05/09/2013  13:23:00       70.972      -25.743       81.743       72.161      141.100       72.491     5207.244    19909.215     5254.899        2.137        1.519       75.497       89.162        1.395      344.781       21.842      864.010
05/09/2013  13:24:00       70.087      -48.628       69.205      128.220      190.200      118.504    16440.295    36176.158    14043.175        3.935        3.333       85.305      147.610        2.994      344.545       21.438      864.000
05/09/2013  13:25:00      260.408     -281.645      -64.328       82.172      103.929       48.424     6752.219    10801.236     2344.848        8.558        0.995      383.584       35.008        0.008      344.093       20.665      863.990
05/09/2013  13:26:00      218.362     -318.635      -21.646       92.966       96.468       59.702     8642.604     9306.072     3564.386        8.559        1.076      386.277       62.730        0.026      343.921       20.370      864.020
05/09/2013  13:27:00      201.881     -228.723      -24.881       88.255       98.072       49.781     7788.928     9618.093     2478.197        5.678        0.994      305.074       36.951        0.015      344.224       20.888      864.023
05/09/2013  13:28:00       95.744       -0.150       35.170       76.013      109.930       58.177     5778.009    12084.527     3384.553        1.582        1.062       95.744       59.235        0.383      344.666       21.647      864.030
05/09/2013  13:29:00      146.689     -149.353       -4.032      100.856      142.858       61.325    10171.950    20408.371     3760.787        3.908        1.717      209.341       61.815        0.087      344.391       21.174      864.025
05/09/2013  13:30:00       37.947       -8.258       61.767       77.862       78.838       60.124     6062.454     6215.479     3614.878        1.061        0.795       38.836       55.498        2.042      344.802       21.879      864.038
05/09/2013  13:31:00      111.245      111.824      106.265      103.962       67.736       85.232    10808.015     4588.181     7264.429        2.941        1.133      157.734       71.312        0.204      344.390       21.173      864.038
05/09/2013  13:32:00      116.537       44.919       39.431       80.583       73.100       67.768     6493.628     5343.538     4592.557        1.679        0.821      124.895       57.240        0.210      344.641       21.602      864.017
05/09/2013  13:33:00       44.542      -30.907       12.793       44.530       74.144       37.138     1982.909     5497.361     1379.258        0.598        0.443       54.215       39.092        0.520      344.836       21.939      864.002
05/09/2013  13:34:00      -20.735      -67.024        8.146       69.005       54.254       34.610     4761.650     2943.481     1197.856        0.694        0.445       70.158       29.721        0.179      344.980       22.185      863.975
05/09/2013  13:35:00      -14.528       -6.948       14.934       39.712       24.756       27.486     1577.013      612.868      755.463        0.171        0.147       16.104       26.191        2.645      345.183       22.533      863.973
05/09/2013  13:36:00        9.260       28.058       25.954       29.949       31.275       33.362      896.970      978.155     1113.044        0.227        0.149       29.546       22.836        0.597      345.430       22.955      863.989
05/09/2013  13:37:00      -22.658      -35.327       16.714       43.989       35.939       28.630     1935.070     1291.624      819.672        0.304        0.202       41.968       18.971        0.204      344.782       21.844      863.987
05/09/2013  13:38:00       26.861       61.306       57.706       64.212       44.532       41.372     4123.206     1983.090     1711.665        0.781        0.391       66.933       33.899        0.257      344.974       22.174      863.957
05/09/2013  13:39:00       18.239      -21.906       31.469       45.155       92.167       33.908     2039.008     8494.846     1149.753        0.674        0.584       28.505       30.908        1.176      345.028       22.265      863.949
05/09/2013  13:40:00      107.815       78.133       25.900       84.358       71.168       60.031     7116.253     5064.851     3603.693        1.709        0.789      133.150       41.742        0.098      344.522       21.399      863.944
05/09/2013  13:41:00      108.250       69.139       17.999       96.707       64.725       37.274     9352.333     4189.297     1389.360        1.587        0.747      128.445       27.209        0.045      344.747       21.785      863.942
05/09/2013  13:42:00       66.651       71.600       68.679       88.223       55.203       68.880     7783.329     3047.348     4744.498        1.493        0.779       97.821       17.682        0.033      344.884       22.019      863.937
05/09/2013  13:43:00       84.245       38.765       92.752       78.323       80.870       49.484     6134.440     6540.005     2448.632        1.616        0.756       92.736       42.663        0.212      344.557       21.460      863.947
05/09/2013  13:44:00       95.363       82.146       64.208       74.508       46.012       64.724     5551.464     2117.098     4189.256        1.591        0.593      125.865       57.378        0.208      344.684       21.677      863.948
05/09/2013  13:45:00       67.161       62.744       11.677       52.671       40.875       36.214     2774.252     1670.757     1311.471        0.717        0.288       91.910       37.867        0.170      343.970       20.456      863.937
05/09/2013  13:46:00       48.533       55.310       51.653       59.191       56.288       38.649     3503.610     3168.362     1493.717        0.812        0.408       73.585       34.642        0.222      344.509       21.379      863.929
05/09/2013  13:47:00       16.463       51.811       -2.865       54.164       19.116       33.845     2933.714      365.434     1145.497        0.370        0.222       54.364       32.537        0.358      344.178       20.812      863.920
05/09/2013  13:48:00       -0.039       28.093       20.023       31.625       24.091       28.258     1000.135      580.387      798.511        0.178        0.119       28.093       28.136        1.003      345.335       22.793      863.892
05/09/2013  13:49:00       21.629       15.900       12.344       21.529       39.574       23.489      463.506     1566.109      551.724        0.173        0.129       26.844       13.204        0.242      345.288       22.711      863.897
05/09/2013  13:50:00      118.920      107.964       78.312      114.620       74.902       56.059    13137.700     5610.273     3142.662        2.691        1.095      160.619       26.875        0.028      344.872       21.998      863.896
05/09/2013  13:51:00      144.973       77.545       43.785       81.928       55.163       59.937     6712.253     3042.912     3592.456        2.115        0.667      164.410       45.637        0.077      344.457       21.289      863.880
05/09/2013  13:52:00       19.633       14.276       60.624       63.841       63.379       38.828     4075.729     4016.861     1507.639        0.693        0.480       24.275       31.770        1.713      344.928       22.094      863.886
05/09/2013  13:53:00       34.307      199.507      -16.797       68.673       94.890       51.087     4715.926     9004.166     2609.888        2.879        0.816      202.436       48.898        0.058      344.554       21.454      863.905
05/09/2013  13:54:00       60.196       47.181       16.877       72.619       61.323       58.202     5273.576     3760.455     3387.508        0.928        0.621       76.483       40.450        0.280      344.695       21.695      863.902
05/09/2013  13:55:00      -33.903      142.618       12.385       57.858      103.990       53.912     3347.547    10813.875     2906.523        1.935        0.853      146.592       58.975        0.162      344.553       21.452      863.927
05/09/2013  13:56:00      -21.747       52.517       10.495       28.286       49.179       24.535      800.120     2418.549      601.974        0.358        0.191       56.842       21.575        0.144      344.698       21.701      863.920
05/09/2013  13:57:00      -19.161       52.954       -1.709       48.167       46.662       29.963     2320.024     2177.361      897.760        0.428        0.270       56.315       18.222        0.105      344.830       21.927      863.913
05/09/2013  13:58:00       -2.937      122.845        5.303       77.419       66.936       51.858     5993.673     4480.452     2689.298        1.414        0.658      122.880       45.314        0.136      344.805       21.883      863.898
05/09/2013  13:59:00      135.048      133.929       29.888      108.277       59.386       51.662    11723.825     3526.670     2668.988        2.749        0.896      190.197       36.445        0.037      344.503       21.364      863.896
05/09/2013  14:00:00      156.496      100.550        9.059       68.236       73.226       55.125     4656.148     5362.034     3038.806        2.387        0.653      186.014       27.944        0.023      344.278       20.982      863.883
05/09/2013  14:01:00      141.263      130.290       12.531       90.318       72.773       55.564     8157.305     5295.970     3087.322        2.681        0.827      192.174       41.219        0.046      344.373       21.145      863.877
05/09/2013  14:02:00      148.797       89.144       34.225       95.692       70.659       46.598     9156.965     4992.724     2171.384        2.379        0.816      173.457       30.768        0.031      344.584       21.506      863.859
05/09/2013  14:03:00       72.094      134.936        2.611       66.191       94.612       50.165     4381.310     8951.384     2516.483        1.963        0.792      152.988       48.063        0.099      344.508       21.374      863.846
05/09/2013  14:04:00       32.973      182.273        7.914      108.430       98.725       51.908    11757.119     9746.603     2694.433        2.928        1.210      185.231       55.547        0.090      344.402       21.192      863.848
05/09/2013  14:05:00      151.700      102.078       12.508      104.087       75.162       56.186    10834.034     5649.396     3156.914        2.661        0.982      182.846       45.403        0.062      344.581       21.499      863.838
05/09/2013  14:06:00       44.487      151.959        4.439       95.758      103.852       55.310     9169.611    10785.152     3059.141        2.405        1.151      158.337       56.903        0.129      344.687       21.680      863.825
05/09/2013  14:07:00       28.904      190.250      -29.352       61.360       95.742       55.562     3765.075     9166.509     3087.083        2.695        0.801      192.433       53.645        0.078      344.545       21.438      863.800
05/09/2013  14:08:00      142.048       77.809       41.210       96.055       71.931       55.754     9226.608     5174.091     3108.553        2.272        0.875      161.963       34.471        0.045      344.621       21.567      863.786
05/09/2013  14:09:00       66.635       67.538       16.191       74.286       81.325       54.856     5518.423     6613.718     3009.132        1.220        0.757       94.877       48.790        0.264      344.512       21.382      863.768
05/09/2013  14:10:00       35.959      257.179      -32.963       58.548       99.931       51.719     3427.831     9986.295     2674.877        4.230        0.804      259.681       55.981        0.046      344.410       21.204      863.776
05/09/2013  14:11:00      -81.530      141.459      -22.431       96.639       64.295       38.646     9339.085     4133.813     1493.492        2.106        0.748      163.272       35.260        0.047      344.459       21.291      863.765
05/09/2013  14:12:00     -126.674      193.361      -45.254       82.652       79.285       41.076     6831.433     6286.118     1687.264        3.514        0.740      231.160       41.322        0.032      344.380       21.154      863.759
05/09/2013  14:13:00      -66.921      118.160      -13.277       42.649       61.329       34.620     1818.956     3761.305     1198.544        1.270        0.339      135.795       33.210        0.060      344.645       21.610      863.745
05/09/2013  14:14:00      -45.206       44.235        6.626       53.623       40.015       33.286     2875.409     1601.186     1107.937        0.481        0.279       63.248       31.970        0.255      344.976       22.178      863.727
05/09/2013  14:15:00       92.041       97.093        9.050      149.373       69.928       57.427    22312.149     4889.918     3297.878        2.424        1.525      133.785       39.980        0.089      344.684       21.676      863.730
05/09/2013  14:16:00      134.833       85.496       19.352      110.982       77.741       55.083    12317.043     6043.712     3034.090        2.363        1.070      159.655       32.487        0.041      344.852       21.963      863.713
05/09/2013  14:17:00      138.771      108.104        5.327       87.903       70.730       52.155     7726.858     5002.724     2720.192        2.321        0.772      175.909       29.458        0.028      344.368       21.134      863.716
05/09/2013  14:18:00      179.113       81.002       32.783       65.747       63.036       47.060     4322.688     3973.563     2214.676        2.511        0.526      196.578       32.888        0.028      344.546       21.440      863.696
05/09/2013  14:19:00      158.349       91.452       22.226       66.122       63.045       56.281     4372.133     3974.712     3167.539        2.272        0.576      182.860       28.590        0.024      344.439       21.256      863.680
05/09/2013  14:20:00       90.600       62.481       25.935       75.774       59.640       45.856     5741.744     3556.940     2102.768        1.209        0.570      110.056       40.048        0.132      344.681       21.672      863.663
05/09/2013  14:21:00        8.194      -62.975        6.349       44.488       45.449       45.260     1979.154     2065.607     2048.485        0.508        0.305       63.505       24.929        0.154      345.209       22.577      863.638
05/09/2013  14:22:00      107.216       75.754       25.292       74.241       64.222       45.168     5511.745     4124.414     2040.161        1.477        0.584      131.279       23.556        0.032      344.897       22.041      863.646
05/09/2013  14:23:00       92.876       41.579       18.308       83.218       63.960       39.676     6925.211     4090.859     1574.158        1.164        0.630      101.758       36.585        0.129      345.001       22.220      863.640
05/09/2013  14:24:00       18.126      112.874       15.735       88.694       86.730       59.986     7866.562     7522.104     3598.266        1.615        0.949      114.320       50.790        0.197      344.913       22.068      863.619
05/09/2013  14:25:00      -51.223      174.900       -8.060       62.365       98.261       44.434     3889.373     9655.269     1974.373        2.440        0.776      182.247       52.223        0.082      344.994       22.207      863.622
05/09/2013  14:26:00       51.767       75.128        6.767       84.878       50.207       39.424     7204.194     2520.780     1554.287        0.982        0.564       91.236       24.793        0.074      344.907       22.060      863.604
05/09/2013  14:27:00       84.046       76.565       16.231       68.767       35.605       41.436     4728.844     1267.735     1716.960        1.045        0.386      113.692       28.947        0.065      344.851       21.963      863.598
05/09/2013  14:28:00      117.336       88.438       31.602       80.387       58.998       54.434     6462.117     3480.750     2963.028        1.774        0.645      146.932       31.882        0.047      344.747       21.785      863.595
05/09/2013  14:29:00       80.656       75.793       85.017      120.793       76.147       72.102    14590.949     5798.378     5198.736        2.253        1.279      110.680       82.086        0.550      344.777       21.833      863.582
05/09/2013  14:30:00      123.391       93.016       12.136       76.007       46.819       43.850     5776.990     2191.975     1922.848        1.696        0.495      154.523       28.476        0.034      344.736       21.765      863.602
05/09/2013  14:31:00      -23.794       66.478       -3.567       54.538       44.231       28.326     2974.438     1956.341      802.361        0.536        0.287       70.608       30.354        0.185      344.906       22.058      863.588
05/09/2013  14:32:00     -119.950      -15.931       -7.725       62.808       62.325       28.402     3944.872     3884.429      806.653        1.167        0.432      121.003       22.845        0.036      344.930       22.098      863.587
05/09/2013  14:33:00     -124.872      -19.809        0.808       50.244       44.565       30.570     2524.454     1986.070      934.506        1.071        0.272      126.434       32.385        0.066      344.880       22.013      863.594
05/09/2013  14:34:00      -16.152       24.591       17.428       61.245       41.184       31.898     3750.969     1696.115     1017.464        0.382        0.323       29.421       31.616        1.155      345.118       22.420      863.594
05/09/2013  14:35:00       53.576       73.579       16.415       67.305       52.094       40.511     4529.954     2713.810     1641.116        0.872        0.444       91.018       29.212        0.103      344.892       22.035      863.597
05/09/2013  14:36:00       38.846       26.456       25.602       38.569       42.020       29.651     1487.574     1765.706      879.208        0.350        0.207       46.999       19.381        0.170      345.460       23.007      863.592
05/09/2013  14:37:00       83.450       72.847       10.062       28.561       27.572       30.263      815.718      760.218      915.876        0.743        0.125      110.773       21.038        0.036      344.809       21.890      863.590
05/09/2013  14:38:00        1.083       69.013       12.590       45.944       77.313       35.466     2110.807     5977.311     1257.825        0.713        0.467       69.022       40.555        0.345      345.341       22.803      863.586
05/09/2013  14:39:00       76.207       62.668       58.390       60.543       35.299       39.842     3665.478     1246.050     1587.351        0.982        0.325       98.665       23.022        0.054      345.291       22.716      863.560
05/09/2013  14:40:00      157.590       93.195        9.507       74.923       62.273       47.196     5613.417     3877.887     2227.455        2.266        0.586      183.085       25.404        0.019      344.909       22.059      863.563
05/09/2013  14:41:00       65.223      127.862        3.733      107.825      112.112       57.448    11626.161    12569.090     3300.291        2.405        1.375      143.537       50.251        0.123      344.892       22.030      863.523
05/09/2013  14:42:00      104.534      131.456      149.978      129.649       91.499       83.022    16808.978     8372.101     6892.617        4.138        1.604      167.952       91.176        0.295      345.237       22.619      863.529
05/09/2013  14:43:00      203.517      121.543       45.425       96.218       67.549       81.071     9257.913     4562.863     6572.546        3.932        1.020      237.048       48.783        0.042      344.677       21.663      863.538
05/09/2013  14:44:00       76.252       34.034       42.556       74.291       41.073       44.819     5519.181     1686.952     2008.706        0.900        0.461       83.503       29.064        0.121      345.109       22.405      863.549
05/09/2013  14:45:00      108.879      103.200        3.795      107.069       96.897       54.214    11463.750     9389.007     2939.185        2.315        1.190      150.016       51.533        0.118      344.891       22.030      863.547
05/09/2013  14:46:00      152.129      105.779        9.991       80.399       68.858       56.115     6463.995     4741.376     3148.916        2.439        0.718      185.290       43.632        0.055      344.603       21.538      863.548
05/09/2013  14:47:00       35.593      135.637       -4.999       80.159       91.364       43.078     6425.406     8347.326     1855.706        1.816        0.831      140.229       49.548        0.125      344.672       21.657      863.538
05/09/2013  14:48:00       30.293      110.972       -1.453       46.551       70.308       40.677     2166.991     4943.179     1654.628        1.100        0.438      115.032       42.502        0.137      344.884       22.018      863.532
05/09/2013  14:49:00       41.206      143.670      -18.506       52.497       89.983       47.544     2755.891     8096.984     2260.409        1.790        0.656      149.462       55.785        0.139      344.806       21.885      863.533
05/09/2013  14:50:00       53.510      187.767      -12.328       74.953       98.422       60.552     5617.882     9686.972     3666.550        2.862        0.949      195.243       58.329        0.089      344.581       21.499      863.531
05/09/2013  14:51:00        2.348      228.771      -24.656      104.334      113.893       57.091    10885.551    12971.610     3259.439        4.003        1.356      228.783       61.061        0.071      344.542       21.431      863.538
05/09/2013  14:52:00     -173.850      177.055      -48.934       65.059       98.779       48.147     4232.710     9757.278     2318.093        4.013        0.815      248.137       56.241        0.051      344.461       21.294      863.557
05/09/2013  14:53:00     -140.711       61.121      -21.018       41.286       51.758       32.015     1704.527     2678.868     1024.978        1.469        0.270      153.412       25.928        0.029      344.500       21.362      863.543
05/09/2013  14:54:00      -62.942       71.652        0.940       51.793       33.532       32.034     2682.492     1124.374     1026.193        0.696        0.242       95.372       23.836        0.062      344.667       21.649      863.545
05/09/2013  14:55:00       46.951       57.323       14.806       73.889       38.285       35.138     5459.574     1465.760     1234.671        0.693        0.408       74.097       23.261        0.099      344.773       21.831      863.556
05/09/2013  14:56:00       71.923      142.130        0.332       74.300       70.555       49.812     5520.522     4978.034     2481.214        1.917        0.649      159.292       40.805        0.066      344.586       21.508      863.548
05/09/2013  14:57:00      157.799       96.210       23.052       71.355       57.625       45.956     5091.519     3320.665     2111.938        2.260        0.526      184.815       28.301        0.023      344.493       21.347      863.529
05/09/2013  14:58:00       35.713      244.046      -36.638       48.439      135.993       37.220     2346.346    18494.013     1385.309        4.220        1.111      246.645       62.682        0.065      344.358       21.119      863.525
05/09/2013  14:59:00       26.740      268.790      -48.321       51.697       43.435       26.217     2672.619     1886.641      687.331        4.027        0.262      270.116       22.510        0.007      344.304       21.022      863.525
05/09/2013  15:00:00      -16.661      204.216      -31.933       54.372       59.330       32.153     2956.368     3520.016     1033.799        2.525        0.376      204.895       32.487        0.025      344.393       21.176      863.523
05/09/2013  15:01:00      -44.304       98.013        1.323       38.147       58.117       33.518     1455.188     3377.568     1123.444        0.876        0.298      107.561       40.774        0.144      344.596       21.527      863.520
05/09/2013  15:02:00      -58.802       87.979       -5.990       76.274       48.257       31.747     5817.712     2328.731     1007.863        1.019        0.458      105.820       43.062        0.166      344.532       21.417      863.507
05/09/2013  15:03:00     -120.063      113.639      -33.979       36.393       46.137       28.816     1324.478     2128.609      830.336        1.638        0.214      165.315       23.974        0.021      344.431       21.245      863.508
05/09/2013  15:04:00      -77.358      101.531       -8.950       35.140       48.895       32.917     1234.837     2390.711     1083.523        1.054        0.235      127.644       28.755        0.051      344.544       21.438      863.509
05/09/2013  15:05:00      -45.814      149.483      -18.190       33.812       40.593       22.569     1143.242     1647.832      509.351        1.404        0.165      156.347       15.929        0.010      344.407       21.206      863.504
05/09/2013  15:06:00      -50.410       50.493        0.095       42.883       29.503       27.148     1838.991      870.434      737.029        0.427        0.172       71.349       26.876        0.142      344.781       21.844      863.476
05/09/2013  15:07:00      -57.180      101.904      -19.985       39.011       61.675       26.457     1521.850     3803.834      699.996        1.004        0.301      116.850       13.606        0.014      344.596       21.528      863.448
05/09/2013  15:08:00       24.432       60.523        9.055       43.541       48.673       29.397     1895.795     2369.101      864.196        0.473        0.256       65.269       31.878        0.239      344.865       21.986      863.423
05/09/2013  15:09:00        9.250      158.183       -8.517       36.594       53.943       36.275     1339.116     2909.836     1315.875        1.537        0.278      158.453       31.448        0.039      344.675       21.663      863.421
05/09/2013  15:10:00      -12.553      147.702      -17.983       16.639       52.923       22.358      276.872     2800.842      499.884        1.294        0.179      148.235       25.642        0.030      344.491       21.347      863.402
05/09/2013  15:11:00       35.868       40.667        1.280       42.179       38.495       24.830     1779.067     1481.832      616.527        0.341        0.194       54.225       16.944        0.098      344.696       21.697      863.385
05/09/2013  15:12:00      108.521       53.851        7.539       34.753       46.300       34.766     1207.754     2143.687     1208.695        0.965        0.228      121.147       26.353        0.047      344.633       21.591      863.378
05/09/2013  15:13:00       93.926       53.094        6.817       44.672       43.080       37.711     1995.586     1855.926     1422.123        0.848        0.264      107.894       19.316        0.032      344.638       21.598      863.358
05/09/2013  15:14:00       -0.624       58.429      -15.433       48.029       33.093       31.449     2306.740     1095.145      989.054        0.402        0.220       58.432       19.253        0.109      345.114       22.414      863.340
05/09/2013  15:15:00      -70.792       62.066       -4.188       95.697       59.156       28.468     9157.897     3499.464      810.448        1.117        0.673       94.147       29.673        0.099      345.198       22.558      863.329
05/09/2013  15:16:00     -186.471      -19.368      -29.300       53.542       22.010       14.592     2866.755      484.440      212.929        1.978        0.178      187.474       13.710        0.005      344.432       21.246      863.324
05/09/2013  15:17:00      -33.359      -49.565       -0.967       41.321       47.519       29.457     1707.407     2258.013      867.733        0.420        0.242       59.745       23.304        0.152      344.831       21.929      863.304
05/09/2013  15:18:00      -38.951     -112.642       -6.634       36.467       29.283       22.916     1329.818      857.488      525.146        0.848        0.136      119.187       12.990        0.012      344.635       21.594      863.284
05/09/2013  15:19:00       -3.403      -66.200      -16.709       36.137       52.196       30.919     1305.875     2724.458      956.001        0.483        0.249       66.288       20.532        0.096      345.022       22.256      863.267
05/09/2013  15:20:00      -38.324      -49.207      -13.815       26.656       25.274       34.906      710.564      638.754     1218.420        0.332        0.128       62.370       15.342        0.061      344.744       21.780      863.256
05/09/2013  15:21:00      -58.204      -13.794        8.373       32.301       29.295       21.245     1043.329      858.209      451.336        0.300        0.118       59.816       16.256        0.074      344.886       22.023      863.242
05/09/2013  15:22:00      -36.008       -7.245       12.345       30.264       22.405       17.823      915.882      501.988      317.651        0.162        0.087       36.730       17.541        0.228      345.566       23.190      863.227
05/09/2013  15:23:00       -5.893        5.983       18.393       22.760       19.929       19.225      518.007      397.181      369.616        0.085        0.064        8.398       12.860        2.345      346.049       24.018      863.211
05/09/2013  15:24:00       43.973       80.984       43.362       46.501       46.641       58.685     2162.368     2175.424     3443.883        0.908        0.389       92.152       28.954        0.099      345.415       22.928      863.199
05/09/2013  15:25:00      146.557      118.216       65.686       92.332       70.082       67.504     8525.113     4911.426     4556.782        2.888        0.900      188.292       48.118        0.065      344.774       21.828      863.175
05/09/2013  15:26:00       78.373       70.727       -6.585       64.223       37.903       33.742     4124.544     1436.658     1138.515        0.894        0.335      105.568       18.220        0.030      344.690       21.689      863.169
05/09/2013  15:27:00       55.353       -4.573        3.373       33.582       45.725       32.497     1127.720     2090.787     1056.034        0.368        0.214       55.541       11.290        0.041      345.130       22.440      863.160
05/09/2013  15:28:00      -72.904      -91.889        2.823       79.984       63.288       45.455     6397.363     4005.372     2066.142        1.312        0.623      117.297       49.566        0.179      345.379       22.868      863.150
05/09/2013  15:29:00      -93.906      -53.908       -2.782       72.535       58.984       32.572     5261.297     3479.140     1060.945        1.077        0.490      108.280       43.718        0.163      345.045       22.295      863.145
05/09/2013  15:30:00      -33.781      -35.437       17.719       46.186       24.102       25.925     2133.116      580.889      672.080        0.305        0.169       48.959       20.616        0.177      345.449       22.988      863.117
05/09/2013  15:31:00       13.737      -73.774        3.714       57.219       76.321       49.664     3273.957     5824.862     2466.547        0.860        0.578       75.042       51.005        0.462      345.430       22.954      863.107
05/09/2013  15:32:00       70.978     -139.433      -17.565       47.503       69.154       39.402     2256.548     4782.259     1552.501        1.669        0.430      156.459       30.810        0.039      344.978       22.180      863.086
05/09/2013  15:33:00       -4.687       -7.945       55.516       21.539       50.578       26.188      463.908     2558.147      685.826        0.344        0.185        9.224       27.560        8.927      345.725       23.460      863.076
05/09/2013  15:34:00        2.957        6.818       54.060       29.567       44.456       39.352      874.237     1976.322     1548.605        0.369        0.220        7.432       27.081       13.277      345.587       23.224      863.085
05/09/2013  15:35:00       11.900      140.484      -16.925       62.949       78.251       37.759     3962.598     6123.272     1425.761        1.584        0.576      140.987       36.816        0.068      345.027       22.264      863.084
05/09/2013  15:36:00      -32.396      103.071       -2.397       52.048       49.877       43.430     2708.980     2487.714     1886.122        0.938        0.354      108.042       35.243        0.106      345.292       22.718      863.075
05/09/2013  15:37:00      -32.573       20.800       20.533       59.206       56.810       38.176     3505.392     3227.350     1457.412        0.505        0.410       38.647       23.617        0.373      345.859       23.691      863.064
05/09/2013  15:38:00      -40.239       51.701        3.671       47.832       37.294       27.575     2287.888     1390.868      760.384        0.437        0.222       65.515       24.995        0.146      345.376       22.862      863.053
05/09/2013  15:39:00       49.810       50.662       -5.340       50.410       35.225       36.068     2541.126     1240.792     1300.918        0.508        0.254       71.046       18.024        0.064      344.951       22.134      863.060
05/09/2013  15:40:00       28.630      -62.871       21.987       43.746      100.926       41.552     1913.731    10186.005     1726.585        0.954        0.691       69.083       54.749        0.628      345.139       22.456      863.041
05/09/2013  15:41:00       43.705     -148.296       19.479       90.591      187.554       69.094     8206.783    35176.664     4773.963        3.621        2.408      154.603       73.381        0.225      345.165       22.499      863.005
05/09/2013  15:42:00       14.267        8.803       39.139       56.988       53.343       45.479     3247.657     2845.493     2068.340        0.499        0.408       16.764       26.493        2.498      345.348       22.815      863.011
05/09/2013  15:43:00       17.343       31.241       34.277       40.979       49.697       37.704     1679.301     2469.795     1421.581        0.401        0.279       35.732       21.650        0.367      345.425       22.946      863.044
05/09/2013  15:44:00      230.324      155.000       51.190      103.936       84.518       58.837    10802.708     7143.304     3461.763        5.055        1.070      277.623       30.199        0.012      344.901       22.045      863.029
05/09/2013  15:45:00      198.270      103.551       23.062       88.305       72.005       44.847     7797.777     5184.731     2011.214        3.278        0.750      223.682       18.056        0.007      344.605       21.541      863.013
05/09/2013  15:46:00      128.817       77.950        5.541       53.187       46.912       40.962     2828.806     2200.711     1677.851        1.470        0.335      150.566       22.226        0.022      344.820       21.910      862.995
05/09/2013  15:47:00       41.390       -1.611       47.006       49.274       67.147       36.599     2427.971     4508.731     1339.482        0.610        0.414       41.421       31.463        0.577      345.263       22.668      862.970
05/09/2013  15:48:00       69.163       40.992       62.377       77.367       71.998       49.742     5985.706     5183.747     2474.275        1.200        0.682       80.398       43.750        0.296      345.230       22.612      862.958
05/09/2013  15:49:00       76.512       86.459       71.955       85.704       70.862       55.425     7345.232     5021.419     3071.967        1.697        0.772      115.452       47.281        0.168      345.162       22.494      862.963
05/09/2013  15:50:00       73.502       62.172       53.944       65.395       53.085       44.525     4276.449     2818.018     1982.485        1.063        0.454       96.270       28.004        0.085      345.248       22.642      862.957
05/09/2013  15:51:00      150.924      121.718       52.921       68.639       39.196       53.175     4711.277     1536.302     2827.579        2.473        0.454      193.890       39.446        0.041      345.219       22.590      862.945
05/09/2013  15:52:00       77.463      148.356      144.888       97.298       78.873       80.204     9466.843     6220.891     6432.664        3.556        1.106      167.362       63.527        0.144      345.141       22.458      862.937
05/09/2013  15:53:00      163.308      108.023      111.266      146.900      109.340       99.762    21579.497    11955.178     9952.432        4.710        2.174      195.803      108.091        0.305      344.756       21.797      862.941
05/09/2013  15:54:00       79.528       86.139      100.996      113.009       70.284       60.877    12770.937     4939.824     3705.984        2.268        1.071      117.238       65.814        0.315      344.840       21.943      862.950
05/09/2013  15:55:00      120.327      135.272      107.156      115.075      108.841      106.188    13242.268    11846.409    11275.917        4.031        1.818      181.045       99.535        0.302      344.717       21.730      862.944
05/09/2013  15:56:00      165.193      103.172       90.680      115.839       61.733       70.531    13418.602     3810.986     4974.584        3.418        1.110      194.765       39.713        0.042      344.607       21.544      862.952
05/09/2013  15:57:00       74.269      101.723      119.327       84.859       90.992       73.314     7200.979     8279.510     5374.905        2.548        1.043      125.950       57.735        0.210      344.751       21.789      862.922
05/09/2013  15:58:00       83.176       94.342       92.296       92.337       60.360       52.651     8526.200     3643.274     2772.076        1.964        0.747      125.772       46.408        0.136      344.797       21.869      862.911
05/09/2013  15:59:00      211.079      118.189       47.789       76.336       53.723       48.326     5827.150     2886.190     2335.361        3.593        0.552      241.915       32.118        0.018      344.746       21.779      862.902
05/09/2013  16:00:00      164.336       95.965       12.834       84.865       53.424       49.709     7202.039     2854.150     2470.995        2.445        0.626      190.304       39.741        0.044      344.753       21.794      862.895
05/09/2013  16:01:00      145.727      102.411       37.239       68.002       55.672       52.130     4624.243     3099.335     2717.579        2.177        0.522      178.113       40.057        0.051      344.782       21.843      862.884
05/09/2013  16:02:00      113.020       82.464       16.778       61.319       43.952       48.091     3760.068     1931.765     2312.767        1.393        0.400      139.907       29.902        0.046      344.755       21.797      862.873
05/09/2013  16:03:00      150.842       82.658       46.036       59.728       45.918       41.726     3567.456     2108.469     1741.061        1.956        0.371      172.004       21.301        0.015      344.775       21.831      862.867
05/09/2013  16:04:00       41.288       23.533       66.697       54.657       63.292       37.069     2987.357     4005.886     1374.133        0.754        0.418       47.523       37.477        0.622      344.934       22.105      862.859
05/09/2013  16:05:00       28.772       -0.972       28.040       68.991       62.696       45.222     4759.800     3930.832     2045.012        0.617        0.537       28.789       18.258        0.402      344.992       22.204      862.830
05/09/2013  16:06:00       -4.300       10.538       68.054       24.041       58.384       38.363      577.950     3408.652     1471.719        0.511        0.273       11.381       42.362       13.854      345.289       22.712      862.812
05/09/2013  16:07:00       81.385     -142.906        5.733       81.245       64.209       51.650     6600.787     4122.847     2667.733        2.023        0.670      164.455       53.080        0.104      345.172       22.510      862.788
05/09/2013  16:08:00       71.167      -87.752        5.002       65.166      104.398       58.869     4246.648    10898.907     3465.546        1.570        0.931      112.983       71.866        0.405      345.133       22.444      862.759
05/09/2013  16:09:00       56.665      -86.800       15.749       70.858      101.300       63.330     5020.835    10261.642     4010.650        1.514        0.965      103.659       70.645        0.464      345.149       22.471      862.733
05/09/2013  16:10:00      102.175     -139.454      -15.826       32.660       54.489       29.264     1066.643     2969.054      856.367        1.751        0.245      172.879       28.596        0.027      344.700       21.701      862.729
05/09/2013  16:11:00       33.741      -59.822        1.844       41.533       27.737       27.535     1724.992      769.365      758.156        0.399        0.163       68.681       17.393        0.064      345.000       22.218      862.712
05/09/2013  16:12:00      -66.245      -83.125       12.733       63.813       72.807       37.293     4072.063     5300.813     1390.774        1.111        0.538      106.293       16.493        0.024      345.227       22.606      862.691
05/09/2013  16:13:00       32.501      -85.597        7.714       51.114       51.441       32.265     2612.676     2646.143     1041.003        0.737        0.315       91.559       31.254        0.117      345.400       22.903      862.693
05/09/2013  16:14:00      121.258     -144.082       -4.130       72.663       85.415       46.827     5279.911     7295.706     2192.808        2.512        0.738      188.316       57.446        0.093      345.369       22.848      862.670
05/09/2013  16:15:00      111.308       18.005       21.141      108.532      129.631       61.050    11779.239    16804.101     3727.157        2.273        1.616      112.755       65.735        0.340      345.240       22.627      862.658
05/09/2013  16:16:00       40.983       66.990       -3.334       72.604       66.459       30.372     5271.291     4416.792      922.431        0.839        0.531       78.532       24.548        0.098      345.028       22.265      862.647
05/09/2013  16:17:00       46.079        9.056       21.819       34.382       34.395       24.328     1182.103     1183.000      591.864        0.282        0.148       46.960       17.971        0.146      345.297       22.727      862.660
05/09/2013  16:18:00       -9.739      -37.621       10.136       29.341       53.141       33.015      860.911     2823.990     1089.959        0.319        0.239       38.861       20.213        0.271      345.544       23.148      862.671
05/09/2013  16:19:00       23.229      -90.028      -25.265       52.507       61.327       39.608     2757.016     3760.963     1568.798        0.868        0.404       92.976       17.311        0.035      345.323       22.771      862.672
05/09/2013  16:20:00       59.456      -72.607       13.586       53.201       52.629       37.055     2830.383     2769.811     1373.075        0.798        0.349       93.844       36.388        0.150      345.074       22.345      862.677
05/09/2013  16:21:00       14.667       -8.710       32.395       25.330       32.645       20.677      641.615     1065.685      427.536        0.174        0.107       17.058       18.798        1.214      345.449       22.986      862.668
05/09/2013  16:22:00        2.872      -25.502       16.068       25.381       29.759       23.366      644.187      885.590      545.986        0.150        0.104       25.663       18.269        0.507      345.697       23.411      862.658
05/09/2013  16:23:00      -72.721      -75.241       -8.641       50.827       52.426       25.191     2583.396     2748.522      634.611        0.849        0.298      104.641       25.297        0.058      345.185       22.535      862.649
05/09/2013  16:24:00       11.160      -69.513       21.643       30.449       86.192       43.829      927.135     7429.042     1920.939        0.785        0.514       70.403       48.887        0.482      345.478       23.037      862.611
05/09/2013  16:25:00      -18.581       66.754        2.644       30.697       37.372       28.984      942.289     1396.643      840.095        0.399        0.159       69.292       14.825        0.046      345.421       22.940      862.628
05/09/2013  16:26:00       33.316       61.961       -8.756       33.156       19.317       23.137     1099.295      373.158      535.331        0.352        0.100       70.350       16.564        0.055      345.414       22.929      862.623
05/09/2013  16:27:00       -3.703      156.701       -7.854       58.039       58.729       41.749     3368.494     3449.094     1743.017        1.659        0.428      156.745       33.633        0.046      345.490       23.057      862.636
05/09/2013  16:28:00       17.725      200.321      -27.678       39.123       50.721       37.391     1530.612     2572.634     1398.080        2.335        0.275      201.104       34.119        0.029      345.164       22.497      862.641
05/09/2013  16:29:00       11.392      153.765      -25.472       58.412       65.423       38.666     3411.958     4280.202     1495.066        1.680        0.459      154.187       38.404        0.062      345.194       22.549      862.662
05/09/2013  16:30:00      -62.658      361.867      -43.844       79.256      113.940       43.549     6281.537    12982.264     1896.528        7.897        1.058      367.252       42.219        0.013      345.072       22.339      862.702
05/09/2013  16:31:00       80.085      187.520      -29.266       47.337      156.071       37.626     2240.826    24358.081     1415.683        3.522        1.401      203.906       67.527        0.110      344.900       22.044      862.709
05/09/2013  16:32:00       49.288      124.211        7.146       80.850       74.056       43.210     6536.754     5484.242     1867.107        1.590        0.694      133.632       53.007        0.157      345.125       22.432      862.682
05/09/2013  16:33:00     -137.132       85.836      -29.375       45.595       67.602       30.144     2078.882     4569.990      908.680        1.730        0.378      161.781       28.581        0.031      345.148       22.470      862.676
05/09/2013  16:34:00     -116.426      133.167      -33.450       95.624      161.158       38.778     9143.951    25971.765     1503.753        3.451        1.831      176.885       35.051        0.039      345.185       22.533      862.655
05/09/2013  16:35:00       -2.845      237.056      -19.498       60.837      104.216       48.675     3701.165    10861.025     2369.234        3.675        0.847      237.073       60.626        0.065      345.225       22.599      862.649
05/09/2013  16:36:00      -55.645      311.932      -50.410       60.177       93.248       35.288     3621.331     8695.249     1245.232        5.825        0.678      316.857       34.081        0.012      345.299       22.726      862.637
05/09/2013  16:37:00       45.803      223.782      -27.706      111.420      124.001       61.831    12414.455    15376.175     3823.067        4.227        1.581      228.421       72.461        0.101      345.516       23.099      862.639
05/09/2013  16:38:00      170.786      152.487       11.658      113.597       93.127       71.732    12904.290     8672.621     5145.503        3.963        1.336      228.954       53.436        0.054      345.528       23.120      862.604
05/09/2013  16:39:00      -20.983      198.664      -25.583      105.487       91.930       48.820    11127.402     8451.123     2383.358        3.126        1.098      199.769       61.971        0.096      345.388       22.880      862.630
05/09/2013  16:40:00      -96.817       73.869      -15.602       78.371       50.558       48.772     6142.059     2556.159     2378.731        1.307        0.554      121.779       44.014        0.131      345.619       23.279      862.623
05/09/2013  16:41:00     -103.067      161.504      -24.827       80.405      109.161       51.884     6464.963    11916.127     2691.943        2.919        1.054      191.589       37.499        0.038      345.613       23.265      862.620
05/09/2013  16:42:00     -125.324      195.566      -33.629      106.155      100.581       54.645    11268.939    10116.491     2986.056        3.972        1.219      232.276       59.755        0.066      345.538       23.134      862.634
05/09/2013  16:43:00      117.120      158.288        7.598      100.518       68.622       60.842    10103.920     4708.950     3701.694        2.867        0.926      196.907       57.184        0.084      345.340       22.797      862.650
05/09/2013  16:44:00      135.176      127.928        2.311      109.597       80.370       64.524    12011.446     6459.402     4163.350        2.864        1.132      186.113       41.432        0.050      345.423       22.940      862.644
05/09/2013  16:45:00       39.221      205.203      -10.448       84.474      115.696       61.938     7135.854    13385.568     3836.367        3.405        1.218      208.917       65.884        0.099      345.444       22.975      862.654
05/09/2013  16:46:00       28.353      133.703        2.584       72.209      112.250       56.916     5214.068    12600.106     3239.469        1.987        1.053      136.676       64.486        0.223      345.566       23.186      862.668
05/09/2013  16:47:00      -72.064      198.225      -26.313      101.974      120.078       52.219    10398.752    14418.817     2726.816        3.636        1.377      210.918       43.490        0.043      345.684       23.387      862.679
05/09/2013  16:48:00      -78.882       75.863       -0.606       85.535       56.886       45.646     7316.199     3235.967     2083.544        1.230        0.632      109.443       41.922        0.147      345.735       23.477      862.698
05/09/2013  16:49:00     -194.174      232.613      -58.446       76.232       84.156       47.696     5811.353     7082.249     2274.883        5.520        0.758      303.006       43.292        0.020      345.407       22.912      862.698
05/09/2013  16:50:00     -211.789      198.168      -42.461      104.237      115.718       60.996    10865.436    13390.592     3720.502        5.695        1.399      290.043       75.604        0.068      345.394       22.889      862.711
05/09/2013  16:51:00     -119.602      206.101      -29.881       59.159       85.678       37.968     3499.819     7340.652     1441.540        3.498        0.614      238.291       28.282        0.014      345.213       22.579      862.718
05/09/2013  16:52:00     -131.051      145.299      -24.257       76.771       94.471       46.130     5893.800     8924.692     2127.984        2.791        0.847      195.668       45.446        0.054      345.425       22.944      862.725
05/09/2013  16:53:00     -150.837      140.922      -29.606       80.102       59.848       47.436     6416.294     3581.820     2250.170        2.787        0.612      206.424       49.996        0.059      345.319       22.762      862.726
05/09/2013  16:54:00     -148.498       33.014      -25.557       56.470       74.055       44.759     3188.905     5484.134     2003.336        1.723        0.534      152.124       33.588        0.049      345.632       23.300      862.711
05/09/2013  16:55:00     -167.974      -66.174      -20.041       64.551       42.367       30.237     4166.785     1794.985      914.262        1.993        0.344      180.538       12.743        0.005      345.390       22.884      862.689
05/09/2013  16:56:00     -127.500      -35.433      -14.436       56.167       57.897       26.705     3154.741     3352.062      713.169        1.247        0.361      132.332       27.083        0.042      345.172       22.513      862.673
05/09/2013  16:57:00     -102.117      -36.212       24.452      103.897       66.799       57.773    10794.654     4462.090     3337.771        1.546        0.930      108.347       54.446        0.253      345.592       23.231      862.655
05/09/2013  16:58:00      -63.285       66.412       -0.505       63.778      114.977       46.828     4067.600    13219.690     2192.815        1.394        0.974       91.736       42.113        0.211      345.551       23.162      862.686
05/09/2013  16:59:00       23.075       68.582       -6.586       37.433       81.176       33.255     1401.194     6589.494     1105.906        0.719        0.455       72.359       38.323        0.281      345.209       22.577      862.685
05/09/2013  17:00:00       31.730      274.287      -40.685       72.799      125.316       49.133     5299.645    15704.145     2414.061        5.065        1.171      276.117       61.393        0.049      345.265       22.668      862.685
05/09/2013  17:01:00       15.617      281.920       -7.937       93.135      178.513       88.721     8674.177    31867.047     7871.371        6.409        2.421      282.352      104.911        0.138      345.436       22.961      862.683
05/09/2013  17:02:00      103.415      130.309        1.804      124.236       86.602       74.619    15434.666     7499.984     5567.926        2.809        1.425      166.359       56.442        0.115      345.393       22.889      862.701
05/09/2013  17:03:00       27.930      205.107      -23.566       66.885      138.749       58.581     4473.555    19251.273     3431.687        3.528        1.358      207.000       72.706        0.123      345.610       23.260      862.730
05/09/2013  17:04:00      132.557      127.958       11.882       93.850       79.378       75.397     8807.822     6300.877     5684.666        2.744        1.040      184.241       56.319        0.093      345.394       22.891      862.723
05/09/2013  17:05:00      115.188      113.698       -4.037      107.807       82.757       55.958    11622.413     6848.654     3131.336        2.390        1.080      161.850       43.375        0.072      345.503       23.079      862.722
05/09/2013  17:06:00      138.076       57.645       32.622      111.054       63.214       47.834    12333.064     3995.996     2288.103        2.103        0.931      149.626       28.401        0.036      345.413       22.924      862.718
05/09/2013  17:07:00       40.041       42.517       47.144       65.185       64.897       47.545     4249.086     4211.665     2260.516        0.818        0.536       58.404       37.392        0.410      345.465       23.015      862.694
05/09/2013  17:08:00       45.556       28.219       -1.637       43.833       31.834       22.934     1921.329     1013.372      525.982        0.317        0.173       53.588        8.172        0.023      345.354       22.825      862.701
05/09/2013  17:09:00        4.969       61.879       73.155       31.587       61.377       50.334      997.757     3767.075     2533.485        0.825        0.365       62.078       40.669        0.429      345.568       23.190      862.691
05/09/2013  17:10:00       30.182       29.633       16.906       34.201       37.071       36.165     1169.696     1374.290     1307.930        0.296        0.193       42.298       18.683        0.195      345.315       22.757      862.695
05/09/2013  17:11:00       12.293       23.422       10.010       37.937       45.154       26.420     1439.247     2038.905      698.026        0.249        0.209       26.452       21.439        0.657      345.530       23.125      862.712
05/09/2013  17:12:00        7.574      132.282      -10.890       43.116       68.412       29.433     1858.972     4680.236      866.303        1.254        0.370      132.498       26.948        0.041      345.411       22.919      862.708
05/09/2013  17:13:00      -13.455      208.884      -18.771       42.151       42.348       38.421     1776.677     1793.373     1476.160        2.461        0.252      209.317       26.813        0.016      345.498       23.069      862.706
05/09/2013  17:14:00      -67.653      147.355      -10.259       91.540      125.022       52.576     8379.547    15630.493     2764.284        2.658        1.339      162.143       47.442        0.086      345.809       23.603      862.705
05/09/2013  17:15:00       58.522       92.623       34.826       69.041       68.818       60.916     4766.655     4735.892     3710.814        1.321        0.661      109.562       53.010        0.234      345.705       23.425      862.700
05/09/2013  17:16:00      101.242      157.135       17.700      114.693      111.419       78.012    13154.423    12414.188     6085.838        3.345        1.583      186.926       57.970        0.096      345.366       22.843      862.689
05/09/2013  17:17:00       69.998      312.300      -30.643      136.242      146.546       90.149    18561.914    21475.588     8126.929        7.576        2.408      320.048       87.887        0.075      345.293       22.716      862.691
05/09/2013  17:18:00       64.552      178.904      -20.219       65.065      162.247       51.637     4233.412    26324.089     2666.330        3.490        1.661      190.194       68.010        0.128      345.393       22.890      862.703
05/09/2013  17:19:00       54.449      177.277       -5.772       89.959      133.652       76.597     8092.707    17862.790     5867.128        3.312        1.591      185.451       68.504        0.136      345.391       22.886      862.701
05/09/2013  17:20:00      134.129      210.275      -21.078      112.714      120.722       68.939    12704.378    14573.773     4752.625        4.734        1.602      249.412       64.227        0.066      345.304       22.735      862.718
05/09/2013  17:21:00      193.101      130.789       16.917      169.520       84.638       53.321    28736.951     7163.633     2843.148        4.671        1.937      233.225       50.311        0.047      345.210       22.576      862.708
05/09/2013  17:22:00      120.364       95.493      111.454      124.368       74.613       74.874    15467.483     5567.163     5606.166        3.133        1.332      153.644       76.705        0.249      345.338       22.793      862.693
05/09/2013  17:23:00      171.057      114.708       92.953       81.083       72.743       57.137     6574.490     5291.543     3264.601        3.309        0.757      205.957       39.409        0.037      345.181       22.526      862.693
05/09/2013  17:24:00       31.212       65.956       96.836       57.393       82.039       50.804     3293.937     6730.380     2581.076        1.365        0.630       72.968       52.228        0.512      345.489       23.054      862.685
05/09/2013  17:25:00      181.434      141.818       25.236       70.995       55.387       57.562     5040.237     3067.677     3313.383        3.254        0.571      230.284       24.600        0.011      345.269       22.675      862.703
05/09/2013  17:26:00      107.964       52.473       13.367       39.657       60.574       39.070     1572.684     3669.180     1526.477        1.068        0.338      120.040       31.476        0.069      345.049       22.301      862.716
05/09/2013  17:27:00       20.138       41.060       59.148       32.209       54.275       53.271     1037.427     2945.812     2837.833        0.620        0.341       45.733       47.174        1.064      345.251       22.648      862.702
05/09/2013  17:28:00      122.263      110.272       48.154       60.948       51.851       61.596     3714.619     2688.523     3794.101        1.981        0.510      164.646       35.901        0.048      345.215       22.585      862.708
05/09/2013  17:29:00       82.273       51.703       14.221       56.986       82.183       40.550     3247.414     6753.969     1644.314        1.064        0.582       97.171       32.208        0.110      345.329       22.781      862.712
05/09/2013  17:30:00       54.087       37.009       55.656       70.148       84.832       38.299     4920.799     7196.513     1466.821        1.049        0.679       65.537       31.573        0.232      345.453       22.994      862.696
05/09/2013  17:31:00      -22.768      147.119      -19.340       68.530      131.100       52.121     4696.399    17187.159     2716.581        2.356        1.230      148.870       52.941        0.126      345.840       23.657      862.721
05/09/2013  17:32:00       90.684      205.368      -10.755       86.056      118.636       80.469     7405.590    14074.493     6475.313        3.923        1.398      224.498       74.998        0.112      345.296       22.722      862.771
05/09/2013  17:33:00      147.987      155.393        6.778       95.899       95.572       73.745     9196.547     9133.996     5438.319        3.493        1.188      214.586       60.617        0.080      345.171       22.508      862.778
05/09/2013  17:34:00       65.734      179.882      -15.097       48.644       71.957       47.401     2366.210     5177.873     2246.868        2.335        0.490      191.516       46.537        0.059      345.108       22.401      862.774
05/09/2013  17:35:00       53.473       80.690      -28.433       42.509       43.436       16.856     1807.033     1886.702      284.115        0.708        0.199       96.800       11.234        0.013      345.095       22.380      862.748
05/09/2013  17:36:00       -3.981       33.764       -8.957       25.444       38.861       23.968      647.404     1510.201      574.474        0.198        0.137       33.998        4.368        0.017      345.364       22.841      862.734
05/09/2013  17:37:00        8.234      109.491       -9.092       44.819       34.893       27.341     2008.759     1217.499      747.503        0.806        0.199      109.800       17.739        0.026      345.496       23.067      862.749
05/09/2013  17:38:00      129.597      115.887        7.429       78.450       52.419       46.395     6154.326     2747.712     2152.538        2.067        0.553      173.854       24.231        0.019      345.378       22.864      862.750
05/09/2013  17:39:00      168.079      114.292       27.869      102.986       58.855       51.096    10606.138     3463.955     2610.793        2.938        0.834      203.256       20.573        0.010      345.262       22.665      862.743
05/09/2013  17:40:00      157.245      104.253       28.125       67.258       53.122       55.159     4523.687     2821.942     3042.569        2.339        0.519      188.666       42.525        0.051      345.244       22.633      862.728
05/09/2013  17:41:00       73.577       69.026       47.839       57.378       41.750       38.529     3292.178     1743.054     1484.484        0.949        0.326      100.887       30.257        0.090      345.455       22.997      862.717
05/09/2013  17:42:00      141.155       86.793       39.423      116.904       85.501       45.158    13666.526     7310.441     2039.267        2.601        1.151      165.704       34.121        0.042      345.451       22.989      862.718
05/09/2013  17:43:00      123.662       71.663       44.840       66.109       48.870       49.439     4370.456     2388.238     2444.206        1.582        0.460      142.927       27.283        0.036      345.287       22.709      862.728
05/09/2013  17:44:00       16.306       29.547       47.134       25.101       23.767       19.403      630.077      564.866      376.468        0.247        0.079       33.748       12.211        0.131      345.410       22.919      862.727
05/09/2013  17:45:00       21.202       45.186        6.457       27.006       32.750       24.119      729.314     1072.547      581.723        0.246        0.119       49.913       16.900        0.115      345.335       22.791      862.736
05/09/2013  17:46:00      -44.813      202.480      -25.371       54.239       86.657       35.905     2941.819     7509.373     1289.142        2.769        0.587      207.380       30.104        0.021      345.255       22.651      862.741
05/09/2013  17:47:00     -116.906       64.584      -18.048       58.142       47.275       26.876     3380.547     2234.954      722.343        1.225        0.317      133.560       29.571        0.049      345.445       22.980      862.727
05/09/2013  17:48:00      -13.542       65.825       11.647       24.728       45.870       27.585      611.450     2104.019      760.936        0.406        0.174       67.204       24.565        0.134      345.484       23.048      862.729
05/09/2013  17:49:00        5.454       78.985        0.926       25.799       31.193       23.848      665.583      973.016      568.721        0.424        0.110       79.173       17.837        0.051      345.232       22.615      862.738
05/09/2013  17:50:00       51.490      168.789      -15.828       60.483      105.939       53.908     3658.181    11223.042     2906.085        2.459        0.889      176.468       56.042        0.101      345.248       22.640      862.740
05/09/2013  17:51:00      106.123      125.224        0.072       81.485       77.533       66.585     6639.753     6011.429     4433.582        2.201        0.854      164.144       51.264        0.098      345.186       22.534      862.720
05/09/2013  17:52:00       49.330      188.123      -33.213       67.190       85.774       36.986     4514.433     7357.224     1367.989        2.608        0.662      194.484       41.476        0.045      345.232       22.612      862.715
05/09/2013  17:53:00      -13.545      132.664      -15.131       37.424       57.384       34.978     1400.540     3292.926     1223.467        1.196        0.296      133.353       39.273        0.087      345.291       22.715      862.699
05/09/2013  17:54:00       -5.079      190.731      -32.306       82.576      186.495       51.082     6818.825    34780.529     2609.411        4.082        2.210      190.798       75.732        0.158      345.313       22.754      862.686
05/09/2013  17:55:00       50.564      254.817      -19.690       62.854      148.269       58.725     3950.652    21983.606     3448.601        4.862        1.469      259.785       68.031        0.069      345.369       22.849      862.690
05/09/2013  17:56:00       40.327      155.954       -2.137       93.488       99.075       62.429     8739.929     9815.926     3897.328        2.420        1.123      161.084       56.974        0.125      345.534       23.130      862.704
05/09/2013  17:57:00       58.579       92.161        6.277       66.611       62.752       47.242     4437.064     3937.865     2231.817        1.128        0.530      109.202       38.262        0.123      345.533       23.131      862.703
05/09/2013  17:58:00      185.362      125.720       22.069       90.469       90.461       73.694     8184.648     8183.169     5430.790        3.622        1.090      223.975       64.735        0.084      345.424       22.941      862.704
05/09/2013  17:59:00      119.403      218.927       -3.368      111.458      141.115       79.636    12422.829    19913.443     6341.845        5.043        1.934      249.371       77.716        0.097      345.291       22.714      862.706
05/09/2013  18:00:00        4.226      242.778      -18.750       72.181      111.452       58.301     5210.064    12421.470     3398.990        4.017        1.052      242.815       58.982        0.059      345.328       22.777      862.723
05/09/2013  18:01:00      166.664      121.614       21.950       88.605       64.105       57.186     7850.899     4109.503     3270.195        2.914        0.762      206.317       29.434        0.020      345.291       22.714      862.727
05/09/2013  18:02:00      148.541      114.865        2.681       87.927       67.203       47.498     7731.187     4516.218     2256.023        2.488        0.725      187.772       30.719        0.027      345.269       22.678      862.727
05/09/2013  18:03:00      103.079      101.894        0.022       77.913       59.855       37.309     6070.409     3582.659     1391.970        1.602        0.552      144.940       31.424        0.047      345.286       22.706      862.717
05/09/2013  18:04:00      102.423       67.119       28.289       66.799       46.359       38.658     4462.080     2149.203     1494.415        1.195        0.405      122.456       27.440        0.050      345.406       22.912      862.713
05/09/2013  18:05:00        7.824      140.000      -17.272       51.448       69.132       29.545     2646.929     4779.237      872.926        1.413        0.415      140.219       31.875        0.052      345.475       23.030      862.721
05/09/2013  18:06:00       55.149      128.485      -16.190       72.763       79.315       50.364     5294.396     6290.828     2536.490        1.696        0.706      139.821       45.272        0.105      345.294       22.720      862.729
05/09/2013  18:07:00       64.314       96.262       -5.066       41.070       62.040       43.080     1686.715     3849.020     1855.901        1.041        0.370      115.770       41.201        0.127      345.153       22.480      862.718
05/09/2013  18:08:00      139.279       86.031        5.958       33.584       40.741       25.516     1127.879     1659.835      651.067        1.514        0.172      163.707       14.556        0.008      345.103       22.394      862.698
05/09/2013  18:09:00       59.130       35.121       24.833       27.219       27.570       25.504      740.889      760.080      650.437        0.375        0.108       68.774       20.698        0.091      345.116       22.418      862.679
05/09/2013  18:10:00      111.495       66.547        7.811       41.473       31.440       32.308     1720.015      988.482     1043.799        1.034        0.188      129.844       21.269        0.027      345.123       22.428      862.668
05/09/2013  18:11:00       31.281       54.829        3.554       32.822       34.462       31.162     1077.316     1187.617      971.057        0.362        0.162       63.124       21.496        0.116      345.226       22.604      862.662
05/09/2013  18:12:00       -9.627       47.461       -9.948       29.026       29.378       11.540      842.519      863.089      133.167        0.214        0.092       48.428        8.667        0.032      345.295       22.723      862.660
05/09/2013  18:13:00       64.295       31.329       -1.723       21.098       36.669       18.923      445.107     1344.600      358.093        0.363        0.107       71.522       16.244        0.052      345.247       22.639      862.659
05/09/2013  18:14:00       30.884       41.709       -0.266       47.006       29.093       25.193     2209.577      846.417      634.681        0.319        0.185       51.898       14.236        0.075      345.371       22.852      862.652
05/09/2013  18:15:00       24.672      151.318      -16.635       63.336      100.369       43.023     4011.464    10073.956     1850.972        1.986        0.797      153.316       56.018        0.134      345.332       22.784      862.645
05/09/2013  18:16:00     -136.993       43.149       -8.883       74.497       67.328       40.355     5549.771     4533.024     1628.526        1.621        0.586      143.627       40.611        0.080      345.762       23.523      862.648
05/09/2013  18:17:00      -86.603       22.723       -6.824       61.451       35.508       34.883     3776.244     1260.824     1216.831        0.716        0.313       89.534       35.764        0.160      345.354       22.824      862.652
05/09/2013  18:18:00      -79.515       48.550       -2.698       52.363       47.109       32.989     2741.846     2219.245     1088.290        0.737        0.302       93.165       21.515        0.053      345.720       23.451      862.645
05/09/2013  18:19:00      -92.377      122.518      -17.598       63.499       84.376       42.063     4032.090     7119.318     1769.306        1.839        0.646      153.442       35.563        0.054      345.530       23.124      862.637
05/09/2013  18:20:00     -144.072      270.678      -38.342       73.826       79.511       42.682     5450.282     6322.002     1821.770        5.454        0.680      306.632       31.812        0.011      345.372       22.852      862.641
05/09/2013  18:21:00      -82.977      298.550      -20.819       88.099      171.003       58.954     7761.362    29241.915     3475.587        6.846        2.024      309.867       79.131        0.065      345.387       22.876      862.643
05/09/2013  18:22:00      -81.710      299.054      -35.028      101.889      112.056       51.348    10381.323    12556.655     2636.623        6.145        1.279      310.015       55.537        0.032      345.379       22.863      862.636
05/09/2013  18:23:00      -78.566      372.134      -41.824       74.647      105.972       48.907     5572.175    11230.143     2391.923        8.280        0.960      380.337       50.982        0.018      345.224       22.598      862.632
05/09/2013  18:24:00      -34.892      347.218      -46.615       53.357       58.575       30.393     2846.979     3431.040      923.735        6.558        0.360      348.967       27.434        0.006      345.215       22.582      862.627
05/09/2013  18:25:00      -43.390      303.005      -48.216       69.049       63.497       34.181     4767.751     4031.924     1168.318        5.299        0.498      306.096       31.297        0.010      345.285       22.703      862.623
05/09/2013  18:26:00      -75.073      181.989      -26.527       94.964      103.538       36.791     9018.168    10720.100     1353.550        3.027        1.055      196.866       41.387        0.044      345.428       22.948      862.614
05/09/2013  18:27:00     -145.371      267.664      -42.011       81.809      114.416       54.433     6692.675    13091.071     2962.934        5.864        1.137      304.592       49.820        0.027      345.279       22.691      862.623
05/09/2013  18:28:00      -77.021      241.271      -20.611       64.094       79.173       38.827     4108.057     6268.423     1507.536        3.822        0.594      253.267       27.785        0.012      345.309       22.744      862.606
05/09/2013  18:29:00     -108.051      232.297      -27.232       66.649      144.953       52.554     4442.127    21011.388     2761.927        4.729        1.411      256.197       56.865        0.049      345.454       22.994      862.597
05/09/2013  18:30:00     -116.114      155.878      -35.384       76.077       91.732       48.671     5787.772     8414.719     2368.859        2.780        0.829      194.372       54.040        0.077      345.507       23.084      862.586
05/09/2013  18:31:00      -91.809      125.279      -10.252       72.820       85.837       43.027     5302.703     7367.920     1851.365        1.937        0.726      155.318       33.027        0.045      345.554       23.164      862.591
05/09/2013  18:32:00      -48.936      270.308      -32.661       60.118      136.404       44.570     3614.222    18606.039     1986.511        5.036        1.210      274.702       60.560        0.049      345.409       22.916      862.619
05/09/2013  18:33:00     -100.887      297.185      -41.619       82.496      131.626       49.131     6805.609    17325.500     2413.816        6.338        1.327      313.842       57.473        0.034      345.394       22.890      862.639
05/09/2013  18:34:00      -77.123      261.375      -34.036       69.549       76.523       41.393     4837.050     5855.770     1713.402        4.391        0.620      272.516       41.385        0.023      345.403       22.903      862.655
05/09/2013  18:35:00      -44.890      284.633      -30.433       50.789       91.656       30.734     2579.520     8400.731      944.587        4.794        0.596      288.151       29.131        0.010      345.273       22.680      862.662
05/09/2013  18:36:00      -40.465      234.522      -28.590       38.439       54.134       24.801     1477.570     2930.496      615.108        3.124        0.251      237.988       21.817        0.008      345.191       22.540      862.647
05/09/2013  18:37:00     -103.843       70.656       -3.393       81.326       75.982       40.656     6613.843     5773.223     1652.914        1.491        0.702      125.601       44.351        0.125      345.433       22.958      862.647
05/09/2013  18:38:00     -117.050       98.084       -2.956       79.647       64.166       48.080     6343.718     4117.285     2311.682        1.805        0.639      152.713       47.235        0.096      345.477       23.034      862.660
05/09/2013  18:39:00     -103.226      218.880      -21.543       96.667       97.417       48.093     9344.601     9490.140     2312.977        4.008        1.057      242.000       54.627        0.051      345.403       22.904      862.666
05/09/2013  18:40:00      -71.616      254.416      -31.315       73.190       67.443       38.075     5356.812     4548.592     1449.685        4.109        0.568      264.303       32.927        0.016      345.357       22.825      862.679
05/09/2013  18:41:00       59.768      179.307      -10.245       86.558      105.023       60.593     7492.358    11029.757     3671.535        2.901        1.110      189.006       64.152        0.115      345.356       22.826      862.678
05/09/2013  18:42:00      113.231      118.332        9.792       79.924       81.412       60.020     6387.840     6627.923     3602.361        2.177        0.831      163.779       54.767        0.112      345.271       22.680      862.675
05/09/2013  18:43:00      137.753      105.238       19.664       93.646       53.185       54.120     8769.549     2828.621     2929.025        2.248        0.726      173.352       28.386        0.027      345.239       22.625      862.674
05/09/2013  18:44:00      134.740       58.957       22.967       82.348       50.547       43.985     6781.234     2554.986     1934.684        1.671        0.564      147.074       30.641        0.043      345.242       22.629      862.670
05/09/2013  18:45:00       81.079       31.175       20.094       58.018       39.778       27.758     3366.083     1582.266      770.523        0.683        0.286       86.866       18.721        0.046      345.290       22.713      862.671
05/09/2013  18:46:00        9.291       46.904      -15.757       37.393       23.542       17.683     1398.221      554.206      312.694        0.240        0.113       47.815       10.473        0.048      345.273       22.684      862.676
05/09/2013  18:47:00        0.130       19.258       -0.091       15.067       14.199       12.051      227.010      201.608      145.228        0.047        0.029       19.259        5.072        0.069      345.327       22.778      862.674
05/09/2013  18:48:00       -5.302       47.599       -6.293       14.846       20.726       12.659      220.418      429.566      160.250        0.157        0.041       47.893        7.592        0.025      345.392       22.889      862.680
05/09/2013  18:49:00        5.189       26.494       -1.175       21.602       45.157       27.588      466.625     2039.138      761.096        0.200        0.163       26.997       28.287        1.098      345.410       22.920      862.681
05/09/2013  18:50:00       38.916       17.296       20.076       41.757       33.649       25.403     1743.622     1132.281      645.297        0.287        0.176       42.586       23.271        0.299      345.404       22.908      862.676
05/09/2013  18:51:00       74.624       45.462       10.125       37.392       29.830       19.424     1398.150      889.801      377.305        0.520        0.133       87.381       11.531        0.017      345.301       22.733      862.679
05/09/2013  18:52:00      100.901       90.090        5.201       58.682       43.005       37.784     3443.558     1849.404     1427.637        1.252        0.336      135.267       27.393        0.041      345.296       22.722      862.684
05/09/2013  18:53:00      127.283      103.236       14.015       63.985       59.195       48.975     4094.126     3504.052     2398.576        1.852        0.500      163.886       40.861        0.062      345.220       22.591      862.684
05/09/2013  18:54:00       33.830      153.270      -16.470       58.472       69.855       47.394     3418.994     4879.712     2246.181        1.772        0.527      156.959       42.630        0.074      345.267       22.674      862.686
05/09/2013  18:55:00       59.012      105.363       18.465       61.888       63.286       56.506     3830.092     4005.092     3192.914        1.297        0.551      120.763       40.847        0.114      345.262       22.666      862.687
05/09/2013  18:56:00       77.633      186.170      -21.453       60.688      109.010       51.770     3682.991    11883.096     2680.170        2.969        0.912      201.708       61.026        0.092      345.232       22.611      862.694
05/09/2013  18:57:00       30.396      192.342      -25.349       49.801       80.066       40.746     2480.151     6410.586     1660.249        2.455        0.528      194.729       43.325        0.050      345.176       22.517      862.695
05/09/2013  18:58:00       29.836      231.636      -38.245       41.882       83.439       29.985     1754.093     6962.048      899.110        3.281        0.481      233.550       36.527        0.024      345.184       22.528      862.706
05/09/2013  18:59:00      -17.020      227.177      -34.085       45.821       41.537       25.385     2099.545     1725.311      644.414        2.876        0.223      227.813       23.844        0.011      345.205       22.566      862.714
05/09/2013  19:00:00        2.805      273.798      -37.770       45.456       65.333       45.192     2066.264     4268.381     2042.277        4.239        0.419      273.813       37.171        0.018      345.233       22.612      862.714
05/09/2013  19:01:00      -87.799      238.141      -25.658       65.374       95.680       46.612     4273.729     9154.587     2172.634        4.034        0.780      253.811       45.880        0.033      345.193       22.546      862.709
05/09/2013  19:02:00      -48.301      297.280      -31.768       55.932       97.070       38.869     3128.436     9422.503     1510.808        5.289        0.703      301.178       46.769        0.024      345.203       22.562      862.709
05/09/2013  19:03:00      -81.144      182.197      -23.180       55.306      101.114       37.308     3058.801    10224.014     1391.892        2.749        0.734      199.449       39.488        0.039      345.290       22.710      862.710
05/09/2013  19:04:00      -29.895      123.689      -17.991       30.352       59.896       24.882      921.229     3587.495      619.110        1.082        0.256      127.250       15.410        0.015      345.353       22.822      862.714
05/09/2013  19:05:00        4.479      199.888      -16.483       43.843       70.322       36.371     1922.246     4945.124     1322.843        2.422        0.410      199.938       34.915        0.030      345.298       22.726      862.714
05/09/2013  19:06:00      -55.186      240.118      -30.451       89.220      115.321       44.883     7960.289    13298.885     2014.486        4.245        1.164      246.378       59.848        0.059      345.219       22.590      862.726
05/09/2013  19:07:00     -101.691      112.787      -26.165       87.154       80.040       45.818     7595.814     6406.460     2099.285        1.992        0.805      151.861       53.752        0.125      345.312       22.751      862.732
05/09/2013  19:08:00      -21.329      247.625      -29.738       67.663       67.847       36.131     4578.290     4603.157     1305.420        3.657        0.524      248.542       26.659        0.012      345.197       22.552      862.749
05/09/2013  19:09:00      -73.615      221.841      -16.132       88.412       97.476       42.872     7816.738     9501.648     1837.970        3.702        0.958      233.736       44.912        0.037      345.198       22.552      862.752
05/09/2013  19:10:00      -68.393      190.701      -21.940       62.053       82.929       46.019     3850.534     6877.181     2117.756        2.718        0.642      202.595       49.835        0.061      345.244       22.635      862.763
05/09/2013  19:11:00      -47.035      196.436      -22.106       72.089       84.090       42.431     5196.781     7071.081     1800.357        2.768        0.703      201.988       43.100        0.046      345.216       22.586      862.775
05/09/2013  19:12:00      -51.951      323.399      -36.841       55.490       64.943       30.733     3079.085     4217.542      944.508        5.844        0.412      327.545       28.570        0.008      345.172       22.506      862.785
05/09/2013  19:13:00      -72.595      373.035      -49.685       62.798       84.958       36.862     3943.624     7217.805     1358.815        7.970        0.626      380.033       38.825        0.010      345.165       22.495      862.800
05/09/2013  19:14:00      -77.314      225.551      -21.762       59.824       60.401       38.602     3578.908     3648.285     1490.120        3.302        0.436      238.434       31.182        0.017      345.145       22.462      862.816
05/09/2013  19:15:00      -97.314      279.690      -30.254       74.202       96.908       45.594     5505.935     9391.161     2078.854        5.279        0.849      296.136       48.019        0.026      345.150       22.470      862.838
05/09/2013  19:16:00      -56.699      182.104      -27.672       46.323       78.446       38.929     2145.839     6153.820     1515.440        2.348        0.491      190.727       37.136        0.038      345.185       22.531      862.854
05/09/2013  19:17:00      -71.528      180.183      -20.573       60.674       70.987       35.260     3681.344     5039.110     1243.260        2.398        0.498      193.861       34.020        0.031      345.166       22.500      862.857
05/09/2013  19:18:00      -99.168      177.275      -23.797       71.093       87.294       41.357     5054.249     7620.195     1710.361        2.810        0.719      203.127       42.362        0.043      345.184       22.531      862.862
05/09/2013  19:19:00      -52.336      210.818      -22.151       64.892       65.622       33.251     4210.997     4306.306     1105.634        2.865        0.481      217.217       28.870        0.018      345.153       22.476      862.860
05/09/2013  19:20:00      -50.091      158.534      -22.232       52.569       76.760       32.690     2763.529     5892.097     1068.660        1.893        0.486      166.259       39.951        0.058      345.198       22.556      862.865
05/09/2013  19:21:00      -82.952      255.171      -39.680       75.542       72.578       33.223     5706.580     5267.534     1103.800        4.282        0.604      268.315       25.597        0.009      345.183       22.527      862.863
05/09/2013  19:22:00     -138.463      207.728      -37.409       58.868       65.931       37.536     3465.405     4346.856     1408.970        3.647        0.461      249.646       34.741        0.019      345.229       22.606      862.862
05/09/2013  19:23:00      -91.811      199.985      -17.548       69.825       87.202       42.680     4875.464     7604.271     1821.600        3.151        0.715      220.053       46.114        0.044      345.152       22.475      862.871
05/09/2013  19:24:00      -60.189      166.620      -21.556       59.129       61.724       39.525     3496.227     3809.814     1562.239        2.036        0.443      177.158       36.918        0.043      345.128       22.436      862.866
05/09/2013  19:25:00     -124.634      162.822      -23.681       77.775       58.947       46.961     6048.905     3474.765     2205.331        2.717        0.586      205.048       47.112        0.053      345.179       22.523      862.878
05/09/2013  19:26:00      -94.215      152.747      -21.149       54.107       78.489       33.465     2927.554     6160.466     1119.921        2.143        0.510      179.466       31.589        0.031      345.179       22.522      862.886
05/09/2013  19:27:00     -139.118      110.381      -21.809       71.156       81.807       41.308     5063.173     6692.359     1706.329        2.274        0.673      177.589       39.707        0.050      345.235       22.618      862.889
05/09/2013  19:28:00      -47.300      122.216      -11.053       63.440       51.524       29.025     4024.620     2654.728      842.453        1.241        0.376      131.050       26.890        0.042      345.161       22.492      862.891
05/09/2013  19:29:00      -60.599      170.159      -22.891       74.731       75.292       39.060     5584.675     5668.889     1525.675        2.296        0.639      180.627       42.421        0.055      345.130       22.439      862.900
05/09/2013  19:30:00      -35.673      153.449      -17.699       41.261       52.184       23.562     1702.460     2723.124      555.146        1.506        0.249      157.541       15.059        0.009      345.124       22.430      862.915
05/09/2013  19:31:00      -73.968      119.918      -21.504       41.001       58.403       22.819     1681.055     3410.917      520.705        1.296        0.281      140.896       26.493        0.035      345.140       22.459      862.931
05/09/2013  19:32:00      -61.151      199.898      -13.207       52.241       52.526       37.300     2729.118     2758.973     1391.263        2.538        0.344      209.043       36.898        0.031      345.075       22.345      862.939
05/09/2013  19:33:00      -63.699      135.322      -15.641       38.049       66.729       27.866     1447.748     4452.818      776.498        1.464        0.334      149.565       29.978        0.040      345.087       22.368      862.953
05/09/2013  19:34:00      -43.104      171.874      -22.966       43.575       41.157       25.882     1898.788     1693.909      669.900        1.809        0.213      177.197       19.723        0.012      345.061       22.322      862.961
05/09/2013  19:35:00      -51.869      137.310      -24.089       33.203       36.220       20.493     1102.413     1311.858      419.951        1.248        0.142      146.780       16.789        0.013      345.043       22.291      862.978
05/09/2013  19:36:00      -22.016       86.244      -10.349       37.092       46.322       24.778     1375.827     2145.768      613.935        0.608        0.207       89.010       17.564        0.039      345.021       22.255      862.988
05/09/2013  19:37:00      -68.975      137.133      -24.809       39.984       55.751       22.716     1598.756     3108.145      516.024        1.470        0.261      153.503       19.010        0.015      345.052       22.307      862.993
05/09/2013  19:38:00     -117.141       95.753      -33.822       29.977       28.927       18.202      898.635      836.781      331.330        1.305        0.103      151.296       13.065        0.007      345.060       22.321      863.005
05/09/2013  19:39:00      -91.536      120.441      -23.350       54.622       55.618       32.125     2983.572     3093.386     1031.986        1.527        0.355      151.278       29.259        0.037      345.027       22.263      863.032
05/09/2013  19:40:00     -107.740       53.935      -15.428       29.779       55.021       26.302      886.809     3027.266      691.806        0.968        0.230      120.486       18.683        0.024      345.017       22.248      863.049
05/09/2013  19:41:00      -82.243       48.178       -0.067       61.011       44.926       36.779     3722.337     2018.366     1352.685        0.809        0.355       95.315       38.675        0.165      344.835       21.937      863.051
05/09/2013  19:42:00     -126.747       38.523      -19.777       76.237       44.575       22.758     5812.066     1986.892      517.943        1.313        0.416      132.472       28.760        0.047      344.724       21.743      863.064
05/09/2013  19:43:00      -53.315       70.716      -13.698       42.865       59.567       25.727     1837.367     3548.244      661.860        0.704        0.302       88.562       26.200        0.088      344.720       21.738      863.081
05/09/2013  19:44:00     -112.992      160.634      -29.376       56.965       57.781       32.052     3245.026     3338.670     1027.338        2.352        0.381      196.394       28.872        0.022      344.635       21.591      863.093
05/09/2013  19:45:00      -67.232       54.438      -11.470       28.649       35.048       15.715      820.787     1228.353      246.970        0.496        0.115       86.508        7.998        0.009      344.640       21.602      863.091
05/09/2013  19:46:00      -41.381       26.038       -5.543       29.944       29.263       17.020      896.662      856.323      289.670        0.223        0.102       48.891       14.573        0.089      344.672       21.658      863.103
05/09/2013  19:47:00      -48.494       28.816      -11.260       38.234       26.383       24.363     1461.836      696.037      593.562        0.303        0.138       56.410       21.284        0.142      344.610       21.550      863.124
05/09/2013  19:48:00      -77.161       98.170      -16.576       88.873       53.393       33.327     7898.416     2850.791     1110.709        1.386        0.593      124.864       31.471        0.064      344.522       21.401      863.135
05/09/2013  19:49:00      -59.963       42.233       -0.790       38.638       65.257       26.326     1492.884     4258.460      693.052        0.591        0.322       73.343       21.526        0.086      344.532       21.417      863.136
05/09/2013  19:50:00      -89.712       32.192      -18.349       25.880       49.519       20.718      669.792     2452.139      429.246        0.649        0.178       95.313       15.027        0.025      344.528       21.410      863.163
05/09/2013  19:51:00      -62.037       58.621      -11.208       46.257       43.187       34.645     2139.730     1865.111     1200.289        0.631        0.260       85.352       19.241        0.051      344.438       21.256      863.178
05/09/2013  19:52:00     -100.162       52.058      -25.856       29.299       26.183       25.043      858.424      685.548      627.155        0.779        0.109      112.882       18.580        0.027      344.467       21.306      863.191
05/09/2013  19:53:00      -55.476       54.391       -2.070       41.557       40.558       24.907     1726.992     1644.992      620.376        0.502        0.200       77.692       22.464        0.084      344.399       21.190      863.213
05/09/2013  19:54:00      -60.742       52.856      -17.529       26.884       48.064       23.631      722.771     2310.126      558.440        0.519        0.180       80.519       17.329        0.046      344.419       21.225      863.230
05/09/2013  19:55:00      -66.580       34.529       -8.458       32.787       45.661       18.680     1074.976     2084.940      348.952        0.460        0.175       75.001       16.779        0.050      344.470       21.311      863.242
05/09/2013  19:56:00      -74.236        6.209       -7.822       27.665       24.259       14.434      765.373      588.495      208.335        0.359        0.078       74.495       11.252        0.023      344.488       21.343      863.257
05/09/2013  19:57:00      -87.258       -3.783      -13.867       31.311       29.293       14.977      980.403      858.069      224.298        0.494        0.103       87.340       14.905        0.029      344.413       21.213      863.265
05/09/2013  19:58:00      -62.362      -15.148      -13.303       39.691       25.451       14.040     1575.384      647.760      197.128        0.336        0.121       64.175       15.522        0.058      344.447       21.274      863.269
05/09/2013  19:59:00      -90.722       43.902      -20.914       45.252       49.274       25.481     2047.758     2427.878      649.260        0.786        0.256      100.786       31.206        0.096      344.382       21.160      863.282
05/09/2013  20:00:00      -23.171       17.390        9.812       29.250       42.058       23.975      855.570     1768.863      574.778        0.207        0.160       28.971       19.161        0.437      344.308       21.035      863.288
05/09/2013  20:01:00      -64.972       40.649       -7.199       33.011       26.381       19.744     1089.758      695.963      389.845        0.405        0.109       76.640       18.626        0.059      344.343       21.094      863.296
05/09/2013  20:02:00      -63.552       38.617       -7.280       28.966       28.851       28.069      839.030      832.408      787.868        0.402        0.123       74.365       18.837        0.064      344.366       21.133      863.297
05/09/2013  20:03:00      -56.056       39.123       -0.386       39.411       36.487       23.509     1553.259     1331.271      552.685        0.405        0.172       68.358       25.103        0.135      344.377       21.152      863.307
05/09/2013  20:04:00      -87.389      101.984      -22.074       35.920       56.492       24.951     1290.226     3191.363      622.548        1.181        0.255      134.304       32.048        0.057      344.382       21.160      863.309
05/09/2013  20:05:00     -113.608      153.905      -29.499       35.705       68.336       24.882     1274.866     4669.866      619.103        2.201        0.328      191.294       17.366        0.008      344.376       21.150      863.319
05/09/2013  20:06:00     -101.507       94.775      -21.043       47.305       50.779       28.138     2237.751     2578.486      791.726        1.267        0.280      138.874       22.475        0.026      344.323       21.060      863.331
05/09/2013  20:07:00     -143.311      147.689      -28.106       58.308       75.775       38.704     3399.881     5741.896     1497.989        2.689        0.532      205.791       34.882        0.029      344.358       21.117      863.336
05/09/2013  20:08:00     -135.409      138.006      -23.401       66.315       74.399       39.251     4397.704     5535.163     1540.655        2.470        0.574      193.342       37.888        0.038      344.363       21.127      863.341
05/09/2013  20:09:00     -147.920      122.123      -33.197       48.921       42.431       35.883     2393.251     1800.362     1287.567        2.169        0.274      191.819       28.116        0.021      344.367       21.134      863.340
05/09/2013  20:10:00     -129.526      103.212      -24.027       36.953       58.351       29.635     1365.524     3404.791      878.261        1.683        0.282      165.619       29.227        0.031      344.366       21.132      863.340
05/09/2013  20:11:00     -103.913       79.853      -13.211       72.119       56.045       40.874     5201.221     3140.989     1670.646        1.368        0.501      131.051       40.644        0.096      344.326       21.062      863.345
05/09/2013  20:12:00     -107.596       44.650      -19.566       38.204       53.643       22.646     1459.553     2877.603      512.824        0.940        0.242      116.493       26.529        0.052      344.375       21.148      863.342
05/09/2013  20:13:00      -93.721       51.838      -18.752       35.405       52.569       23.735     1253.491     2763.487      563.334        0.820        0.229      107.102       18.221        0.029      344.322       21.060      863.355
05/09/2013  20:14:00     -104.225       74.548      -16.868       61.322       65.763       30.750     3760.442     4324.746      945.568        1.287        0.452      128.142       35.277        0.076      344.273       20.973      863.350
05/09/2013  20:15:00     -145.181      110.819      -26.866       34.148       46.684       29.992     1166.053     2179.403      899.530        1.916        0.212      182.643       23.771        0.017      344.288       20.998      863.357
05/09/2013  20:16:00      -78.837       63.499      -16.876       28.075       39.232       21.735      788.190     1539.179      472.391        0.667        0.140      101.229        7.904        0.006      344.191       20.835      863.362
05/09/2013  20:17:00     -111.945      129.222      -28.027       40.136       48.032       26.918     1610.904     2307.041      724.568        1.733        0.232      170.968       30.300        0.031      344.242       20.921      863.374
05/09/2013  20:18:00      -76.345       70.124      -14.031       22.890       38.263       19.308      523.957     1464.042      372.818        0.665        0.118      103.663       12.582        0.015      344.180       20.816      863.386
05/09/2013  20:19:00     -122.251      100.068      -22.439       38.263       59.063       26.824     1464.043     3488.438      719.506        1.557        0.284      157.984       26.186        0.027      344.203       20.854      863.390
05/09/2013  20:20:00     -121.429       96.697      -32.072       38.712       69.520       27.783     1498.604     4832.999      771.880        1.611        0.355      155.227       26.223        0.029      344.211       20.868      863.403
05/09/2013  20:21:00      -95.722      105.487      -20.323       25.590       57.455       21.777      654.831     3301.068      474.225        1.257        0.222      142.444       14.636        0.011      344.196       20.842      863.413
05/09/2013  20:22:00      -86.005      114.824      -16.935       39.992       46.138       20.128     1599.384     2128.741      405.131        1.250        0.207      143.462       21.439        0.022      344.180       20.814      863.420
05/09/2013  20:23:00     -139.221      142.426      -37.936       30.182       31.606       21.561      910.983      998.923      464.862        2.174        0.119      199.167       14.020        0.005      344.152       20.766      863.419
05/09/2013  20:24:00      -95.090       97.961      -18.344       34.262       36.975       21.627     1173.892     1367.136      467.707        1.099        0.150      136.523       20.535        0.023      344.099       20.677      863.424
05/09/2013  20:25:00      -90.247       99.582       -9.407       58.828       57.617       34.417     3460.710     3319.722     1184.504        1.306        0.398      134.392       33.419        0.062      344.052       20.597      863.438
05/09/2013  20:26:00      -99.861      121.094      -21.884       48.316       46.064       29.228     2334.449     2121.862      854.255        1.521        0.266      156.959       26.110        0.028      344.056       20.605      863.450
05/09/2013  20:27:00      -90.563      103.692      -21.845       37.066       34.389       23.820     1373.852     1182.630      567.398        1.128        0.156      137.673       25.668        0.035      344.049       20.592      863.457
05/09/2013  20:28:00     -101.831      154.503      -25.293       36.065       45.443       25.628     1300.715     2065.057      656.815        1.945        0.201      185.042       23.988        0.017      344.061       20.611      863.468
05/09/2013  20:29:00      -88.040      115.558      -17.889       36.356       43.941       19.451     1321.738     1930.848      378.325        1.253        0.182      145.274       16.240        0.012      344.040       20.577      863.485
05/09/2013  20:30:00      -96.831       70.593      -15.284       37.964       35.903       27.395     1441.267     1289.034      750.506        0.904        0.174      119.832       22.547        0.035      344.023       20.547      863.501
05/09/2013  20:31:00      -92.961       81.103      -11.279       60.699       38.282       36.762     3684.381     1465.538     1351.469        1.092        0.325      123.367       35.303        0.082      344.001       20.510      863.507
05/09/2013  20:32:00      -87.508       85.174      -12.239       45.475       42.258       27.699     2067.978     1785.738      767.237        0.984        0.231      122.115       28.418        0.054      343.990       20.491      863.518
05/09/2013  20:33:00     -100.954      133.512      -19.278       57.388       53.543       28.622     3293.358     2866.817      819.208        1.768        0.349      167.384       32.633        0.038      344.041       20.578      863.535
05/09/2013  20:34:00      -87.055       97.459      -21.366       33.343       43.077       26.792     1111.774     1855.594      717.807        1.061        0.184      130.679       21.535        0.027      344.039       20.576      863.541
05/09/2013  20:35:00     -108.207      114.609      -17.271       42.377       49.298       26.463     1795.776     2430.327      700.307        1.503        0.246      157.619       24.643        0.024      344.011       20.528      863.555
05/09/2013  20:36:00      -90.475       91.433      -18.622       36.189       38.577       27.610     1309.640     1488.192      762.310        1.023        0.178      128.630       21.405        0.028      344.001       20.510      863.566
05/09/2013  20:37:00     -112.080      141.858      -23.176       51.223       52.863       32.170     2623.780     2794.529     1034.918        1.984        0.323      180.792       32.429        0.032      344.034       20.566      863.582
05/09/2013  20:38:00     -108.106      128.406      -27.132       48.352       41.674       28.693     2337.877     1736.759      823.295        1.690        0.245      167.854       23.838        0.020      344.063       20.617      863.598
05/09/2013  20:39:00     -115.525      116.731      -28.139       64.221       41.421       33.311     4124.323     1715.731     1109.620        1.736        0.347      164.232       37.709        0.053      344.024       20.550      863.599
05/09/2013  20:40:00     -102.227      140.965      -28.016       49.701       62.727       29.664     2470.165     3934.660      879.925        1.919        0.364      174.130       28.605        0.027      344.023       20.547      863.612
05/09/2013  20:41:00     -104.047      114.261      -17.672       46.331       56.382       33.599     2146.534     3178.913     1128.912        1.532        0.323      154.536       32.979        0.046      344.023       20.549      863.623
05/09/2013  20:42:00      -86.864       70.837      -12.093       52.770       35.382       28.265     2784.622     1251.856      798.884        0.877        0.242      112.086       25.916        0.053      344.018       20.539      863.635
05/09/2013  20:43:00      -91.325       85.820       -8.557       53.707       39.627       26.468     2884.403     1570.270      700.573        1.047        0.258      125.321       24.586        0.038      343.963       20.446      863.647
05/09/2013  20:44:00      -96.375      125.065      -16.514       47.274       47.889       28.351     2234.856     2293.309      803.754        1.527        0.267      157.890       26.248        0.028      344.014       20.531      863.665
05/09/2013  20:45:00     -161.877      211.647      -36.000       73.932       65.145       41.955     5465.987     4243.843     1760.200        4.188        0.574      266.456       45.908        0.030      344.000       20.507      863.677
05/09/2013  20:46:00     -122.036      123.229      -21.687       68.723       71.142       36.684     4722.899     5061.165     1345.679        2.084        0.556      173.430       42.332        0.060      343.970       20.455      863.694
05/09/2013  20:47:00     -166.966      136.593      -42.810       57.432       54.407       35.893     3298.403     2960.144     1288.332        2.796        0.377      215.720       28.081        0.017      343.976       20.463      863.710
05/09/2013  20:48:00      -85.928      133.149      -12.497       44.322       49.353       29.026     1964.403     2435.689      842.508        1.525        0.262      158.468       22.486        0.020      343.888       20.316      863.723
05/09/2013  20:49:00      -93.730      116.080      -14.910       47.589       55.629       29.839     2264.667     3094.574      890.386        1.436        0.312      149.198       24.627        0.027      343.865       20.278      863.748
05/09/2013  20:50:00     -136.608      154.807      -29.845       80.637       79.221       40.035     6502.262     6276.014     1602.775        2.895        0.719      206.463       51.975        0.063      343.867       20.278      863.750
05/09/2013  20:51:00     -141.739      153.511      -30.462       80.501       83.643       43.625     6480.396     6996.085     1903.159        2.998        0.769      208.939       53.138        0.065      343.844       20.241      863.769
05/09/2013  20:52:00     -135.001      160.115      -38.654       64.871       72.149       39.331     4208.266     5205.534     1546.891        2.816        0.548      209.432       41.678        0.040      343.866       20.277      863.780
05/09/2013  20:53:00     -120.558      127.828      -18.420       72.151       66.249       43.347     5205.785     4388.864     1878.969        2.134        0.574      175.711       45.852        0.068      343.768       20.111      863.803
05/09/2013  20:54:00     -149.354      161.961      -27.361       64.798       75.234       39.163     4198.746     5660.216     1533.713        3.034        0.570      220.314       34.422        0.024      343.796       20.155      863.809
05/09/2013  20:55:00     -175.683      185.113      -48.711       55.917       68.064       32.581     3126.673     4632.742     1061.533        3.816        0.441      255.209       28.519        0.012      343.834       20.221      863.833
05/09/2013  20:56:00     -166.114      145.241      -45.318       58.979       69.271       33.814     3478.531     4798.474     1143.383        3.008        0.471      220.656       39.196        0.032      343.810       20.181      863.842
05/09/2013  20:57:00     -149.824      186.805      -30.787       64.565       69.986       45.116     4168.644     4898.025     2035.438        3.469        0.555      239.465       45.979        0.037      343.776       20.124      863.864
05/09/2013  20:58:00     -188.064      158.495      -44.542       65.324       91.633       40.176     4267.235     8396.518     1614.085        3.837        0.714      245.945       30.818        0.016      343.822       20.201      863.872
05/09/2013  20:59:00     -155.925      158.922      -29.467       59.404       64.902       39.525     3528.893     4212.258     1562.194        2.987        0.465      222.640       29.954        0.018      343.774       20.120      863.897
05/09/2013  21:00:00     -122.596      153.928      -17.190       71.537       63.214       44.784     5117.506     3996.022     2005.577        2.507        0.556      196.783       38.397        0.038      343.716       20.021      863.910
05/09/2013  21:01:00     -152.125      167.522      -34.980       65.574       76.837       41.382     4299.971     5903.910     1712.443        3.217        0.596      226.287       42.016        0.034      343.749       20.078      863.923
05/09/2013  21:02:00     -146.506      126.320      -22.467       62.944       76.299       35.058     3961.916     5821.488     1229.029        2.447        0.551      193.444       29.999        0.024      343.761       20.097      863.928
05/09/2013  21:03:00     -142.441      128.408      -21.923       81.365       69.312       44.002     6620.299     4804.187     1936.150        2.531        0.668      191.776       43.599        0.052      343.753       20.085      863.932
05/09/2013  21:04:00     -114.844      142.023      -17.433       63.111       81.651       39.888     3982.992     6666.822     1591.029        2.295        0.612      182.647       31.150        0.029      343.734       20.052      863.941
05/09/2013  21:05:00      -90.508      117.143      -17.215       53.249       90.199       39.641     2835.409     8135.941     1571.410        1.737        0.627      148.035       23.022        0.024      343.743       20.070      863.946
05/09/2013  21:06:00     -136.966       97.036      -12.619       76.588       47.251       47.887     5865.733     2232.662     2293.189        1.936        0.520      167.856       40.685        0.059      343.723       20.035      863.961
05/09/2013  21:07:00     -178.791      154.581      -31.654       77.329       66.925       41.202     5979.766     4478.914     1697.594        3.451        0.608      236.351       32.886        0.019      343.731       20.045      863.970
05/09/2013  21:08:00     -139.545      137.036      -21.207       52.504       59.731       36.666     2756.704     3567.759     1344.396        2.318        0.383      195.581       24.286        0.015      343.710       20.013      863.972
05/09/2013  21:09:00     -174.424      110.690      -27.585       60.408       56.484       44.774     3649.097     3190.406     2004.718        2.614        0.442      206.582       34.999        0.029      343.765       20.104      863.984
05/09/2013  21:10:00     -107.212       72.024       -9.007       60.169       53.772       36.015     3620.317     2891.423     1297.087        1.228        0.390      129.158       35.602        0.076      343.729       20.044      863.992
05/09/2013  21:11:00     -141.244      159.466      -24.267       60.809       76.144       42.765     3697.690     5797.886     1828.863        2.864        0.566      213.024       34.496        0.026      343.710       20.009      864.012
05/09/2013  21:12:00     -118.403      108.603      -11.413       70.670       69.574       42.919     4994.225     4840.562     1841.999        1.881        0.584      160.667       35.218        0.048      343.686       19.972      864.024
05/09/2013  21:13:00     -149.980      132.704      -27.136       64.203       55.108       39.866     4122.076     3036.930     1589.268        2.479        0.437      200.261       29.246        0.021      343.678       19.957      864.044
05/09/2013  21:14:00     -141.266      120.245      -16.992       82.518       59.766       42.662     6809.259     3571.970     1820.027        2.345        0.610      185.512       41.566        0.050      343.678       19.956      864.061
05/09/2013  21:15:00     -175.414       84.009       -5.764       77.160       70.306       43.252     5953.624     4942.896     1870.765        2.531        0.638      194.494       27.754        0.020      343.674       19.949      864.090
05/09/2013  21:16:00     -222.659      136.926      -46.333       64.186       84.417       43.495     4119.883     7126.244     1891.812        4.180        0.657      261.392       38.884        0.022      343.731       20.046      864.103
05/09/2013  21:17:00     -175.947      107.167      -32.971       84.475      103.814       51.422     7136.091    10777.297     2644.247        3.204        1.028      206.015       59.240        0.083      343.700       19.993      864.121
05/09/2013  21:18:00     -127.716      125.072      -12.147       62.522       73.686       55.290     3909.002     5429.629     3056.978        2.225        0.620      178.758       39.699        0.049      343.662       19.931      864.134
05/09/2013  21:19:00     -148.483      119.948      -25.182       47.455       67.915       41.017     2251.963     4612.476     1682.406        2.281        0.427      190.879       30.454        0.025      343.666       19.936      864.157
05/09/2013  21:20:00     -161.725       92.535      -39.057       57.395       81.332       39.623     3294.239     6614.953     1569.949        2.386        0.574      186.327       23.306        0.016      343.729       20.042      864.170
05/09/2013  21:21:00     -122.199       98.456      -22.080       59.487       55.422       33.480     3538.714     3071.577     1120.917        1.642        0.387      156.927       28.502        0.033      343.682       19.964      864.180
05/09/2013  21:22:00     -126.266       74.459      -18.547       67.814       63.831       34.546     4598.677     4074.334     1193.400        1.585        0.493      146.586       31.905        0.047      343.674       19.951      864.187
05/09/2013  21:23:00     -137.513      151.486      -35.338       79.370       75.150       40.311     6299.523     5647.488     1624.941        2.834        0.679      204.592       43.759        0.046      343.652       19.912      864.188
05/09/2013  21:24:00     -173.283      126.685      -36.985       57.053       61.980       36.189     3255.024     3841.475     1309.657        2.792        0.420      214.653       33.604        0.025      343.667       19.938      864.199
05/09/2013  21:25:00      -97.438       76.098       -9.385       59.263       68.863       33.388     3512.143     4742.162     1114.742        1.237        0.468      123.633       32.863        0.071      343.630       19.875      864.201
05/09/2013  21:26:00      -89.405      143.340       -8.496       56.530       56.760       41.840     3195.617     3221.643     1750.571        1.839        0.408      168.936       40.444        0.057      343.539       19.720      864.218
05/09/2013  21:27:00     -112.392      100.604       -3.238       62.738       50.115       36.602     3935.996     2511.478     1339.740        1.527        0.389      150.842       35.273        0.055      343.565       19.766      864.240
05/09/2013  21:28:00     -133.327       99.117      -27.669       86.544       46.440       38.727     7489.812     2156.664     1499.769        1.975        0.557      166.134       46.952        0.080      343.589       19.805      864.258
05/09/2013  21:29:00     -116.054      134.288      -30.860       48.352       69.509       33.743     2337.959     4831.454     1138.623        2.038        0.415      177.487       28.408        0.026      343.590       19.807      864.279
05/09/2013  21:30:00     -120.050      110.955      -33.569       55.415       60.904       27.108     3070.864     3709.309      734.863        1.768        0.376      163.472       27.476        0.028      343.620       19.857      864.293
05/09/2013  21:31:00     -134.707       88.045      -14.729       71.358       58.454       34.323     5092.011     3416.872     1178.064        1.790        0.484      160.928       36.185        0.051      343.570       19.775      864.316
05/09/2013  21:32:00     -111.573      106.838      -26.474       40.882       52.069       24.897     1671.331     2711.199      619.847        1.478        0.250      154.477       22.722        0.022      343.540       19.723      864.349
05/09/2013  21:33:00     -115.792      177.410      -25.599       55.108       57.980       35.959     3036.847     3361.663     1293.015        2.661        0.385      211.854       32.822        0.024      343.526       19.697      864.368
05/09/2013  21:34:00     -144.753      148.266      -33.078       50.217       65.817       37.139     2521.770     4331.930     1379.287        2.613        0.412      207.211       32.817        0.025      343.551       19.739      864.395
05/09/2013  21:35:00     -106.980      123.061      -24.913       53.943       59.397       33.477     2909.825     3527.970     1120.713        1.738        0.378      163.060       32.770        0.040      343.533       19.711      864.405
05/09/2013  21:36:00      -82.875       81.843      -16.903       44.468       45.065       22.135     1977.377     2030.816      489.940        0.917        0.225      116.476       18.498        0.025      343.527       19.701      864.417
05/09/2013  21:37:00     -108.936       95.789      -15.848       32.345       49.311       25.054     1046.231     2431.603      627.682        1.270        0.205      145.061       20.608        0.020      343.522       19.694      864.433
05/09/2013  21:38:00      -78.613       86.829       -8.800       51.374       47.883       28.619     2639.260     2292.826      819.061        0.977        0.288      117.130       33.931        0.084      343.444       19.561      864.443
05/09/2013  21:39:00      -39.597       66.849       -9.494       28.470       28.598       15.943      810.514      817.819      254.194        0.400        0.094       77.696       12.602        0.026      343.389       19.464      864.456
05/09/2013  21:40:00      -53.223        8.666       -2.390       22.257       32.287       19.916      495.380     1042.441      396.661        0.242        0.097       53.924       19.073        0.125      343.444       19.561      864.469
05/09/2013  21:41:00      -77.613       25.036       -1.035       31.816       55.376       21.231     1012.265     3066.484      450.755        0.559        0.226       81.551       17.737        0.047      343.464       19.594      864.464
05/09/2013  21:42:00      -84.669       -0.641      -11.212       34.425       35.296       20.728     1185.059     1245.823      429.644        0.508        0.143       84.672       18.154        0.046      343.463       19.595      864.486
05/09/2013  21:43:00      -91.747       83.636      -18.476       29.986       37.315       19.543      899.131     1392.410      381.930        0.921        0.134      124.147       12.366        0.010      343.398       19.482      864.512
05/09/2013  21:44:00     -139.510      102.615      -32.762       50.985       48.825       29.900     2599.517     2383.840      894.001        1.847        0.294      173.185       23.683        0.019      343.395       19.476      864.530
05/09/2013  21:45:00     -125.857      116.743      -26.032       38.172       40.319       28.276     1457.074     1625.614      799.515        1.701        0.194      171.665       23.716        0.019      343.362       19.421      864.544
05/09/2013  21:46:00     -154.674       78.859      -26.765       38.667       70.638       27.440     1495.099     4989.697      752.960        1.905        0.362      173.617       25.213        0.021      343.384       19.456      864.568
05/09/2013  21:47:00     -111.977        1.945       -0.488       46.850       45.859       33.344     2194.885     2103.080     1111.819        0.898        0.270      111.994       29.991        0.072      343.368       19.432      864.575
05/09/2013  21:48:00      -77.134      -12.787      -13.431       39.487       42.824       21.222     1559.221     1833.923      450.356        0.507        0.192       78.187       23.178        0.088      343.399       19.484      864.579
05/09/2013  21:49:00      -73.247      -23.044        4.255       40.327       26.863       14.225     1626.244      721.628      202.339        0.423        0.128       76.787       12.300        0.026      343.294       19.307      864.588
05/09/2013  21:50:00      -54.181       -4.426       -1.731       24.640       28.291       17.861      607.152      800.353      319.000        0.234        0.086       54.361       11.337        0.043      343.275       19.272      864.610
05/09/2013  21:51:00      -71.635        0.846       -6.886       28.149       39.307       15.771      792.344     1545.044      248.717        0.388        0.129       71.640       12.868        0.032      343.298       19.312      864.614
05/09/2013  21:52:00      -66.407      -30.723       -8.303       24.340       15.791       15.262      592.427      249.341      232.941        0.325        0.054       73.170        9.083        0.015      343.304       19.321      864.618
05/09/2013  21:53:00      -53.201      -21.297       -4.484       28.756       19.812       14.484      826.916      392.513      209.791        0.237        0.071       57.306        5.450        0.009      343.279       19.278      864.631
05/09/2013  21:54:00      -38.022      -32.593        4.057       35.949       31.160       20.880     1292.346      970.974      435.991        0.261        0.135       50.080       20.232        0.163      343.297       19.308      864.656
05/09/2013  21:55:00      -38.973      -12.663        5.476       58.477       18.795       16.143     3419.502      353.256      260.587        0.287        0.202       40.978       24.439        0.356      343.331       19.366      864.661
05/09/2013  21:56:00      -59.027      -42.835       -0.661       54.775       22.915       26.182     3000.344      525.075      685.512        0.476        0.211       72.932       29.653        0.165      343.295       19.304      864.677
05/09/2013  21:57:00      -55.158      -26.306       19.730       55.108       34.276       27.220     3036.846     1174.824      740.952        0.454        0.248       61.110       28.344        0.215      343.272       19.267      864.694
05/09/2013  21:58:00      -58.465      -25.259       -0.163       36.658       27.866       20.844     1343.806      776.521      434.483        0.331        0.128       63.688       19.643        0.095      343.200       19.144      864.720
05/09/2013  21:59:00      -96.571      -66.072        0.202       23.777       31.274       16.563      565.327      978.063      274.332        0.775        0.091      117.011       13.379        0.013      343.204       19.152      864.730
05/09/2013  22:00:00     -128.094      -47.024       -4.250       34.915       26.713       17.131     1219.063      713.578      293.485        1.043        0.111      136.452       16.743        0.015      343.181       19.113      864.744
05/09/2013  22:01:00      -89.484      -47.424        1.973       48.154       23.138       19.259     2318.823      535.349      370.898        0.674        0.161      101.274       18.075        0.032      343.215       19.169      864.762
05/09/2013  22:02:00     -120.379      -47.048       -0.309       44.629       42.929       22.841     1991.725     1842.859      521.714        1.053        0.218      129.246       22.494        0.030      343.257       19.242      864.779
05/09/2013  22:03:00      -90.521      -12.187       -0.774       52.308       33.825       22.634     2736.117     1144.115      512.300        0.637        0.220       91.338       25.306        0.077      343.220       19.178      864.793
05/09/2013  22:04:00      -87.461       -7.769       -2.999       39.278       28.824       17.548     1542.783      830.808      307.947        0.520        0.134       87.805       14.805        0.028      343.238       19.208      864.810
05/09/2013  22:05:00      -93.885      -36.097        1.887       40.618       40.673       23.180     1649.805     1654.326      537.315        0.698        0.192      100.585       16.493        0.027      343.256       19.239      864.823
05/09/2013  22:06:00     -146.430      -43.042       -6.130       43.044       35.278       27.232     1852.815     1244.520      741.596        1.358        0.192      152.625       27.510        0.032      343.267       19.258      864.846
05/09/2013  22:07:00     -152.022      -64.090       -0.865       58.883       58.396       23.164     3467.211     3410.135      536.584        1.732        0.371      164.980       25.461        0.024      343.314       19.337      864.863
05/09/2013  22:08:00     -199.409      -82.662        0.886       57.761       47.893       34.836     3336.326     2293.729     1213.519        2.672        0.342      215.863       34.233        0.025      343.304       19.319      864.867
05/09/2013  22:09:00     -166.626      -45.651        0.910       67.974       47.018       29.747     4620.504     2210.675      884.894        1.878        0.386      172.766       28.484        0.027      343.285       19.287      864.875
05/09/2013  22:10:00     -182.039      -81.165        1.164       65.644       49.148       31.276     4309.189     2415.567      978.183        2.371        0.385      199.314       26.064        0.017      343.361       19.416      864.871
05/09/2013  22:11:00     -160.922      -81.394        0.344       62.643       49.266       32.298     3924.195     2427.101     1043.136        1.996        0.370      180.336       33.123        0.034      343.312       19.334      864.891
05/09/2013  22:12:00     -124.867      -40.477        3.222       57.961       43.764       27.756     3359.527     1915.255      770.396        1.164        0.302      131.264       31.093        0.056      343.301       19.317      864.911
05/09/2013  22:13:00      -96.413      -28.452        0.441       57.305       24.595       19.307     3283.872      604.907      372.777        0.718        0.213      100.523       19.906        0.039      343.256       19.239      864.934
05/09/2013  22:14:00      -96.353        2.488       -7.460       38.641       25.214       21.628     1493.143      635.725      467.761        0.597        0.130       96.385       20.771        0.046      343.249       19.227      864.950
05/09/2013  22:15:00      -52.599       -0.313       -6.422       17.499       27.260       11.937      306.201      743.134      142.480        0.200        0.060       52.600        7.702        0.021      343.243       19.216      864.978
05/09/2013  22:16:00      -18.642        7.730       -3.045       16.716       11.804       11.492      279.417      139.329      132.063        0.048        0.028       20.181        7.855        0.151      343.266       19.258      865.004
05/09/2013  22:17:00        3.242        6.714       14.891        7.871       12.541        5.747       61.952      157.287       33.031        0.026        0.013        7.456        5.198        0.486      343.204       19.151      865.026
05/09/2013  22:18:00       -5.633       36.272       -1.024       25.466       13.761       10.412      648.518      189.376      108.400        0.115        0.047       36.706        9.707        0.070      343.286       19.289      865.065
05/09/2013  22:19:00       84.593       57.553        1.341       38.608       17.320       16.906     1490.568      299.983      285.808        0.627        0.104      102.314       16.284        0.025      343.151       19.061      865.120
05/09/2013  22:20:00      234.067      114.374        5.002       82.280       50.317       40.644     6770.045     2531.846     1651.901        3.942        0.548      260.517        8.225        0.001      343.184       19.112      865.201
05/09/2013  22:21:00      277.544      167.613       36.785       88.787       77.689       68.890     7883.193     6035.538     4745.897        6.257        0.933      324.229       49.898        0.024      343.076       18.929      865.276
05/09/2013  22:22:00      182.433      131.888       61.854      133.548       91.497       77.007    17835.048     8371.613     5930.109        4.331        1.607      225.114       49.649        0.049      343.085       18.947      865.302
05/09/2013  22:23:00      241.968      109.255       56.706       96.447       97.097       81.935     9302.032     9427.863     6713.366        4.957        1.272      265.490       57.855        0.047      343.098       18.965      865.279
05/09/2013  22:24:00      117.674       73.739       57.435      113.097       81.004       70.192    12790.843     6561.701     4926.963        2.343        1.214      138.869       57.597        0.172      343.112       18.993      865.247
05/09/2013  22:25:00      271.350      169.020       40.977      105.787      106.112       76.472    11190.897    11259.840     5847.959        6.608        1.415      319.685       44.888        0.020      343.310       19.329      865.287
05/09/2013  22:26:00      138.898      105.221       23.264       82.891       65.303       53.017     6870.955     4264.465     2810.755        2.242        0.697      174.253       38.553        0.049      343.361       19.417      865.302
05/09/2013  22:27:00       82.938      124.552      -10.083       80.625       70.493       51.656     6500.421     4969.310     2668.363        1.831        0.707      149.640       48.865        0.107      343.392       19.470      865.300
05/09/2013  22:28:00       -8.438      245.893      -33.261       47.587       58.490       28.690     2264.475     3421.056      823.116        3.407        0.325      246.037       24.387        0.010      343.313       19.332      865.317
05/09/2013  22:29:00      -40.650      107.441       -0.094       61.213       73.224       48.656     3747.052     5361.743     2367.414        1.233        0.574      114.874       46.372        0.163      343.327       19.360      865.317
05/09/2013  22:30:00      -66.009       98.654        0.742       55.441       58.303       40.726     3073.699     3399.282     1658.648        1.111        0.407      118.701       26.163        0.049      343.387       19.461      865.294
05/09/2013  22:31:00      -76.125       68.106      -11.398       62.889       55.451       38.719     3954.988     3074.792     1499.191        0.954        0.426      102.145       34.938        0.117      343.505       19.663      865.276
05/09/2013  22:32:00      -57.709      214.523      -31.601       76.186       63.042       44.761     5804.273     3974.273     2003.540        3.106        0.589      222.149       31.139        0.020      343.597       19.816      865.259
05/09/2013  22:33:00      -70.299      127.280       -6.196       53.276       74.463       42.284     2838.320     5544.760     1787.910        1.567        0.509      145.403       38.718        0.071      343.537       19.717      865.234
05/09/2013  22:34:00     -179.408       72.157      -28.927       77.723       94.791       45.540     6040.905     8985.289     2073.897        2.766        0.855      193.375       57.566        0.089      343.607       19.835      865.219
05/09/2013  22:35:00      -91.504      203.016      -19.497       72.605       67.247       46.076     5271.520     4522.194     2122.976        3.094        0.596      222.685       43.278        0.038      343.567       19.766      865.226
05/09/2013  22:36:00      -70.484      107.703       -6.272       56.199      120.566       36.407     3158.326    14536.108     1325.478        1.781        0.951      128.716       31.336        0.059      343.525       19.697      865.229
05/09/2013  22:37:00      -96.777      158.033      -27.569       54.428       79.772       38.993     2962.407     6363.641     1520.471        2.297        0.542      185.311       33.609        0.033      343.456       19.578      865.227
05/09/2013  22:38:00     -184.973      161.637      -42.302       72.153       93.716       43.658     5206.035     8782.718     1905.990        3.901        0.795      245.645       50.258        0.042      343.396       19.477      865.221
05/09/2013  22:39:00     -104.826       57.274      -12.456       57.092       76.747       43.489     3259.464     5890.084     1891.264        1.273        0.552      119.452       37.903        0.101      343.359       19.414      865.231
05/09/2013  22:40:00     -183.162      196.467      -43.633       83.112       94.311       54.822     6907.554     8894.612     3005.478        4.643        0.940      268.604       50.984        0.036      343.184       19.114      865.233
05/09/2013  22:41:00     -149.691      151.784      -27.993       63.011       65.291       37.556     3970.400     4262.900     1410.473        2.793        0.482      213.180       27.351        0.016      343.103       18.977      865.234
05/09/2013  22:42:00      -97.275       92.954      -15.971       57.533       70.436       39.406     3309.993     4961.278     1552.810        1.409        0.491      134.546       23.650        0.031      343.052       18.892      865.226
05/09/2013  22:43:00     -157.186      137.181      -32.142       72.102      100.648       45.655     5198.655    10130.062     2084.334        3.098        0.871      208.629       37.502        0.032      343.009       18.817      865.234
05/09/2013  22:44:00      -98.407      120.603        0.209       62.230       80.519       46.668     3872.594     6483.329     2177.914        1.838        0.627      155.656       37.756        0.059      342.965       18.743      865.253
05/09/2013  22:45:00     -105.379       90.805      -18.148       62.910       69.777       38.335     3957.699     4868.803     1469.605        1.499        0.515      139.105       26.785        0.037      342.960       18.735      865.247
05/09/2013  22:46:00     -147.606      140.505      -27.897       72.180       84.427       50.867     5209.963     7127.834     2587.455        2.861        0.746      203.786       40.512        0.040      342.951       18.719      865.230
05/09/2013  22:47:00     -200.320      109.261      -42.774      103.097       82.745       56.761    10629.022     6846.691     3221.769        3.729        1.035      228.180       61.303        0.072      342.965       18.741      865.214
05/09/2013  22:48:00     -153.777      110.525      -25.492       77.786       69.165       54.064     6050.642     4783.837     2922.868        2.513        0.688      189.376       52.453        0.077      342.942       18.704      865.217
05/09/2013  22:49:00      -70.658       95.401      -12.367       35.447       56.845       31.765     1256.489     3231.389     1008.994        0.987        0.275      118.717       20.617        0.030      342.960       18.735      865.214
05/09/2013  22:50:00      -69.606       15.037       -7.991       54.522       70.172       33.284     2972.599     4924.143     1107.812        0.707        0.450       71.212       26.152        0.135      343.001       18.805      865.202
05/09/2013  22:51:00     -122.773       66.009       -6.293       53.722       87.604       39.144     2886.015     7674.389     1532.270        1.578        0.605      139.393       31.168        0.050      342.992       18.788      865.190
05/09/2013  22:52:00      -81.590       50.702       -7.824       45.771       48.168       29.267     2094.979     2320.121      856.582        0.728        0.264       96.061       29.234        0.093      342.975       18.762      865.199
05/09/2013  22:53:00      -74.860       95.157      -20.167       64.081       58.210       31.018     4106.372     3388.346      962.114        1.176        0.423      121.074       30.215        0.062      342.989       18.785      865.198
05/09/2013  22:54:00      -97.836       64.777      -22.217       51.090       74.949       37.690     2610.149     5617.317     1420.520        1.195        0.482      117.337       29.007        0.061      342.999       18.800      865.207
05/09/2013  22:55:00      -93.538       -5.835      -29.422       26.684       35.983       25.465      712.029     1294.766      648.471        0.615        0.133       93.719       12.626        0.018      343.026       18.846      865.222
05/09/2013  22:56:00      -79.039       59.723       -9.295       49.539       65.248       33.958     2454.095     4257.243     1153.162        0.888        0.393       99.066       22.369        0.051      343.000       18.802      865.254
05/09/2013  22:57:00      -75.337      115.787       -8.431       40.645       50.501       28.369     1651.996     2550.389      804.781        1.208        0.250      138.139       29.313        0.045      342.981       18.771      865.278
05/09/2013  22:58:00      -82.752       24.268      -12.951       29.882       31.176       17.655      892.940      971.958      311.700        0.489        0.109       86.237       13.021        0.023      343.046       18.881      865.326
05/09/2013  22:59:00     -105.094       69.998      -18.192       79.124       38.978       33.466     6260.590     1519.293     1119.996        1.259        0.445      126.271       38.186        0.091      343.057       18.899      865.365
05/09/2013  23:00:00      -72.724       41.651       -1.303       70.654       29.564       28.121     4991.927      874.018      790.796        0.684        0.333       83.807       25.642        0.094      343.069       18.921      865.394
05/09/2013  23:01:00      -98.119       99.174      -18.416       49.081       53.384       32.821     2408.921     2849.878     1077.215        1.307        0.317      139.509       32.673        0.055      343.104       18.980      865.428
05/09/2013  23:02:00      -57.986       69.654       -4.817       44.753       56.726       28.797     2002.866     3217.849      829.255        0.714        0.302       90.632       35.160        0.150      343.078       18.937      865.464
05/09/2013  23:03:00      -15.640       92.526      -15.349       23.814       32.257       18.744      567.102     1040.508      351.328        0.550        0.098       93.838       15.676        0.028      343.144       19.048      865.495
05/09/2013  23:04:00       -2.731      115.865       -9.748       20.855       32.486       17.493      434.944     1055.316      306.006        0.766        0.090      115.897       16.959        0.021      343.130       19.024      865.528
05/09/2013  23:05:00      -42.740      106.173      -17.589       26.206       36.899       17.253      686.748     1361.506      297.658        0.788        0.117      114.453        8.645        0.006      343.128       19.021      865.542
05/09/2013  23:06:00      -52.127       47.336      -11.324       26.309       35.630       21.075      692.159     1269.505      444.145        0.375        0.120       70.413       19.505        0.077      343.111       18.994      865.548
05/09/2013  23:07:00      -37.064       92.725       -8.816       20.287       30.911       13.725      411.557      955.517      188.367        0.580        0.078       99.858        7.825        0.006      343.133       19.030      865.565
05/09/2013  23:08:00       16.601       35.836        6.533       32.812       22.437       17.058     1076.658      503.405      290.967        0.174        0.094       39.495       18.945        0.230      343.106       18.983      865.609
05/09/2013  23:09:00      127.545       81.984       -1.224       51.799       21.389       21.011     2683.139      457.488      441.475        1.329        0.179      151.621       14.330        0.009      343.015       18.828      865.659
05/09/2013  23:10:00      152.247      117.892       47.507       55.073       54.700       57.886     3033.065     2992.083     3350.801        2.435        0.469      192.555       31.477        0.027      342.933       18.686      865.715
05/09/2013  23:11:00      136.611      113.868       44.250       58.469       44.969       44.608     3418.635     2022.177     1989.917        2.051        0.372      177.844       18.437        0.011      342.849       18.544      865.748
05/09/2013  23:12:00       58.362       47.832       18.886       36.709       35.797       36.103     1347.526     1281.444     1303.414        0.499        0.197       75.459       10.724        0.020      342.839       18.532      865.761
05/09/2013  23:13:00       50.484       25.699        5.996       40.984       25.833       25.285     1679.677      667.341      639.320        0.312        0.149       56.649       19.966        0.124      342.868       18.580      865.769
05/09/2013  23:14:00       60.599       53.751       -3.517       38.275       32.110       22.561     1465.000     1031.080      508.982        0.479        0.150       81.002       14.798        0.033      343.018       18.835      865.773
05/09/2013  23:15:00        4.898        8.682       -1.526       47.883       32.776       15.345     2292.781     1074.281      235.483        0.185        0.180        9.968       19.808        3.949      342.975       18.762      865.768
05/09/2013  23:16:00      -75.527       41.480       -8.554       20.814       53.611       12.961      433.239     2874.114      167.976        0.549        0.174       86.168       19.686        0.052      343.025       18.846      865.762
05/09/2013  23:17:00      -31.125       61.183      -14.931       25.227       30.917       18.773      636.419      955.857      352.415        0.344        0.097       68.645       15.412        0.050      343.091       18.957      865.763
05/09/2013  23:18:00      -78.330       17.180      -12.434       17.118       25.196       14.023      293.019      634.863      196.638        0.385        0.056       80.192        9.433        0.014      343.023       18.843      865.757
05/09/2013  23:19:00      -94.749       29.472      -19.710       22.926       29.350       16.799      525.599      861.448      282.222        0.595        0.083       99.226       12.617        0.016      343.107       18.986      865.756
05/09/2013  23:20:00     -142.659       49.180      -17.572       60.242       35.463       27.665     3629.044     1257.626      765.367        1.436        0.283      150.898       26.186        0.030      343.278       19.274      865.762
05/09/2013  23:21:00      -56.192       76.410      -17.483       26.403       44.617       26.456      697.095     1990.650      699.939        0.634        0.169       94.847       17.589        0.034      343.243       19.217      865.772
05/09/2013  23:22:00      -47.825        9.855        1.481       30.814       32.295       15.779      949.504     1042.968      248.978        0.231        0.112       48.830       14.376        0.087      343.236       19.207      865.789
05/09/2013  23:23:00      -68.235       40.993      -14.411       21.784       20.439       14.427      474.528      417.743      208.135        0.382        0.055       79.602       12.802        0.026      343.211       19.165      865.817
05/09/2013  23:24:00      -19.332       43.697       -9.970       23.441       38.245       16.102      549.480     1462.655      259.272        0.233        0.114       47.782       15.240        0.102      343.227       19.190      865.857
05/09/2013  23:25:00        8.590       82.175       -3.716       19.287       18.083       16.470      371.982      327.010      271.271        0.391        0.049       82.623       13.486        0.027      343.199       19.144      865.876
05/09/2013  23:26:00       29.258       78.653      -14.636       16.369       25.518       14.227      267.959      651.143      202.396        0.419        0.056       83.919       10.290        0.015      343.198       19.144      865.894
05/09/2013  23:27:00       26.471       22.915        8.279       14.831       16.198       12.638      219.963      262.374      159.722        0.097        0.032       35.012       11.826        0.114      343.185       19.121      865.909
05/09/2013  23:28:00      -11.448        0.097        0.257        9.866        9.972        6.421       97.331       99.443       41.235        0.018        0.012       11.448        4.052        0.125      343.154       19.064      865.917
05/09/2013  23:29:00        0.755       13.636       -0.085        7.985       14.985       11.603       63.765      224.555      134.630        0.030        0.021       13.657        9.327        0.466      343.184       19.116      865.938
05/09/2013  23:30:00       -1.191       32.246        2.058       14.676       13.918        8.825      215.382      193.720       77.875        0.077        0.024       32.268        6.857        0.045      343.176       19.102      865.973
05/09/2013  23:31:00      -27.237       29.918       -3.272       16.292       11.799       11.184      265.441      139.210      125.079        0.109        0.026       40.459       10.046        0.062      343.151       19.061      865.996
05/09/2013  23:32:00      -61.926      -10.336       -9.814       17.256       14.636        6.446      297.759      214.212       41.557        0.230        0.028       62.782        3.693        0.003      343.228       19.190      866.016
05/09/2013  23:33:00     -107.797      -31.488      -11.049       26.621       14.386       14.033      708.671      206.947      196.939        0.692        0.056      112.302        8.253        0.005      343.172       19.098      866.023
05/09/2013  23:34:00      -67.778      -45.367        0.659       51.781       26.382       20.177     2681.275      696.012      407.100        0.522        0.189       81.560       20.977        0.066      343.087       18.952      866.042
05/09/2013  23:35:00      -62.332      -50.669        9.155       50.468       35.734       27.154     2546.986     1276.918      737.353        0.555        0.228       80.328       28.219        0.123      343.037       18.866      866.058
05/09/2013  23:36:00      -85.149      -70.273        0.567       29.633       21.852       16.898      878.109      477.492      285.526        0.691        0.082      110.402        6.315        0.003      343.107       18.986      866.082
05/09/2013  23:37:00     -112.673      -43.855       -5.103       13.408       14.880        8.174      179.780      221.411       66.822        0.756        0.023      120.907        3.513        0.001      343.124       19.015      866.110
05/09/2013  23:38:00      -69.664      -34.132        2.287       23.495       17.787       16.167      552.032      316.382      261.367        0.358        0.056       77.576       11.289        0.021      343.075       18.931      866.131
05/09/2013  23:39:00      -60.054      -34.928        1.120       18.475       16.155       14.233      341.317      260.974      202.585        0.282        0.040       69.473       12.069        0.030      343.053       18.894      866.150
05/09/2013  23:40:00      -55.287      -27.868       -1.614       20.731       16.009        9.610      429.754      256.294       92.354        0.231        0.039       61.913        7.568        0.015      343.063       18.911      866.166
05/09/2013  23:41:00      -57.566       38.922       -5.424       18.087       17.328       10.819      327.147      300.247      117.061        0.280        0.037       69.489       11.202        0.026      342.892       18.620      866.183
05/09/2013  23:42:00      -95.773       19.912       -5.248       37.926       24.178       16.206     1438.380      584.581      262.650        0.594        0.114       97.821       17.434        0.032      342.928       18.682      866.199
05/09/2013  23:43:00     -102.294      -23.988       -6.026       34.356       22.015       19.765     1180.333      484.661      390.649        0.657        0.103      105.068       20.614        0.038      342.967       18.748      866.210
05/09/2013  23:44:00     -105.882      -45.611       -6.069       19.577       14.287       11.959      383.279      204.130      143.025        0.703        0.037      115.288        4.844        0.002      342.929       18.684      866.219
05/09/2013  23:45:00      -86.572       -6.384       -2.667       28.602       28.863       19.106      818.089      833.047      365.055        0.478        0.101       86.807       16.306        0.035      342.858       18.562      866.226
05/09/2013  23:46:00      -89.468       -3.738       -5.055       47.437       32.196       17.948     2250.281     1036.575      322.138        0.583        0.180       89.546       19.071        0.045      342.775       18.420      866.241
05/09/2013  23:47:00     -124.555      -62.879       -6.637       29.110       25.631       19.248      847.414      656.933      370.475        1.069        0.094      139.527       16.170        0.013      342.775       18.421      866.241
05/09/2013  23:48:00      -96.726      -33.833        1.178       33.663       30.856       19.651     1133.189      952.109      386.179        0.649        0.124      102.473       10.176        0.010      342.660       18.225      866.235
05/09/2013  23:49:00      -56.012      -62.441        1.165       43.839       25.103       19.293     1921.896      630.137      372.202        0.498        0.146       83.883       17.788        0.045      342.663       18.231      866.238
05/09/2013  23:50:00      -15.171      -32.622        8.626       22.085       21.163       15.690      487.750      447.892      246.185        0.128        0.059       35.977        5.403        0.023      342.588       18.103      866.232
05/09/2013  23:51:00      -57.478      -46.153        4.516       38.133       22.848       20.057     1454.092      522.027      402.271        0.392        0.119       73.715       22.008        0.089      342.607       18.133      866.205
05/09/2013  23:52:00      -80.572      -53.268        2.337       51.086       38.312       22.853     2609.737     1467.831      522.252        0.697        0.230       96.589       19.781        0.042      342.421       17.817      866.172
05/09/2013  23:53:00      -73.832      -46.414        0.336       44.919       42.168       21.982     2017.678     1778.164      483.204        0.594        0.214       87.209       17.356        0.040      342.381       17.751      866.139
05/09/2013  23:54:00     -120.744      -42.729       -0.373       57.961       37.295       22.261     3359.477     1390.932      495.541        1.082        0.262      128.082       22.179        0.030      342.264       17.550      866.127
05/09/2013  23:55:00      -95.000       -2.164        3.795       56.807       53.158       22.247     3227.037     2825.765      494.923        0.779        0.327       95.025       20.742        0.048      342.149       17.357      866.133
05/09/2013  23:56:00     -139.932        6.188      -10.257       33.384       26.366       15.788     1114.459      695.155      249.246        1.089        0.103      140.069       16.005        0.013      341.927       16.980      866.145
05/09/2013  23:57:00     -150.354       28.949       -7.585       38.038       34.401       25.075     1446.902     1183.459      628.771        1.338        0.163      153.116       19.048        0.015      341.922       16.970      866.182
05/09/2013  23:58:00     -146.489       -1.183      -12.486       55.170       27.163       25.398     3043.733      737.823      645.036        1.302        0.221      146.494       26.150        0.032      341.971       17.053      866.212
05/09/2013  23:59:00     -114.035      -18.212       -6.566       69.307       34.314       28.246     4803.522     1177.431      797.851        1.008        0.339      115.480       38.446        0.111      341.940       17.002      866.224
